GFSGBSN_850_rhum_000.txt.gz
RH
93 89 95 94 88 87 81 90 84 51 42 42 56 54 48 46 56 51 53 60 61 75 80 76 67 78 90 99 84 81 75 71 59 95 99 76 90 74 68 57 49 49 37 41 40 41 42
94 92 94 96 97 87 74 89 92 72 42 39 58 58 64 68 74 72 57 60 70 68 70 69 70 74 94 87 84 70 68 67 69 90 97 79 82 68 52 53 51 46 43 41 38 41 41
94 94 90 94 97 89 83 71 89 67 41 37 55 60 62 69 75 82 75 69 60 65 67 74 81 79 99 81 70 58 60 66 55 71 84 81 78 85 58 58 55 46 50 42 40 42 39
98 91 94 93 92 93 93 88 70 81 75 36 44 85 65 66 79 86 80 77 75 66 65 82 86 85 85 84 77 73 66 71 70 67 78 81 84 99 95 57 55 56 52 54 37 40 40
93 93 93 94 91 92 92 87 81 73 87 53 42 63 60 75 77 72 74 87 88 71 77 83 92 97 80 79 79 65 70 72 81 66 70 83 93 95 82 70 74 61 63 55 42 39 37
90 88 93 94 94 92 93 92 75 55 78 57 43 55 86 79 77 87 87 85 93 90 98 98 89 93 85 81 81 81 72 69 75 83 82 88 87 94 86 84 81 66 58 45 47 36 35
88 88 89 93 94 94 95 94 77 53 57 52 42 56 73 74 77 89 99 90 100 100 100 88 83 68 76 77 78 86 79 76 78 79 83 71 90 92 71 76 48 39 44 49 39 34 38
89 89 86 89 90 90 90 91 91 66 43 39 41 51 76 73 82 76 100 99 90 88 98 91 89 81 83 85 81 77 84 70 72 80 80 66 89 66 79 61 56 45 47 47 34 36 37
90 90 86 89 88 90 89 88 90 88 56 41 45 51 69 79 82 85 98 100 98 97 96 94 92 88 80 83 76 72 82 65 64 73 86 80 74 58 83 64 65 50 50 41 42 44 41
91 88 89 85 88 91 88 84 86 88 80 51 48 51 81 89 91 95 100 97 98 96 100 88 92 85 88 78 75 68 75 60 65 70 89 60 54 78 77 73 57 57 42 45 52 64 57
85 88 86 87 86 94 89 88 89 94 90 78 59 54 81 80 99 97 92 100 100 97 95 66 83 75 75 64 56 70 77 59 62 79 87 76 80 87 78 68 48 48 47 49 53 60 55
84 88 85 81 82 87 94 90 97 91 99 94 88 67 65 85 89 98 100 97 98 97 92 92 84 80 80 66 53 73 78 60 63 67 70 52 86 80 61 54 52 48 50 52 48 52 62
97 87 85 81 84 89 94 92 93 95 98 100 98 96 76 84 97 94 100 99 100 97 85 99 98 93 74 65 54 77 72 73 92 99 100 83 89 91 60 81 64 49 60 97 90 79 58
100 93 84 82 85 95 94 90 91 97 99 97 100 100 97 95 94 99 100 98 99 84 94 83 86 88 80 60 55 77 64 63 70 82 64 100 99 93 65 63 80 61 52 52 62 58 46
100 97 89 89 90 95 91 93 96 97 99 95 100 100 99 98 97 100 97 100 85 93 86 95 79 91 66 59 54 77 55 54 71 73 73 96 99 82 68 60 55 82 79 40 46 48 45
98 100 92 92 92 92 87 91 97 94 98 96 100 98 98 97 97 100 98 98 94 82 82 62 58 56 60 56 73 76 52 39 61 62 60 57 91 66 62 64 62 61 49 66 53 60 56
98 100 93 96 93 94 85 90 95 97 98 100 99 100 92 100 99 98 100 97 87 79 72 43 47 51 49 54 83 56 49 48 47 52 56 55 51 67 58 73 74 56 73 62 44 44 44
97 100 100 96 97 96 88 90 94 100 98 100 94 96 100 99 98 92 98 89 87 82 73 38 40 42 42 48 73 64 48 54 37 55 67 58 41 79 64 47 42 44 48 47 54 56 44
95 94 100 99 98 97 90 91 96 100 100 98 92 99 100 100 97 96 87 90 86 81 62 45 54 50 47 52 73 69 55 36 47 58 59 44 45 66 74 58 46 56 48 48 37 38 44
94 93 100 100 99 98 91 92 96 100 100 100 93 97 100 100 98 95 94 91 92 73 54 56 54 57 58 58 48 57 55 57 63 52 57 44 46 40 53 48 44 54 47 47 48 51 42
100 94 99 100 98 100 94 92 96 99 100 100 79 82 82 90 95 96 95 88 88 84 71 79 62 57 50 59 69 66 57 70 59 65 61 54 48 46 44 42 40 44 49 44 46 42 43
99 95 98 100 99 99 94 93 98 100 100 100 78 82 90 76 83 92 96 93 89 93 82 87 93 57 52 55 56 69 71 65 69 66 62 51 52 41 45 49 41 43 42 45 44 40 35
95 97 98 100 99 99 95 94 98 100 100 98 87 70 76 56 60 85 88 91 88 83 94 89 74 62 58 51 45 52 55 51 52 59 64 54 47 46 49 42 43 52 43 42 38 34 32
86 100 98 100 100 100 97 97 98 99 100 100 77 78 74 53 56 60 71 87 96 85 90 77 60 58 51 51 53 53 58 51 47 47 46 53 47 48 58 45 66 37 41 33 36 32 31
97 98 99 97 100 100 92 99 98 100 100 100 99 81 80 60 49 58 69 90 81 80 72 56 63 58 50 47 52 60 58 76 60 53 47 44 74 77 59 79 38 37 46 40 44 40 36
92 99 98 98 100 100 100 98 99 100 100 100 100 93 82 58 46 59 62 83 92 82 58 59 66 53 49 48 60 87 96 80 84 69 52 58 79 86 78 57 47 38 44 40 36 33 40
91 96 98 98 100 100 100 100 99 99 100 100 100 90 88 66 60 55 52 68 87 83 62 55 62 64 75 65 68 79 69 48 68 72 86 63 59 87 62 74 42 40 42 48 42 41 51
94 95 99 98 100 100 100 99 99 98 100 100 99 89 87 72 62 60 58 56 76 76 71 54 64 67 91 80 63 65 63 46 45 44 53 64 56 55 69 92 88 49 51 47 50 58 54
96 94 98 100 100 100 100 99 98 99 100 100 100 95 89 99 74 74 67 60 58 51 68 57 68 58 78 84 65 65 58 57 45 49 54 48 44 47 44 46 59 61 55 52 55 53 54

GFSGBSN_850_rhum_003.txt.gz
RH
98 88 87 89 92 91 89 88 78 78 63 35 40 60 57 50 63 68 56 55 58 51 60 82 77 72 83 94 77 70 69 68 74 93 84 72 55 56 68 47 47 43 34 31 32 30 32
97 94 89 88 89 93 84 79 68 85 78 44 37 55 61 63 74 79 74 61 64 66 61 72 75 72 94 78 66 69 72 73 70 76 84 76 58 49 50 56 49 45 37 34 32 33 32
98 98 87 88 86 90 93 93 80 69 78 49 33 42 62 60 80 91 85 79 63 53 63 62 80 84 89 71 66 68 69 66 62 61 64 73 66 56 53 56 49 46 45 37 33 32 30
96 98 90 89 87 90 89 92 93 81 61 70 53 39 77 77 77 84 93 87 75 63 56 65 78 97 94 71 72 71 69 64 63 62 62 63 68 62 64 83 74 51 57 62 38 33 31
90 95 90 89 88 86 88 91 91 89 76 70 79 44 44 78 69 82 75 79 91 80 68 74 87 100 78 76 77 66 66 61 56 66 63 61 71 69 70 96 92 78 76 66 46 30 32
86 89 91 90 92 86 85 89 91 91 76 61 84 58 41 66 68 77 82 97 90 94 79 93 98 97 78 75 70 72 69 66 59 57 63 62 71 72 75 88 93 77 72 53 56 33 34
93 83 92 89 91 90 88 85 88 90 85 60 79 66 46 61 78 86 84 95 98 100 100 92 86 64 66 67 74 79 68 70 64 56 65 60 80 85 59 75 70 55 62 49 42 31 33
92 83 87 86 92 93 86 85 86 88 92 70 76 52 47 67 72 82 93 97 97 92 97 92 78 79 70 76 71 74 70 65 58 64 49 66 87 52 43 53 76 63 56 45 42 33 34
97 78 88 88 90 92 88 85 83 82 91 86 60 53 49 67 78 90 98 78 100 97 98 96 94 84 72 81 66 62 68 62 49 57 52 68 61 45 44 58 86 58 64 53 45 36 34
100 89 84 89 87 89 88 90 89 80 86 87 68 54 55 76 92 92 99 90 96 100 100 87 96 95 86 92 83 65 64 57 55 59 49 56 47 62 49 68 73 82 56 37 41 44 49
100 100 93 88 91 87 88 95 91 86 91 91 82 61 60 76 91 97 97 92 100 99 96 63 90 86 90 91 48 51 58 63 59 55 68 68 69 80 63 64 73 81 57 40 45 47 57
94 98 99 94 85 83 88 93 94 89 97 97 90 81 64 83 87 98 94 100 100 99 92 83 79 84 77 87 56 52 54 59 50 56 70 52 58 60 62 64 81 63 56 55 48 46 59
93 99 99 98 91 80 84 89 95 92 95 99 100 90 82 93 92 96 99 99 100 97 76 97 98 88 75 77 63 62 70 76 86 99 100 80 81 84 74 94 91 72 79 82 70 67 50
84 96 99 100 98 85 82 92 96 93 94 100 100 100 91 90 96 98 100 98 99 64 75 91 95 95 99 64 54 54 75 86 61 80 92 91 84 86 74 90 92 80 69 48 58 54 41
92 88 98 100 99 93 84 98 97 96 97 100 100 100 99 96 92 100 98 100 84 69 90 96 96 100 100 74 38 44 70 86 47 64 100 85 89 76 84 67 64 83 75 39 40 35 38
80 97 96 99 100 98 99 98 94 94 100 100 100 100 97 100 93 100 99 97 87 69 88 84 85 62 75 66 46 53 63 51 43 46 70 89 96 88 87 69 81 72 42 54 43 51 46
93 94 96 98 100 99 99 98 93 92 99 100 100 99 95 92 99 100 97 97 78 74 83 62 45 47 41 43 44 51 45 32 34 41 72 87 94 93 89 78 84 83 68 48 34 36 39
95 100 94 98 100 100 100 98 92 91 100 100 100 92 98 97 98 93 96 94 81 80 87 54 32 32 32 33 43 46 39 34 28 37 94 78 93 99 93 47 47 59 60 41 43 50 37
92 98 98 92 97 100 100 96 90 94 100 98 94 75 100 98 98 96 81 92 86 84 70 50 38 33 29 35 44 43 39 28 37 39 70 57 78 98 94 62 52 61 44 40 38 35 39
88 98 99 91 97 100 100 97 88 95 100 100 80 96 100 100 94 89 94 94 95 76 69 44 39 38 42 41 35 45 46 33 41 36 56 50 54 47 50 45 53 65 55 40 38 44 37
89 96 98 98 97 100 100 97 86 97 100 100 82 83 76 96 95 92 92 88 95 90 68 46 61 48 49 45 43 55 42 43 40 47 48 59 54 40 34 34 41 44 49 51 51 44 42
98 86 94 98 98 100 100 94 87 96 100 100 80 60 82 82 75 83 93 92 95 85 68 76 89 48 47 43 36 46 40 42 60 52 56 55 59 42 45 41 36 41 40 43 44 42 39
100 96 95 97 98 98 100 100 89 96 100 98 97 85 75 54 61 76 83 86 86 81 84 60 74 68 50 42 35 37 35 42 46 50 64 68 66 46 50 43 44 51 38 38 39 36 35
100 97 94 97 97 100 100 100 91 95 99 99 98 88 71 57 40 49 59 88 90 87 84 77 84 86 58 48 45 45 45 54 49 51 47 63 59 47 59 44 66 36 34 30 34 33 31
99 95 96 98 98 98 100 100 96 94 95 100 100 82 74 61 43 43 70 88 91 92 90 82 84 72 63 49 53 74 81 83 67 61 57 53 57 65 70 71 53 37 36 36 37 37 28
100 99 98 97 97 100 100 100 100 96 96 100 99 100 92 66 42 50 65 92 93 87 86 79 75 64 53 54 65 92 100 96 91 85 77 65 63 74 72 58 62 36 39 33 30 39 29
100 100 99 98 98 98 100 100 100 100 97 99 100 100 98 74 56 58 57 80 98 77 72 65 64 62 71 65 72 74 74 64 92 96 96 96 91 95 95 87 51 35 38 39 40 44 38
100 98 96 97 96 97 98 99 100 99 99 100 98 100 99 79 73 64 66 77 100 91 59 67 67 72 89 80 68 64 54 50 55 61 78 83 88 93 96 98 83 39 46 44 50 47 41
100 97 93 92 96 94 97 100 100 98 100 100 100 100 98 97 94 78 71 66 85 95 66 64 71 65 84 90 62 57 60 42 41 58 43 64 45 45 47 54 48 46 51 53 50 47 47

GFSGBSN_850_rhum_006.txt.gz
RH
93 84 91 90 89 86 90 90 88 87 76 81 59 37 48 55 53 59 65 59 57 65 58 64 79 69 66 94 79 74 61 58 72 79 93 82 69 55 61 56 50 50 42 37 34 32 31
96 83 87 89 89 89 88 86 90 84 74 88 79 41 43 57 65 74 78 75 66 74 73 73 82 79 89 77 62 64 71 58 68 69 82 78 68 56 47 50 57 48 45 45 39 32 31
97 71 80 86 86 88 88 88 91 92 81 72 78 55 39 56 64 77 80 79 81 74 68 73 71 77 96 75 63 63 63 69 66 62 60 63 66 69 50 48 54 51 67 48 45 36 32
87 75 58 84 86 85 89 90 87 87 88 82 64 76 45 59 90 72 76 80 84 80 76 73 72 94 89 77 67 66 64 63 55 56 59 57 58 64 64 58 66 73 68 85 49 38 35
93 87 68 77 85 88 88 88 90 89 86 90 76 73 83 70 85 76 81 71 71 87 84 81 76 91 73 69 76 65 66 63 57 53 60 56 55 64 67 70 87 78 82 83 67 41 37
100 94 86 81 84 86 88 88 87 90 89 88 81 68 90 53 76 74 79 77 92 89 93 98 96 93 75 69 72 72 67 65 61 54 53 60 57 67 73 79 89 79 90 65 72 51 40
98 100 95 83 82 86 89 90 90 87 86 87 88 61 80 70 74 84 89 84 80 94 100 82 78 67 62 66 67 68 67 64 64 60 65 53 77 85 71 69 66 60 60 74 52 47 44
98 91 98 96 79 87 84 86 90 88 85 85 89 71 76 70 76 79 90 94 87 93 97 96 80 79 64 72 65 67 66 64 63 73 57 64 84 59 51 53 64 65 74 80 54 45 46
97 99 100 100 88 84 85 90 89 85 87 85 86 82 63 64 77 85 90 92 83 84 100 96 89 86 76 76 67 59 68 64 58 67 62 72 59 52 51 51 59 62 74 79 69 46 49
98 98 100 100 99 90 86 87 90 87 88 90 88 82 56 63 82 77 95 98 99 94 100 88 94 94 88 90 88 67 62 62 59 63 56 61 49 46 56 57 52 66 56 64 79 68 76
96 99 89 100 100 98 95 87 88 88 94 95 95 81 55 62 89 92 89 93 91 100 97 76 90 90 91 95 77 72 66 63 64 57 53 75 54 53 55 62 48 61 52 68 82 85 74
96 92 83 89 100 94 100 96 87 92 96 96 100 85 67 78 93 94 96 92 95 99 94 83 87 92 91 92 81 77 66 66 60 64 53 55 47 54 59 52 66 52 64 76 92 90 95
96 96 91 95 95 94 99 99 89 90 98 98 100 92 80 80 88 83 93 99 100 99 66 95 92 80 74 91 91 85 69 71 77 91 94 94 79 65 80 87 64 68 78 95 100 99 82
92 95 86 89 94 92 99 98 94 84 99 98 100 100 90 95 92 97 98 96 100 55 71 85 91 91 99 90 94 88 75 77 65 74 90 85 76 79 70 91 77 81 84 100 96 98 59
96 90 90 97 90 96 99 96 89 92 100 97 100 100 99 98 99 100 92 99 78 70 77 96 97 100 100 96 88 80 70 92 61 59 98 100 86 59 56 61 80 91 97 79 99 37 54
87 97 100 93 98 99 99 100 92 96 100 100 100 100 98 100 100 100 98 88 83 71 87 93 98 73 84 84 70 61 57 47 58 54 60 90 95 70 70 73 75 88 68 99 87 56 65
100 98 99 96 99 100 98 100 100 98 99 100 100 99 94 100 99 100 97 90 75 72 85 93 70 60 52 67 58 45 45 42 46 49 72 90 97 96 88 96 86 98 98 93 80 55 56
100 99 97 99 99 97 98 100 100 100 100 100 99 99 99 98 98 97 96 81 88 82 84 82 73 64 39 47 52 44 50 49 38 41 69 90 99 100 96 78 75 80 78 78 57 60 49
100 99 98 100 100 99 92 99 97 100 100 99 96 97 100 98 97 97 86 87 90 90 86 81 60 37 31 33 42 38 49 37 34 67 80 89 99 99 99 92 86 91 77 63 57 46 57
94 99 99 100 98 97 99 100 100 100 98 99 92 96 100 100 91 87 91 96 96 86 84 72 58 40 36 37 32 59 42 41 39 42 69 90 90 100 91 74 77 87 80 66 55 57 45
89 99 98 97 100 96 97 99 100 100 100 100 89 89 86 98 96 93 90 92 96 96 80 72 57 45 48 48 42 39 46 39 44 39 70 84 96 74 43 56 57 60 61 56 54 44 49
87 93 96 100 96 98 97 99 95 100 100 100 92 77 87 83 70 82 88 93 95 90 92 73 63 59 61 47 40 44 40 44 44 52 52 57 79 65 51 43 48 56 55 56 55 48 48
85 92 96 98 96 100 96 100 100 100 100 100 94 78 77 61 74 88 86 87 86 87 86 80 73 56 70 47 38 29 34 34 45 52 64 70 76 64 60 44 46 55 48 51 51 48 48
88 90 99 98 97 95 98 98 100 100 100 98 98 88 86 84 52 62 66 68 85 89 90 83 74 76 64 50 51 51 54 58 51 53 51 73 73 65 62 49 74 42 36 36 42 41 40
88 88 99 97 94 99 93 100 100 99 100 100 99 98 94 90 63 50 44 69 88 95 96 86 83 71 66 64 68 80 88 81 72 65 73 57 67 79 82 74 56 45 36 38 43 44 35
87 88 98 91 89 94 86 94 99 100 100 100 100 100 89 92 75 55 61 85 93 96 98 92 84 75 75 75 76 95 96 92 98 89 75 70 71 88 91 78 75 44 39 34 35 55 41
88 88 99 96 92 93 87 96 99 100 100 100 99 100 100 96 79 63 60 85 90 91 93 85 87 83 84 78 84 89 92 75 98 97 98 94 95 98 93 88 74 42 40 36 47 54 41
86 89 100 100 89 88 90 95 98 100 100 100 98 100 99 92 79 73 70 76 95 98 89 74 83 87 96 90 88 85 70 75 87 76 87 90 89 88 97 99 92 43 47 49 56 43 39
87 89 99 100 91 91 90 96 98 100 100 100 100 100 100 98 96 84 84 73 78 89 92 82 79 70 78 86 82 69 66 51 60 91 68 85 72 79 78 72 52 44 52 48 48 43 44

GFSGBSN_850_rhum_009.txt.gz
RH
98 72 61 47 86 90 88 87 87 90 86 76 74 66 40 44 61 51 60 64 60 57 60 57 69 75 74 85 87 69 60 61 68 72 84 92 87 78 71 64 65 72 58 53 49 47 43
99 93 82 69 53 88 86 89 89 86 90 87 77 84 57 37 60 65 72 74 75 63 66 64 64 86 85 94 49 60 67 65 66 67 81 86 84 72 67 58 62 57 57 53 48 46 41
99 100 91 82 71 59 85 86 88 86 89 91 80 72 64 36 49 62 73 86 88 77 62 64 64 76 86 75 62 64 64 67 68 62 62 76 67 73 69 68 58 62 71 59 60 48 50
100 98 100 96 85 61 81 82 85 86 87 89 89 80 64 55 40 76 70 82 88 88 79 71 70 77 89 66 58 67 63 68 66 66 59 58 58 59 67 66 64 74 76 85 58 56 48
99 100 99 100 93 81 76 82 87 87 86 86 88 87 67 79 45 79 76 83 76 75 89 81 84 76 83 66 68 64 69 63 59 57 57 53 55 57 65 79 84 87 85 88 78 54 52
96 96 99 97 99 92 73 80 81 84 85 91 86 89 71 84 65 73 77 87 79 94 92 96 84 97 76 65 66 63 66 68 60 58 57 58 59 78 82 90 87 72 88 67 83 61 58
100 100 99 99 90 99 92 81 84 88 88 88 88 94 74 79 78 67 79 84 83 90 100 85 81 71 61 64 69 71 67 70 68 65 77 59 88 85 82 77 74 64 66 66 60 56 60
100 99 100 99 100 100 99 81 84 87 84 84 85 91 83 73 75 69 93 92 83 91 96 90 80 85 68 68 70 67 67 69 67 76 73 77 83 69 63 64 70 73 86 84 66 61 72
89 100 99 98 99 99 97 94 87 78 82 82 86 90 89 77 70 83 84 98 87 86 95 91 78 90 86 74 76 68 69 68 70 84 79 85 63 54 61 66 72 75 88 81 75 64 65
92 94 99 100 91 83 94 100 94 92 88 86 91 96 92 76 77 78 90 76 87 95 100 80 90 90 93 89 86 78 66 64 69 82 74 78 59 59 62 72 64 79 56 59 66 70 89
92 98 99 100 99 87 84 100 100 97 94 90 94 98 87 57 71 81 72 84 94 98 96 75 84 86 92 90 80 81 69 73 78 71 73 80 67 69 70 64 59 68 51 56 62 78 83
90 100 96 94 88 99 91 99 98 99 99 94 97 99 81 76 93 88 87 93 89 94 93 90 88 87 88 94 81 74 76 76 84 86 75 71 50 57 59 49 47 54 72 72 72 78 97
86 99 100 100 95 98 98 91 98 94 98 99 100 100 79 64 92 96 90 77 98 95 59 92 90 83 80 82 87 75 92 94 98 99 99 83 89 69 80 81 67 70 78 92 98 98 87
93 93 100 98 96 96 99 94 100 87 98 100 100 100 89 74 82 82 84 94 97 66 75 79 83 77 96 75 87 82 98 99 89 85 92 95 89 75 80 78 73 81 75 84 93 83 66
97 94 99 98 87 97 97 97 95 96 100 100 100 100 93 86 97 89 77 98 83 68 74 95 94 100 100 91 85 96 98 98 69 77 89 94 89 60 58 61 61 76 87 63 98 90 86
89 97 97 96 97 99 98 96 94 96 100 100 100 100 98 92 100 94 93 83 81 66 84 92 100 96 78 79 97 98 91 75 73 62 57 81 95 66 70 60 65 60 58 90 99 98 96
87 90 94 98 99 98 99 99 96 100 100 100 99 99 98 98 100 99 100 89 73 67 77 94 96 90 76 83 86 81 64 53 58 56 57 82 95 79 89 89 79 91 94 73 75 85 99
86 80 89 98 97 100 100 99 99 100 100 100 98 98 100 100 98 97 97 76 67 77 75 84 92 81 79 67 76 68 59 44 55 51 71 89 99 99 84 75 65 71 81 60 72 84 97
84 87 87 99 91 99 99 98 99 92 100 100 98 99 100 100 98 98 83 81 72 79 82 89 92 68 60 59 83 59 54 46 54 65 89 93 100 97 100 96 90 80 76 74 62 94 93
85 86 86 96 93 99 99 95 86 98 98 99 91 98 100 100 95 89 88 87 94 89 89 85 84 72 65 57 53 54 46 47 48 54 74 92 100 100 99 87 79 91 74 75 93 97 56
89 83 88 93 97 99 98 96 92 100 100 96 90 93 86 97 97 92 83 87 96 97 91 86 86 81 68 55 46 53 53 47 58 71 85 87 100 100 91 80 71 76 83 92 100 66 45
90 83 87 89 98 96 100 97 97 100 98 97 96 91 85 88 82 95 92 95 92 94 92 87 88 62 59 73 48 49 49 51 53 74 81 86 99 95 80 80 75 82 84 71 58 49 50
91 84 87 89 98 96 99 100 100 98 100 100 88 79 79 82 83 93 88 85 83 82 86 81 79 86 75 65 58 40 48 38 41 61 68 83 90 83 71 61 70 72 62 62 57 50 50
92 84 88 89 99 96 96 98 99 98 100 100 84 88 84 92 81 82 78 81 86 86 84 84 90 87 70 60 61 52 56 58 55 65 63 80 78 74 77 60 73 45 37 49 55 50 49
90 85 86 90 96 98 94 96 100 100 99 100 90 81 85 95 78 81 71 64 80 82 93 90 84 81 69 71 83 89 92 80 75 73 73 65 76 82 85 84 59 44 41 42 48 50 42
90 87 83 85 98 98 90 96 98 98 100 100 100 98 88 92 89 80 78 80 89 89 96 90 93 91 85 84 85 100 98 98 97 83 80 71 77 84 95 82 75 45 41 37 37 57 46
92 88 87 87 100 99 91 94 99 99 100 99 99 100 96 94 78 78 80 86 83 96 98 97 95 89 84 93 97 96 93 83 94 94 96 94 93 89 89 94 76 48 40 38 49 51 45
91 93 90 88 99 99 96 92 99 100 100 100 98 100 100 94 84 80 68 76 95 91 96 94 94 96 98 97 96 89 89 92 95 82 88 81 96 97 90 94 88 45 42 37 49 44 53
84 87 87 90 100 100 98 97 97 98 100 99 100 100 100 97 92 92 83 80 78 77 96 94 99 87 84 91 90 84 77 80 88 96 75 91 78 82 80 74 56 50 50 49 43 48 56

GFSGBSN_850_rhum_012.txt.gz
RH
100 100 100 99 92 74 63 77 85 89 90 89 92 77 76 44 42 57 51 64 62 57 57 55 55 65 56 87 82 67 61 61 63 83 90 93 84 81 77 68 66 79 67 62 62 59 56
97 98 100 100 100 95 74 58 88 86 87 85 89 84 84 68 39 60 60 68 70 67 58 65 64 74 79 96 50 65 71 70 64 72 77 91 85 73 77 71 71 60 57 61 59 57 54
96 98 98 100 99 100 95 71 76 86 83 84 85 89 82 69 41 54 65 70 82 76 69 61 68 73 90 69 59 60 66 64 69 68 64 78 70 84 78 72 65 63 78 71 62 58 61
99 98 97 96 98 100 100 92 64 83 84 82 84 83 88 65 58 48 63 87 81 92 79 73 70 75 76 58 54 68 68 68 70 74 66 63 64 61 61 67 69 77 78 90 59 59 60
96 99 99 98 99 99 98 97 90 76 82 82 79 85 87 70 77 53 86 78 80 74 83 81 80 73 72 64 59 52 65 66 68 70 65 62 56 58 60 80 85 87 95 83 73 54 61
86 92 91 99 97 97 100 99 100 78 81 86 86 84 84 83 81 62 84 80 88 83 90 99 91 94 77 62 57 56 61 67 63 60 59 60 63 77 85 89 90 76 86 80 71 67 65
89 88 97 95 100 96 98 99 100 96 83 77 86 84 93 88 83 69 82 89 87 87 99 92 86 78 60 66 67 63 64 70 70 68 79 63 87 79 81 74 78 83 79 75 67 54 60
84 81 92 100 99 98 94 95 100 100 85 87 87 87 92 96 84 80 82 82 79 83 93 83 83 86 70 74 75 68 66 72 72 85 76 80 90 62 64 68 78 78 84 88 70 56 56
78 76 82 98 100 100 95 93 88 97 93 90 85 86 91 95 86 84 75 87 81 80 90 85 78 96 94 80 79 74 71 71 73 74 67 81 64 56 67 77 83 83 86 76 75 66 60
84 80 75 99 100 100 99 99 83 93 100 89 94 84 94 97 98 78 91 96 82 82 95 83 90 85 87 86 86 76 68 66 76 80 75 74 65 67 67 77 76 89 67 70 73 78 88
88 86 86 100 98 98 96 97 99 61 92 97 97 97 97 94 74 75 74 81 79 85 67 66 89 90 94 83 80 81 73 69 87 84 81 87 79 81 78 69 65 78 59 64 68 79 84
84 89 92 94 96 99 100 90 94 83 87 99 100 100 100 100 64 61 71 76 96 86 77 90 90 92 92 90 79 78 81 79 93 85 74 73 62 64 63 54 54 63 69 69 72 83 96
88 78 88 99 99 100 87 91 94 97 99 94 100 100 99 83 59 70 87 100 92 91 55 92 88 90 82 84 83 80 87 96 99 99 98 100 96 72 70 75 65 63 74 92 100 98 82
88 89 91 96 99 97 96 99 95 93 98 82 97 99 100 74 68 80 98 88 97 64 80 73 76 85 88 74 84 73 92 95 87 98 100 95 96 83 72 70 74 73 70 86 91 99 72
88 84 85 84 92 93 98 100 96 99 97 89 92 100 99 83 85 82 81 97 81 69 76 78 78 94 95 82 78 84 93 88 73 91 96 97 88 66 63 63 59 79 87 59 76 79 88
91 85 84 86 87 96 98 98 99 97 100 91 97 100 99 78 90 90 90 86 80 70 81 78 92 88 86 84 88 95 91 75 80 77 69 76 97 70 65 66 64 68 62 89 82 99 90
88 90 87 82 88 94 95 99 99 99 99 95 100 99 99 90 100 98 98 89 76 82 77 88 93 98 88 80 84 86 84 70 71 66 73 74 91 95 93 85 77 84 78 71 63 78 98
90 89 90 81 90 92 98 100 98 97 99 95 100 100 100 98 98 96 100 80 66 72 77 78 78 94 87 77 94 86 82 56 60 56 80 67 98 96 81 63 73 63 67 62 74 69 71
89 90 88 81 89 80 95 100 99 97 90 99 99 98 100 97 98 97 85 74 72 77 77 83 91 86 75 74 79 74 63 45 53 57 76 93 100 96 91 90 72 95 67 69 77 66 81
92 89 90 83 90 82 92 98 98 94 100 100 90 99 98 100 97 93 87 84 85 81 72 83 86 83 83 84 63 60 63 48 49 57 79 90 100 98 85 98 80 97 78 65 75 84 72
88 91 90 83 91 92 97 96 96 97 100 91 94 94 88 98 98 85 79 80 84 89 88 89 94 92 83 78 64 72 54 49 59 73 87 94 100 100 95 86 95 92 78 86 96 71 77
85 93 90 83 90 96 96 95 98 99 98 94 96 96 79 81 84 91 85 91 85 88 90 93 96 79 83 90 59 52 50 56 73 81 88 94 99 100 96 92 93 79 78 70 78 84 93
89 90 92 83 84 97 94 93 100 99 99 98 92 88 70 84 81 92 94 84 82 81 84 81 85 84 93 79 62 59 54 48 58 79 87 97 100 100 100 84 92 96 82 84 95 89 89
92 92 92 89 84 93 95 93 98 98 100 98 100 80 82 95 86 85 87 87 86 82 81 84 88 91 71 70 68 62 61 65 54 62 60 85 89 83 99 96 78 46 62 75 86 82 80
93 92 93 89 86 91 97 94 99 100 98 100 100 80 78 93 78 78 79 81 78 80 83 79 91 80 77 78 87 86 89 84 75 71 72 73 76 92 91 90 62 45 44 62 74 62 48
92 93 90 87 88 90 98 96 99 99 98 100 99 79 77 91 89 74 79 82 86 86 92 89 90 91 86 92 94 92 99 83 89 82 78 81 75 86 95 86 75 48 41 39 39 61 44
92 92 92 87 88 90 100 96 99 99 99 100 99 97 83 89 83 79 82 84 82 92 94 94 96 100 96 90 87 97 93 80 95 79 92 93 91 92 92 94 80 56 42 40 54 52 46
93 92 92 89 89 88 100 98 98 99 100 100 100 100 98 89 83 79 78 82 91 86 94 90 100 99 98 97 94 94 85 93 91 81 88 88 95 87 87 93 86 49 39 37 45 52 58
90 84 92 90 86 87 93 99 96 97 100 100 100 99 99 96 94 87 82 79 80 77 82 97 97 92 88 91 93 84 87 94 88 94 75 87 76 87 87 81 61 52 48 51 45 54 60

GFSGBSN_850_rhum_015.txt.gz
RH
96 98 98 98 98 100 100 96 70 70 82 88 82 84 90 78 66 85 67 63 66 61 60 57 48 48 54 94 88 65 59 61 74 91 97 99 93 80 80 74 71 81 74 65 59 63 65
98 100 94 98 100 99 98 100 99 69 77 84 80 82 86 84 79 67 90 65 76 71 63 64 56 70 75 84 40 67 70 67 68 89 92 94 96 84 83 77 72 66 65 64 59 61 62
92 91 96 99 99 98 100 100 100 96 73 83 82 84 83 88 83 65 90 77 89 80 72 60 66 74 91 61 56 48 73 73 72 66 63 71 77 88 87 83 71 69 80 72 68 60 65
94 92 94 99 91 98 93 98 100 100 98 78 80 79 79 82 85 66 60 74 88 98 86 72 66 71 67 55 58 68 61 71 71 74 71 65 78 74 67 64 69 77 80 93 60 62 61
88 89 88 94 100 99 99 99 98 99 100 89 85 79 77 86 88 67 62 75 86 88 90 82 75 72 70 62 57 59 64 70 70 71 74 71 64 61 60 79 83 86 91 90 73 58 62
89 84 81 84 95 98 100 98 98 98 99 100 85 86 87 79 92 71 61 92 87 86 85 97 91 87 73 61 58 56 56 67 66 65 64 62 65 74 78 84 88 82 98 85 81 62 63
80 78 84 76 78 99 99 100 99 98 97 100 92 90 92 89 82 78 71 100 92 88 99 92 80 81 62 67 66 67 62 67 69 66 78 65 88 93 75 74 78 88 90 92 73 57 70
86 86 79 92 81 96 100 100 100 99 87 96 100 92 97 87 97 90 74 95 80 81 92 87 93 88 72 75 75 70 68 72 76 90 80 83 95 75 63 71 76 79 91 87 77 63 65
85 85 90 86 88 94 99 100 100 100 95 82 97 98 96 93 99 100 86 82 83 83 84 77 85 98 95 78 80 75 71 72 79 92 90 88 67 60 67 74 82 85 92 82 80 62 60
84 88 87 86 88 95 92 99 99 95 84 82 88 100 100 100 100 98 98 82 88 81 93 76 95 88 89 87 81 75 71 67 73 87 80 78 60 64 70 78 78 83 72 75 77 82 93
91 87 92 85 90 96 99 99 98 94 92 100 89 100 99 99 96 99 85 76 92 90 78 69 91 90 93 82 77 80 75 70 76 84 83 87 89 77 82 76 66 72 62 70 77 90 91
91 91 90 86 90 95 95 96 92 92 79 82 88 100 100 100 93 77 80 71 90 84 80 92 85 88 88 86 80 78 80 76 89 85 78 73 67 74 75 65 61 63 76 80 77 85 94
94 88 90 84 90 88 92 94 97 97 87 77 86 94 100 95 86 69 70 91 94 90 62 89 82 89 85 84 82 83 91 93 97 99 98 99 96 80 74 74 66 63 85 97 98 97 84
92 88 89 88 87 91 93 96 99 97 96 98 79 86 99 96 92 71 78 86 91 64 85 69 76 93 93 83 80 84 87 87 78 97 100 97 98 96 87 77 78 78 76 90 91 94 84
90 92 93 89 84 88 89 89 99 99 99 98 88 98 98 100 86 78 80 97 81 66 78 79 77 87 89 73 73 88 78 74 74 75 91 98 93 79 78 65 67 100 98 69 75 66 96
84 95 90 89 91 87 92 99 98 99 99 100 99 98 100 100 73 90 85 83 74 70 79 69 87 74 80 75 86 91 85 75 77 67 67 77 95 75 73 69 69 72 64 94 98 96 90
94 83 92 91 90 88 92 99 96 98 100 99 97 97 99 94 86 94 96 86 75 80 75 83 81 83 80 88 86 79 75 74 75 76 72 76 86 85 84 88 77 86 84 74 72 84 91
96 84 91 92 89 88 92 99 96 100 98 96 88 100 100 100 97 97 95 83 65 88 79 82 79 68 80 82 90 91 94 72 69 74 91 74 90 97 76 66 56 63 69 73 94 84 68
94 86 80 90 87 88 92 97 94 98 100 100 96 95 100 99 98 98 91 79 75 78 77 73 81 73 74 81 87 87 74 53 65 66 81 78 99 96 97 88 86 100 86 68 66 80 80
82 88 79 90 88 87 92 96 96 92 100 100 96 100 99 99 94 86 85 87 84 71 71 69 84 74 85 88 74 71 73 51 54 58 75 85 100 98 89 95 96 96 83 76 67 79 71
83 91 79 91 88 83 94 91 89 99 100 99 95 98 97 98 98 78 76 76 82 90 83 79 86 94 92 83 88 82 65 58 59 56 77 92 99 100 95 92 97 99 76 77 77 64 70
81 91 82 87 90 82 91 97 95 100 100 96 96 96 86 81 88 80 80 85 83 81 90 96 97 87 86 95 72 64 56 58 70 84 83 95 99 100 95 81 94 100 95 77 69 65 64
89 89 82 90 89 86 92 91 96 98 98 100 99 97 77 83 82 90 91 87 80 77 80 77 82 93 90 81 71 73 71 64 61 80 96 100 100 100 99 96 96 100 90 84 69 64 70
89 87 83 87 88 90 90 99 98 99 100 100 100 96 93 91 79 77 82 75 82 81 84 83 84 89 73 77 78 78 78 73 64 72 73 97 100 100 100 100 98 78 82 64 70 77 78
88 91 88 82 90 89 91 100 98 98 100 100 100 100 93 90 75 77 78 83 84 86 84 82 83 83 75 81 87 86 86 79 80 77 79 74 79 97 99 94 68 74 94 91 95 90 81
91 91 82 85 91 90 87 100 97 96 100 99 96 88 99 89 86 73 77 83 93 92 91 86 88 85 93 94 89 95 92 75 88 84 80 87 84 87 93 98 78 50 64 65 75 80 69
97 90 92 79 92 90 87 99 98 95 99 100 92 100 87 80 81 76 83 87 78 88 91 90 89 98 97 93 96 97 93 79 91 81 72 90 89 93 76 92 81 57 46 48 81 57 52
97 94 91 84 88 90 90 94 99 94 100 99 97 91 98 84 83 79 76 80 90 84 92 90 97 99 99 99 94 92 83 89 88 78 89 88 92 91 80 94 77 53 42 46 48 59 57
96 82 91 92 76 91 92 92 99 90 98 99 98 100 100 90 89 82 79 77 76 73 76 91 88 95 89 94 92 85 93 95 90 90 81 88 82 87 78 79 62 54 54 53 52 57 62

GFSGBSN_850_rhum_018.txt.gz
RH
93 94 94 94 96 98 92 94 100 99 98 64 76 79 82 83 88 79 75 71 69 65 62 63 59 54 68 100 90 68 64 68 75 88 98 95 89 74 77 77 72 81 78 68 64 62 62
93 93 94 92 93 98 98 99 94 98 99 99 79 78 81 90 82 82 71 88 78 76 68 70 69 82 77 93 49 67 67 71 83 97 100 100 97 86 82 80 73 68 70 70 65 60 62
93 92 92 91 89 99 98 99 98 99 99 98 98 87 81 87 81 83 79 88 80 85 77 65 73 81 94 60 54 55 75 74 81 98 92 89 96 82 87 88 75 73 82 77 72 64 65
89 92 88 91 85 83 96 100 99 99 99 100 100 86 86 84 89 84 76 76 79 86 92 76 73 78 70 57 56 65 64 75 73 73 69 66 79 85 84 66 66 75 79 89 66 67 62
88 87 86 87 86 89 87 99 98 99 100 99 100 97 89 89 92 80 77 65 78 87 97 87 82 79 72 63 60 55 66 65 71 71 72 74 70 65 65 78 84 76 89 84 72 55 64
83 83 81 88 90 86 85 96 95 99 99 93 99 99 97 89 98 94 77 70 82 84 83 96 92 92 74 62 58 58 64 70 70 72 73 70 64 78 76 82 92 80 88 82 79 62 68
90 81 88 80 84 83 84 90 89 95 98 99 95 98 96 89 99 100 82 95 100 96 93 85 87 81 66 69 65 61 60 64 67 65 81 68 89 94 81 78 74 82 92 94 79 67 74
86 93 88 93 90 88 83 96 93 96 98 99 97 94 100 98 99 100 79 80 80 73 89 87 94 88 78 77 75 71 68 69 75 86 78 81 95 76 68 71 73 74 81 81 70 66 71
93 86 94 94 88 90 88 97 99 96 98 98 90 87 92 91 100 100 87 70 75 73 78 74 83 99 79 80 82 75 73 73 81 94 91 85 67 66 72 78 84 86 89 84 84 66 63
92 90 91 88 87 85 90 95 98 98 96 97 75 84 84 92 100 99 98 95 80 70 90 72 94 90 92 90 80 73 69 69 79 88 77 90 70 72 77 82 80 91 67 74 83 90 91
91 94 91 90 90 89 86 93 100 97 89 98 69 64 72 99 100 100 79 92 79 69 94 74 94 95 93 76 74 86 77 69 78 86 82 82 89 88 88 74 72 73 65 78 84 94 94
96 95 94 92 88 92 92 94 91 89 99 98 72 73 74 96 99 93 85 81 76 82 90 88 86 90 94 82 76 81 83 75 82 76 75 72 70 71 74 65 66 63 75 78 82 85 96
95 92 93 90 88 94 93 91 95 96 100 90 89 88 77 97 100 98 86 84 93 90 67 88 82 82 77 83 78 80 92 96 95 97 99 94 94 79 77 84 73 74 100 97 98 97 84
100 95 94 80 87 94 88 93 96 98 99 99 90 96 97 99 100 94 78 76 92 67 83 69 76 77 80 76 77 82 87 92 84 92 100 97 90 87 81 80 81 83 80 93 94 94 86
89 95 91 93 86 92 87 88 98 99 97 97 99 98 97 95 100 86 71 88 80 67 75 73 79 81 90 82 78 74 86 80 67 84 98 99 91 82 90 74 65 98 97 70 84 80 96
98 92 87 93 94 92 86 90 100 100 98 98 100 91 73 90 100 89 74 83 67 63 74 72 84 75 86 78 84 87 79 70 69 67 70 79 93 74 83 80 74 84 79 98 98 96 92
99 96 86 89 80 90 90 89 99 98 90 100 99 92 88 83 100 97 96 81 69 79 66 75 81 84 68 76 79 74 81 70 77 77 71 75 89 83 87 92 83 94 96 98 89 95 91
98 93 83 86 79 90 89 93 93 96 95 97 96 93 87 98 100 94 92 75 69 90 79 80 74 67 73 80 91 87 88 77 68 77 87 72 97 96 80 66 60 61 71 73 81 84 87
92 94 90 88 78 90 83 97 89 99 99 98 96 91 96 98 100 100 84 80 74 87 85 80 84 74 68 82 87 85 82 62 68 78 85 74 98 97 92 85 70 99 82 67 66 80 79
78 84 91 86 76 82 87 93 96 99 98 100 99 99 100 100 96 83 77 77 85 72 74 69 78 72 83 87 75 78 82 61 69 71 69 68 98 94 92 84 97 100 98 100 97 95 73
76 78 89 81 83 89 90 92 98 100 98 99 99 99 98 100 99 74 70 80 82 96 76 78 85 82 92 100 88 94 78 67 65 62 78 86 99 98 96 93 98 99 96 97 98 83 81
76 76 81 77 84 91 89 88 99 97 100 100 100 99 92 93 90 74 80 90 81 79 83 84 88 77 88 98 79 70 78 68 65 76 82 87 97 100 96 83 98 98 98 94 91 78 74
81 76 85 88 78 94 90 89 96 99 99 98 98 98 84 87 87 83 80 82 82 75 79 72 81 89 95 87 82 77 71 71 74 75 84 98 100 100 87 96 100 99 88 92 82 76 68
82 87 75 84 88 92 88 88 99 98 100 100 100 100 91 98 86 78 76 71 86 76 78 82 80 91 78 80 77 79 80 79 79 78 68 95 100 100 98 100 98 83 80 74 78 70 62
87 95 86 91 90 94 89 90 95 98 99 99 100 100 98 91 75 71 82 87 77 81 89 85 79 76 78 83 89 84 91 86 84 86 79 76 85 100 100 97 82 69 91 83 82 80 63
98 91 94 88 91 84 90 89 98 98 98 99 100 100 100 91 83 64 69 84 95 96 96 90 84 80 84 94 94 96 82 79 86 83 85 89 89 97 99 98 89 57 81 80 77 95 70
97 94 94 90 92 85 91 92 94 99 97 100 99 100 100 94 78 76 79 86 78 85 88 90 90 96 98 96 100 100 97 82 91 91 93 96 96 94 88 84 84 61 63 74 87 59 59
84 86 86 90 85 90 92 93 89 96 95 99 100 100 100 96 80 77 74 76 84 82 92 88 93 97 99 99 97 95 97 92 92 79 84 84 85 97 84 94 75 55 56 61 54 54 61
83 87 79 86 81 81 91 91 92 92 93 98 98 100 98 96 89 80 78 76 75 74 83 86 85 85 89 97 90 87 95 94 90 90 85 94 82 83 80 77 59 57 57 54 56 60 60

GFSGBSN_850_rhum_021.txt.gz
RH
93 94 94 93 92 91 94 100 100 100 99 98 100 85 84 84 92 82 82 74 62 64 64 63 59 49 73 95 84 76 67 70 77 96 93 90 81 69 72 77 75 81 76 71 67 65 64
92 93 92 91 92 91 89 90 100 100 100 98 99 98 93 86 90 97 79 78 79 81 71 69 65 74 73 94 62 72 73 68 78 94 97 90 88 77 77 78 71 68 73 72 67 65 61
92 90 91 90 90 92 92 93 98 100 100 98 98 98 100 90 86 98 83 78 70 79 82 72 72 76 85 62 53 54 72 76 93 91 91 92 88 77 83 88 80 76 81 70 70 67 65
89 90 87 89 87 88 82 80 95 94 95 98 99 100 100 100 94 98 96 80 66 80 91 80 69 77 67 57 56 55 71 86 99 97 76 81 84 90 88 71 67 77 76 76 62 63 64
85 89 86 89 92 92 89 87 79 95 88 93 93 99 99 99 98 96 99 85 61 84 90 96 87 77 70 65 61 56 66 76 78 75 75 72 80 72 70 78 80 82 86 90 66 58 60
94 91 85 89 89 93 91 88 84 93 95 94 88 82 98 97 100 98 100 91 72 89 94 100 98 93 77 67 62 60 69 68 70 74 76 73 68 76 74 79 88 84 90 79 71 60 67
98 85 89 92 93 85 84 83 94 99 95 87 84 93 85 84 99 100 100 99 97 98 94 85 90 82 72 72 67 68 66 70 69 72 86 71 85 88 76 76 68 76 83 86 76 63 69
91 93 92 90 95 91 90 82 93 90 89 98 86 91 84 64 99 100 100 91 77 60 92 71 95 89 82 77 74 76 68 70 70 85 78 82 92 66 70 60 71 75 83 78 64 61 65
95 94 94 92 94 92 91 89 88 83 99 100 91 90 99 63 84 100 100 82 74 61 68 74 78 93 83 77 79 77 72 74 81 90 87 87 69 64 72 78 78 77 86 77 72 67 62
99 96 98 97 94 94 91 87 91 87 93 95 86 94 91 74 100 96 100 89 74 70 85 69 94 89 90 81 76 70 70 67 80 85 72 73 64 74 83 83 79 87 71 72 76 80 80
99 99 99 96 95 94 95 88 97 90 93 98 98 99 97 85 86 99 97 88 71 53 76 74 95 93 92 79 67 85 76 69 85 84 83 78 85 92 85 73 74 77 63 70 74 88 84
100 99 99 96 96 94 96 89 90 91 96 98 100 91 81 90 97 90 99 89 67 82 95 94 86 92 92 80 78 87 82 75 74 74 76 75 71 71 78 71 68 71 80 76 81 85 96
100 100 97 90 96 94 94 92 88 96 95 100 99 97 88 93 77 96 98 96 92 88 70 94 86 88 78 82 79 81 92 95 91 99 98 88 84 78 73 78 74 71 100 95 96 97 82
100 99 98 95 96 91 91 90 88 95 92 100 96 91 96 95 76 100 100 98 90 71 80 68 75 78 83 74 74 82 89 93 82 88 98 94 86 85 77 72 81 86 84 87 89 85 71
98 99 98 92 95 76 93 92 84 93 96 100 98 100 92 93 90 100 99 98 78 69 73 79 76 84 85 75 80 74 82 81 72 88 96 93 84 78 81 78 67 97 97 68 84 71 92
97 99 95 96 90 74 91 90 89 96 97 97 100 100 88 82 91 100 98 91 66 71 69 74 86 77 85 80 93 82 80 67 72 72 65 81 97 74 80 85 78 89 73 96 97 96 86
94 96 92 91 86 78 88 86 96 99 98 92 100 99 93 87 100 100 100 82 74 76 63 72 80 83 76 84 82 82 80 68 71 73 69 80 84 82 93 94 74 92 98 99 92 90 86
88 96 94 89 82 84 78 85 96 98 99 97 100 100 95 94 99 100 96 74 80 88 78 78 71 69 75 78 82 73 84 73 68 77 88 74 91 98 85 59 64 66 70 73 95 78 85
95 98 90 89 79 78 92 90 80 94 99 100 100 98 99 86 99 100 83 84 83 88 82 77 82 69 70 80 90 84 80 64 71 77 85 76 98 98 83 84 69 94 80 78 92 88 94
88 96 90 77 76 77 92 88 89 96 99 100 100 100 100 98 99 92 81 87 91 74 76 72 76 73 81 84 71 82 84 65 69 72 70 65 92 89 72 66 93 99 96 95 98 96 75
92 91 90 83 78 78 92 87 95 95 99 100 100 99 98 100 99 77 65 71 92 90 80 74 85 79 80 95 87 87 81 71 76 72 74 80 100 96 89 78 81 98 96 99 98 84 90
96 96 93 80 86 90 93 89 94 82 100 99 100 99 98 95 88 70 76 76 79 91 78 89 87 79 82 94 92 84 80 78 73 77 86 82 97 100 96 85 97 98 95 96 96 88 80
96 94 94 86 89 91 93 85 91 89 99 99 98 99 100 86 88 85 87 88 79 75 81 73 75 76 85 76 78 83 76 68 73 76 84 96 100 100 91 76 95 99 98 96 95 87 79
100 99 89 93 87 94 95 88 93 91 99 99 100 100 100 95 82 78 76 75 81 77 82 80 79 84 81 78 86 83 84 82 85 83 72 85 100 100 97 98 98 89 82 81 90 74 69
93 87 91 95 87 91 88 89 92 98 99 100 100 99 100 94 82 75 77 70 74 71 85 80 82 80 81 86 88 95 92 94 89 94 92 79 86 100 100 98 84 75 81 86 91 90 64
94 92 93 89 86 83 87 74 82 79 91 95 100 99 100 93 91 69 82 83 92 90 93 90 85 83 84 89 95 100 88 86 82 80 91 86 82 99 99 99 97 63 67 78 73 79 68
92 93 80 79 72 81 82 71 75 71 83 98 100 100 100 100 82 70 69 79 78 87 93 96 97 98 92 95 100 100 93 82 94 91 95 98 98 98 97 99 79 62 65 76 72 60 64
74 92 84 87 72 78 77 84 39 67 83 97 100 100 100 100 87 76 67 77 80 79 92 97 95 95 99 100 100 97 98 93 95 83 83 85 90 97 84 89 85 56 75 64 53 57 62
29 90 90 87 87 70 90 91 37 71 86 90 98 100 100 100 94 83 79 75 73 71 81 93 92 88 86 98 96 94 97 92 91 90 85 93 78 82 80 76 58 57 56 55 61 64 64

GFSGBSN_850_rhum_024.txt.gz
RH
93 93 92 91 92 91 91 89 97 90 100 99 100 80 97 100 86 83 98 82 81 54 58 62 59 48 95 95 78 77 68 76 77 99 97 86 70 60 54 51 57 53 41 51 50 58 53
92 91 92 88 91 92 93 90 84 84 98 100 99 99 94 100 98 89 93 94 79 64 65 68 65 66 78 76 73 74 73 71 89 99 98 87 79 66 57 55 54 51 56 53 54 51 50
90 88 90 90 91 90 89 90 91 88 81 92 86 96 99 100 99 98 92 100 80 67 68 73 71 72 96 62 52 48 56 73 83 98 96 96 82 79 71 64 68 61 61 47 45 46 45
96 95 93 93 92 92 88 91 88 89 87 92 94 95 81 93 98 100 93 100 83 70 77 77 68 75 75 59 56 56 70 85 94 89 97 95 88 81 72 65 56 56 56 56 42 48 47
93 98 92 92 92 92 85 92 89 84 91 92 93 82 83 82 96 99 100 100 88 73 84 91 83 81 70 65 60 56 68 86 84 76 80 91 86 72 70 59 59 55 52 56 48 40 41
100 92 92 96 94 93 94 90 86 89 87 94 79 84 83 84 78 96 98 100 97 80 91 100 97 88 81 71 66 62 70 82 78 73 79 75 63 56 53 59 59 48 61 50 48 40 46
99 95 97 94 95 92 88 94 93 91 88 84 86 90 87 94 95 79 99 100 100 99 100 88 87 76 78 76 69 72 74 73 73 72 69 71 78 71 54 50 46 53 56 56 47 44 50
94 95 98 98 95 98 94 95 93 92 89 78 91 98 94 94 98 76 97 100 85 66 87 95 87 87 85 81 74 81 74 63 65 70 63 73 84 53 49 50 57 59 64 62 48 42 50
96 96 98 95 88 96 93 94 94 92 94 96 95 97 83 89 97 94 92 100 81 52 59 84 94 88 85 81 68 75 76 69 57 67 66 64 58 51 57 62 64 58 64 62 63 52 47
96 96 98 88 96 96 84 94 94 92 90 93 97 86 99 98 100 74 95 92 91 59 91 76 84 78 86 79 66 76 71 64 67 65 64 64 52 61 62 66 59 65 45 51 58 64 69
91 93 96 92 94 84 79 89 96 94 89 89 91 99 100 91 94 98 79 78 100 87 94 66 87 89 79 65 69 83 75 68 66 64 63 66 67 72 74 65 55 62 51 54 56 64 67
97 96 90 89 89 79 89 92 92 92 87 89 94 96 93 88 89 77 86 98 100 98 81 89 87 92 87 72 67 85 78 74 63 59 60 53 59 60 58 54 54 58 61 63 61 75 91
91 93 87 83 84 83 94 95 93 92 95 89 96 86 94 94 89 70 99 100 98 92 66 93 83 84 73 84 77 70 80 88 77 96 92 70 64 58 58 68 62 66 87 75 84 93 63
94 83 83 87 87 95 89 91 90 92 98 93 98 78 78 84 85 91 99 99 95 66 67 62 67 75 75 67 68 71 83 89 65 70 72 75 73 65 70 70 58 72 69 68 64 50 40
87 81 86 93 94 89 94 93 89 98 96 94 93 97 91 90 92 95 98 98 79 56 63 68 70 80 85 66 68 74 76 72 66 69 83 81 71 56 60 55 59 79 94 58 79 58 70
84 87 92 93 92 89 93 93 91 94 92 98 99 99 94 90 88 99 94 100 58 60 57 57 74 62 79 76 73 67 68 53 57 53 54 69 82 56 61 66 65 70 57 89 93 81 66
82 87 92 93 85 74 82 91 90 97 94 96 100 100 87 98 94 99 100 92 77 60 56 58 67 70 64 72 66 67 60 54 52 58 58 60 67 69 84 82 62 86 95 98 72 76 64
83 80 90 92 84 72 78 90 88 89 93 98 100 100 100 100 97 99 100 70 68 67 70 64 54 56 60 64 68 61 62 56 53 59 73 53 69 80 74 43 44 43 59 66 94 83 86
92 82 95 91 85 85 88 91 92 97 98 100 99 100 98 99 99 100 94 81 77 70 69 63 64 57 56 62 71 58 62 55 60 58 58 57 88 87 68 69 55 73 60 56 83 85 93
98 86 95 92 85 84 93 90 97 93 100 99 98 100 99 97 96 77 78 87 85 74 66 66 64 61 61 64 59 70 67 59 61 57 61 57 75 81 68 63 70 100 79 76 98 95 69
99 93 93 89 88 88 95 76 87 88 99 98 100 99 99 100 86 62 66 70 73 73 72 66 72 66 65 72 74 76 65 60 65 65 62 66 100 90 81 70 75 88 86 83 99 86 88
93 99 91 89 91 88 92 81 88 69 96 97 98 100 95 82 76 60 61 64 68 76 68 75 66 66 67 76 70 72 69 66 59 62 65 69 90 97 94 69 75 99 94 95 96 96 94
90 93 87 91 93 90 91 75 72 71 98 97 99 100 100 80 75 63 62 58 64 65 70 68 64 64 68 68 66 73 75 62 55 65 70 78 99 100 95 70 82 94 98 90 92 92 90
94 91 91 92 86 72 88 81 72 69 94 99 99 99 99 85 72 63 62 59 61 62 76 76 71 69 76 74 81 83 80 81 78 66 64 79 99 98 97 94 95 87 78 84 91 79 70
92 89 93 93 84 73 73 74 91 78 95 97 100 99 99 84 65 63 65 60 69 68 69 70 79 78 80 87 85 86 72 83 72 72 71 67 77 100 99 96 68 73 73 93 94 85 54
92 89 90 93 94 76 80 76 82 75 93 97 100 99 99 97 73 67 64 62 68 67 66 73 78 79 80 87 82 99 73 66 69 76 78 82 82 96 99 97 85 60 65 70 63 58 51
75 90 87 88 94 88 62 81 69 48 91 91 100 100 100 100 82 76 67 73 77 74 88 92 98 98 89 91 85 97 72 70 71 72 90 93 96 97 96 98 66 46 55 74 63 57 54
36 88 90 68 69 85 83 86 55 41 88 87 92 100 100 99 96 78 69 74 81 76 82 96 94 90 96 89 97 97 99 67 76 66 69 72 80 90 92 88 81 50 56 58 52 58 62
41 71 93 91 39 90 91 58 44 74 95 92 94 96 100 100 99 89 77 68 66 61 76 90 90 83 76 89 94 92 92 72 73 66 68 75 56 60 61 55 47 54 54 56 65 64 65

GFSGBSN_850_rhum_030.txt.gz
RH
93 95 93 99 99 92 94 92 89 92 92 92 92 93 92 91 91 95 95 100 98 94 93 79 49 54 66 94 84 83 68 85 86 88 92 73 56 51 51 38 38 42 38 32 31 32 35
95 97 98 95 94 92 94 89 86 94 90 87 91 94 91 91 95 85 96 99 99 94 100 80 52 62 69 74 66 79 71 75 82 84 85 75 55 48 42 38 38 33 36 37 35 32 36
94 88 95 96 96 97 97 88 86 83 76 72 93 92 94 92 95 79 78 93 100 98 99 86 60 66 81 71 62 66 73 65 75 78 84 80 67 60 52 47 46 44 55 46 42 40 41
97 99 96 95 98 98 97 90 81 83 80 74 65 84 94 90 88 78 85 80 99 100 99 93 71 83 79 71 69 63 61 65 77 79 80 83 80 70 68 58 48 55 55 70 39 39 37
92 99 97 87 96 93 93 98 90 83 77 86 81 77 91 75 80 81 84 78 79 93 99 98 87 94 71 70 66 68 62 68 76 84 88 94 82 75 69 65 66 53 69 56 45 34 34
99 98 94 96 96 96 96 91 80 84 77 76 77 76 85 77 72 86 82 75 54 88 98 99 93 92 74 67 60 66 62 69 70 88 100 91 76 72 70 74 82 63 58 53 48 36 37
93 92 98 96 92 90 94 94 91 82 78 75 77 79 91 85 81 83 83 84 73 99 100 92 91 62 63 64 66 61 66 71 62 74 73 83 83 88 68 62 57 51 47 46 40 31 39
99 97 97 95 86 89 94 85 78 85 89 75 78 84 92 91 91 94 89 100 87 96 99 84 84 63 68 68 66 63 69 68 66 82 61 73 81 55 51 49 49 46 52 54 43 34 38
99 93 97 84 83 90 89 78 85 88 79 77 82 91 86 87 97 94 93 75 94 96 99 91 87 69 71 64 62 64 68 62 63 68 69 62 52 44 49 50 52 54 57 56 52 42 40
100 99 93 82 86 90 95 86 77 80 90 89 93 91 91 98 98 92 98 90 100 95 100 98 81 69 74 66 60 64 64 59 60 71 67 67 48 45 52 57 50 63 42 46 49 57 68
96 100 84 82 78 95 92 82 94 94 90 89 87 86 90 91 99 100 92 98 99 99 98 91 81 70 72 59 62 66 63 55 57 56 57 62 54 58 59 52 46 53 49 51 54 63 68
98 98 80 80 77 93 83 93 84 89 92 86 86 85 86 95 96 98 100 87 87 96 97 99 83 74 74 61 60 63 64 59 52 50 50 52 44 47 51 46 49 51 51 54 59 66 89
97 98 81 80 82 92 89 88 93 91 92 92 87 85 82 100 96 95 96 84 94 97 90 99 90 74 65 68 69 66 74 76 77 92 90 62 57 49 48 59 53 61 67 93 96 97 89
90 98 81 81 92 91 88 89 91 91 91 84 89 97 95 99 99 93 84 81 96 96 98 57 72 71 70 62 69 70 79 83 61 56 75 86 78 59 53 58 65 67 64 90 80 85 67
98 99 81 86 90 91 84 94 87 91 93 97 94 97 98 95 95 92 97 84 79 70 55 74 75 80 87 63 68 71 75 71 57 56 77 77 66 47 51 48 52 66 84 54 77 60 84
97 94 90 85 92 93 91 94 89 99 97 100 97 94 100 89 79 81 99 98 99 48 51 57 81 62 83 71 67 68 71 53 52 48 46 60 73 50 54 46 46 53 52 90 92 97 80
99 94 88 91 73 91 90 93 93 99 100 94 94 97 99 92 89 95 100 100 69 48 48 50 57 58 57 67 59 63 60 48 45 48 46 54 59 75 69 71 69 69 76 70 67 81 91
96 94 90 93 82 90 91 93 64 99 95 97 98 97 93 88 97 99 100 97 66 55 47 43 42 45 53 55 58 54 55 48 42 44 56 52 55 90 79 47 49 52 65 63 88 78 80
99 91 96 91 84 66 96 89 64 97 100 98 98 97 97 97 96 100 95 80 70 55 49 48 48 44 43 52 63 49 50 45 42 46 55 53 77 91 80 59 48 59 54 55 63 73 85
94 87 90 86 93 73 89 65 48 90 98 98 96 99 85 92 81 84 94 90 78 57 54 46 47 42 46 50 47 55 60 52 45 47 48 47 65 87 93 81 84 97 81 64 73 98 79
97 87 92 93 92 90 88 80 31 82 99 97 96 98 97 94 82 66 70 81 63 60 53 49 54 47 48 53 54 53 54 62 52 55 49 57 96 85 80 68 68 76 76 72 92 92 98
96 90 87 93 91 91 79 79 33 82 91 96 99 99 99 71 58 57 71 92 58 55 53 55 58 52 48 51 59 55 50 55 62 59 61 60 98 95 87 65 68 80 68 69 81 95 96
93 91 90 91 89 92 52 78 49 64 98 98 98 100 100 71 60 54 56 53 55 53 62 54 51 52 65 69 65 58 61 61 58 61 67 81 96 98 89 69 80 91 76 86 91 85 92
96 94 91 91 91 90 78 80 55 36 96 100 100 100 98 73 58 54 48 47 54 56 61 58 55 63 76 74 73 71 65 64 67 68 60 76 94 95 98 92 96 70 62 75 82 72 75
99 97 93 91 74 83 82 71 67 28 55 98 100 100 99 96 56 52 48 48 52 58 55 60 72 77 74 75 78 75 78 80 74 76 72 66 79 94 99 86 64 48 58 61 77 82 58
99 98 95 94 86 59 89 40 28 43 31 88 99 100 100 98 72 68 49 48 56 55 61 67 81 78 78 82 77 75 80 75 86 88 75 75 75 96 97 98 91 57 50 52 70 94 60
100 100 98 94 95 92 91 94 82 47 54 34 100 100 100 99 89 78 57 58 51 55 80 76 88 89 85 90 85 82 72 56 69 78 92 96 95 97 96 98 78 46 51 62 88 72 59
100 94 100 98 97 96 93 94 92 91 73 51 58 100 100 100 92 86 78 64 57 66 73 89 89 93 94 94 89 71 75 71 70 54 68 75 91 95 98 100 92 46 50 65 60 56 56
100 94 100 100 99 97 98 94 95 93 92 81 91 96 92 100 97 91 85 76 73 73 78 80 87 79 82 93 82 84 86 72 64 71 53 69 61 75 71 70 48 46 49 52 56 62 61

GFSGBSN_850_rhum_033.txt.gz
RH
98 96 96 93 96 98 91 96 94 91 81 80 90 87 94 94 96 90 95 86 96 98 98 99 88 61 58 95 81 80 68 79 98 85 73 78 77 65 61 55 50 52 46 40 38 35 36
96 98 98 91 95 99 98 97 86 84 83 85 84 81 91 93 93 91 91 81 82 91 100 99 94 73 66 94 51 76 70 77 84 88 79 82 70 59 51 51 49 38 41 44 42 42 41
99 98 95 96 98 97 96 96 85 85 82 87 91 77 71 94 91 87 85 85 77 92 99 96 97 80 76 61 68 79 72 65 73 81 82 71 76 58 55 51 48 47 55 54 50 46 46
98 96 90 96 93 91 87 93 92 80 80 79 80 80 73 77 80 74 78 84 81 64 94 99 98 87 85 52 62 65 70 67 76 83 80 74 83 65 64 55 50 56 58 77 55 45 44
96 98 98 92 98 86 86 83 82 82 81 80 79 76 76 74 73 75 77 76 62 54 68 99 99 88 80 67 64 65 58 65 77 76 77 88 84 76 64 69 67 61 80 75 62 42 45
98 99 96 98 84 84 88 91 92 78 88 91 75 74 76 74 86 80 82 68 48 49 58 95 94 92 86 74 68 69 56 70 78 86 94 94 88 88 86 79 93 77 76 67 64 42 41
97 94 96 91 87 88 95 93 95 94 91 79 76 74 76 85 87 92 88 78 63 91 70 98 92 78 60 67 64 64 62 68 72 90 89 88 89 94 88 77 63 58 63 60 49 39 40
96 96 98 84 86 94 94 92 93 87 79 89 93 86 92 85 89 93 99 99 79 98 94 99 79 78 63 63 64 64 71 66 74 88 75 91 92 68 59 60 65 66 62 61 51 41 43
97 97 99 83 80 94 93 94 94 89 92 90 92 90 86 84 84 94 100 99 97 86 100 97 88 81 68 65 65 63 70 66 75 81 74 81 58 62 59 57 57 56 62 61 61 51 48
96 98 97 80 81 94 92 94 93 91 90 90 93 91 85 85 92 92 91 91 96 78 98 100 95 81 67 64 68 66 68 62 64 75 68 66 48 48 55 61 55 66 51 54 57 65 77
98 99 92 86 78 92 85 91 85 88 92 93 85 78 78 88 97 99 97 90 98 78 96 98 96 75 64 69 67 70 65 56 65 65 69 78 61 58 58 57 51 61 53 56 59 68 71
99 100 97 86 81 90 93 90 85 92 88 76 82 83 87 95 97 96 100 90 78 89 94 100 89 79 83 67 64 67 68 56 51 58 58 56 46 51 58 48 53 51 54 56 63 75 98
99 89 93 80 82 92 88 92 92 91 98 96 99 99 97 95 91 89 98 75 87 96 96 100 92 75 75 75 73 71 75 75 79 93 92 64 61 51 50 62 56 62 70 95 93 92 90
92 87 89 88 81 94 88 87 92 99 98 100 90 86 92 90 96 98 78 98 88 89 100 84 73 73 84 70 76 74 79 84 69 64 89 88 86 66 55 64 74 76 68 90 87 98 84
92 92 87 90 80 94 89 96 91 98 100 89 82 97 91 98 92 90 92 92 93 99 92 91 79 80 92 70 77 75 78 75 66 62 78 89 77 56 54 49 57 73 88 61 81 73 93
97 92 91 88 91 94 90 91 94 98 99 87 89 96 99 95 91 94 98 98 100 92 70 59 96 72 91 75 80 79 76 62 58 55 53 62 83 63 56 48 50 57 59 86 94 98 92
97 87 97 86 95 87 91 95 95 99 95 87 81 90 98 97 96 97 100 100 88 74 58 55 68 69 65 71 72 71 76 58 52 57 51 50 64 78 62 69 75 71 70 66 74 90 96
85 86 96 93 92 83 87 91 82 98 91 85 85 98 90 94 94 100 100 99 89 72 59 51 49 59 61 64 70 60 72 56 45 48 61 51 72 97 80 60 58 63 75 72 94 74 92
94 90 86 92 80 79 46 52 55 92 98 88 96 93 86 98 99 98 88 92 80 60 54 51 50 47 52 59 63 55 59 48 46 50 57 56 73 92 77 69 60 74 68 65 71 80 86
92 86 87 87 88 86 23 48 31 91 85 88 92 93 81 96 82 89 92 87 74 55 58 50 50 48 50 58 52 60 67 53 47 55 49 48 77 81 87 79 81 88 78 69 78 98 80
98 79 83 90 96 95 54 52 22 82 84 87 90 99 98 97 83 79 78 86 73 66 54 51 55 49 53 60 53 63 67 62 54 56 53 62 75 90 80 76 77 79 78 75 85 78 97
97 92 84 89 90 92 89 66 26 88 92 88 97 97 96 98 67 74 80 83 72 72 68 65 65 62 60 64 62 59 63 67 70 61 60 66 86 96 90 78 82 89 76 74 75 75 77
92 98 89 91 91 75 62 78 38 59 99 98 98 97 99 84 75 70 70 65 62 63 60 60 56 72 77 82 72 65 55 60 62 72 73 77 95 99 98 72 85 88 76 73 78 79 83
78 96 97 93 94 76 68 55 45 30 85 100 100 99 98 92 69 72 52 54 70 64 68 70 67 74 78 71 72 64 65 65 65 66 62 88 92 95 98 92 92 66 64 65 77 76 71
77 90 96 91 95 90 72 90 88 46 36 92 100 98 99 96 83 58 51 64 62 58 65 76 76 78 75 75 85 88 87 82 83 78 72 68 86 94 99 96 68 54 65 61 85 75 68
82 94 86 98 99 98 73 90 92 90 36 46 99 98 98 99 86 91 67 51 63 70 66 72 75 71 72 88 85 80 85 75 85 89 79 73 78 98 99 100 89 59 52 54 71 94 59
81 92 92 98 98 100 100 94 100 95 76 46 100 99 100 99 89 92 83 69 51 58 83 84 85 85 85 93 90 92 80 67 90 93 93 96 100 97 98 98 84 58 53 65 85 64 59
76 91 94 97 98 94 96 96 99 99 95 78 68 99 99 99 88 90 96 87 61 62 80 89 84 89 90 93 90 85 80 77 76 75 84 86 95 97 100 100 91 45 65 71 58 58 62
71 94 97 79 98 96 100 92 92 98 87 98 80 85 97 98 90 96 84 85 79 78 77 83 81 84 84 93 92 88 90 86 83 79 60 78 72 79 80 75 51 50 52 55 58 62 64

GFSGBSN_850_rhum_036.txt.gz
RH
97 99 98 100 94 95 95 98 98 86 85 88 81 88 93 84 81 88 93 93 91 80 89 98 97 100 70 83 78 81 79 70 98 83 87 76 81 74 70 63 58 59 51 45 41 40 43
99 98 98 94 96 99 92 92 83 90 92 92 78 83 84 72 80 76 92 92 98 81 88 95 99 100 77 89 35 74 73 74 93 88 85 77 77 68 57 56 62 48 47 45 43 44 45
99 99 97 94 98 93 82 80 79 80 92 93 78 81 80 71 78 75 70 92 78 82 72 84 96 100 97 59 60 69 73 76 77 83 81 66 71 66 58 58 49 48 56 53 50 47 48
98 97 98 98 96 84 86 87 93 94 96 95 94 77 76 72 76 78 74 79 73 73 70 69 92 100 94 56 72 78 72 73 79 82 80 67 76 74 65 56 54 57 61 68 50 45 42
98 98 99 99 83 86 92 90 89 92 93 92 89 80 76 75 77 77 80 69 70 64 58 57 80 100 85 58 64 79 75 71 76 83 86 82 85 74 64 70 70 63 76 75 66 50 49
98 100 96 97 88 79 91 92 91 91 83 76 75 79 75 76 81 79 81 83 66 60 51 69 75 96 91 75 58 66 65 67 80 84 94 94 92 91 85 80 91 79 79 71 69 49 47
90 97 94 95 87 79 93 83 93 92 90 76 89 92 88 92 82 86 94 98 80 90 80 77 95 90 71 62 67 63 60 67 86 85 95 90 96 96 81 70 63 61 63 67 56 42 45
98 98 99 92 86 80 89 84 92 85 82 86 92 90 86 82 83 82 99 98 97 93 91 65 91 95 74 69 72 68 64 71 80 97 89 87 92 76 76 83 77 72 63 66 55 45 45
100 97 99 96 88 78 84 88 92 79 90 92 90 81 83 83 81 93 95 95 95 90 97 85 95 98 69 62 70 75 67 70 80 88 85 83 71 66 74 74 75 59 64 63 63 56 49
99 98 100 94 94 81 91 92 91 92 91 89 81 73 70 74 90 98 88 97 88 90 98 98 96 91 68 62 70 65 70 65 70 86 70 75 48 72 77 79 59 69 53 56 61 64 80
92 95 98 97 90 91 94 89 90 91 97 98 87 82 82 97 100 97 87 83 87 94 96 98 96 77 71 70 69 77 66 58 72 71 66 73 65 61 68 62 54 65 53 56 58 70 75
91 99 98 93 91 96 94 89 98 98 96 98 95 90 92 97 88 93 89 92 93 93 96 100 92 80 80 68 70 79 67 54 57 64 58 58 50 53 55 56 54 54 56 67 75 79 94
98 97 93 96 94 98 90 98 98 97 98 90 86 79 84 93 92 87 99 87 83 93 86 100 97 74 75 80 80 76 75 68 89 98 100 66 63 52 52 68 60 59 69 88 89 94 87
99 99 95 90 93 97 88 100 99 95 95 96 95 84 96 90 95 99 77 95 87 81 92 93 78 76 90 72 78 82 76 82 67 74 88 89 91 63 54 63 73 68 66 83 72 95 88
99 94 93 89 91 97 91 95 99 98 89 88 83 77 84 97 86 86 90 95 95 98 99 84 70 92 88 79 84 80 77 75 68 62 79 87 77 58 56 54 60 75 86 63 82 75 94
98 96 90 94 92 90 92 96 91 98 86 72 74 77 92 99 97 94 98 98 99 98 76 67 96 78 96 84 88 80 74 60 60 59 54 66 91 67 56 51 55 63 64 89 93 99 84
96 94 91 93 94 82 87 96 56 95 86 77 65 76 90 89 92 98 100 100 96 80 61 62 85 73 75 75 72 68 68 61 55 56 50 53 72 76 61 67 75 74 74 72 80 87 94
95 83 83 87 62 84 88 89 45 84 85 73 78 94 82 94 98 98 100 97 94 84 71 62 58 64 64 67 70 66 75 66 51 54 64 51 79 96 85 60 58 65 73 73 91 72 95
96 74 50 71 82 86 96 66 39 76 81 85 83 82 82 90 99 97 85 86 80 73 59 51 57 52 55 67 71 58 62 50 51 55 63 56 80 93 78 70 68 77 73 70 74 83 94
96 77 41 19 18 21 42 44 40 76 76 84 86 93 76 89 92 89 94 91 78 54 61 52 57 52 54 57 51 71 64 59 51 53 50 52 78 78 88 75 79 88 78 74 77 99 87
96 97 46 19 20 9 13 28 30 84 77 80 88 99 100 98 84 82 81 84 76 81 62 53 52 50 60 65 65 72 67 61 59 58 60 61 83 91 81 77 79 79 78 80 88 75 93
71 99 89 49 15 12 11 18 28 86 79 88 95 98 96 97 86 71 80 77 77 76 70 66 75 61 55 74 71 72 71 67 64 60 64 68 93 94 90 76 88 92 80 76 74 73 72
35 97 99 81 21 14 11 24 27 61 98 93 96 97 98 83 79 76 73 63 66 60 64 72 64 68 80 81 73 66 52 51 59 69 76 74 95 98 98 72 88 98 83 76 78 76 74
19 96 99 96 64 28 21 22 80 36 77 99 99 98 100 91 82 73 55 64 68 66 72 75 70 71 82 74 67 63 64 65 62 62 64 82 84 94 98 91 94 68 55 62 72 73 75
18 72 97 92 85 69 42 68 67 50 37 83 98 97 100 92 91 73 76 68 63 64 74 77 77 79 74 74 87 84 85 81 80 71 67 70 81 96 99 99 78 73 60 70 78 73 71
19 37 98 93 95 89 88 86 92 88 33 39 99 99 99 96 90 93 93 62 72 73 66 74 75 73 68 90 86 86 91 74 98 97 75 75 82 92 99 98 94 64 52 56 68 94 66
28 28 88 95 69 92 88 94 98 100 87 38 79 98 100 100 97 94 88 74 56 68 82 81 80 81 82 92 91 92 81 70 94 90 97 99 100 99 92 98 84 59 54 65 84 63 58
70 28 85 98 83 75 92 99 91 96 99 84 60 95 98 100 93 86 92 97 73 65 84 87 82 87 89 92 91 88 83 73 80 82 89 84 94 99 98 100 94 50 72 74 62 60 62
77 33 78 99 98 81 87 95 87 90 98 96 78 80 96 98 94 92 93 94 87 86 76 79 78 83 82 90 92 88 90 88 88 87 71 84 74 82 85 78 51 48 53 56 57 62 62

GFSGBSN_850_rhum_039.txt.gz
RH
100 99 98 98 99 99 97 83 85 81 87 82 91 91 75 74 74 84 83 75 87 92 92 79 95 97 100 94 55 84 90 48 78 93 85 96 90 74 74 67 60 62 54 50 45 43 46
96 98 98 99 99 96 85 79 93 92 89 89 95 90 75 76 80 80 80 76 76 94 94 73 98 100 100 87 61 65 79 81 86 84 84 94 86 72 64 61 67 55 52 50 46 44 44
94 98 95 99 98 93 80 85 93 90 92 95 94 81 91 74 75 77 79 73 69 69 75 82 94 100 100 83 55 40 77 77 90 88 75 86 76 72 64 59 54 54 55 54 53 48 51
99 95 97 95 99 92 79 79 81 89 93 94 76 77 76 71 74 77 74 68 75 75 73 73 93 100 98 77 62 55 79 87 80 85 79 76 79 73 65 59 57 63 61 73 51 51 46
91 96 97 98 96 87 79 82 84 93 94 85 87 96 91 73 76 76 74 72 72 66 63 69 90 95 93 82 69 80 85 79 83 89 86 77 81 76 68 72 75 65 84 75 60 49 48
92 98 99 98 94 84 80 83 93 92 86 83 84 93 90 94 94 90 89 90 73 70 60 60 86 96 95 84 59 82 77 76 82 88 100 88 86 92 85 78 87 83 72 71 69 49 53
95 99 97 100 98 84 78 86 94 92 88 88 94 92 93 86 82 80 85 84 80 90 76 62 80 88 88 71 60 77 76 72 82 88 98 99 98 93 87 78 62 65 68 69 60 46 48
98 99 98 99 98 95 84 92 93 93 89 96 87 95 82 82 81 79 88 95 93 95 88 66 97 86 88 76 77 70 68 71 86 92 90 96 94 85 76 78 76 74 72 74 58 49 48
97 99 94 95 97 98 97 98 90 94 94 94 96 88 96 79 81 85 87 89 99 92 94 84 77 92 86 75 70 72 65 77 83 96 87 84 82 82 76 86 82 80 70 67 64 57 52
92 99 96 91 98 96 98 91 96 94 98 94 96 92 91 90 86 89 78 93 83 92 98 98 94 88 90 70 76 70 66 73 78 90 83 78 60 76 84 87 76 72 54 57 60 65 79
93 97 99 93 97 99 95 98 96 90 98 89 82 83 80 88 96 86 96 87 81 98 88 98 96 90 71 66 73 70 71 62 75 82 78 92 71 85 84 75 56 64 54 58 60 73 70
93 97 96 96 97 96 93 97 96 94 95 90 84 83 82 78 89 95 89 76 93 96 96 99 97 94 78 73 79 78 77 60 62 67 59 72 54 53 56 59 52 56 58 66 80 76 90
94 98 94 96 88 98 92 95 98 100 94 91 85 87 79 79 82 85 80 88 94 96 99 100 98 75 73 79 84 78 75 77 92 98 99 71 66 54 56 68 59 58 67 83 74 96 78
94 87 93 97 91 99 94 98 98 100 84 92 84 78 82 71 74 80 84 87 92 95 98 89 75 72 85 75 84 77 82 89 68 76 94 93 92 63 54 64 72 65 65 78 58 87 86
94 71 92 92 94 88 89 99 98 99 77 77 81 80 96 87 90 94 92 96 98 98 100 86 72 89 94 86 86 95 82 84 67 61 78 84 83 59 56 58 59 76 85 63 85 78 95
60 42 62 86 97 87 88 76 93 99 75 64 70 75 81 90 91 84 90 98 100 89 64 73 95 82 97 94 92 99 80 62 63 59 55 65 90 66 58 53 58 62 65 86 93 66 76
90 28 38 49 93 72 39 25 72 74 68 55 65 69 80 96 92 95 99 100 92 78 75 70 83 79 79 80 76 73 70 60 52 59 54 62 74 77 65 68 78 74 80 82 81 83 85
28 64 14 10 53 46 12 20 56 60 61 56 69 86 81 91 98 99 100 98 91 84 74 59 61 64 69 69 65 65 67 61 54 55 62 56 80 95 72 62 59 64 71 77 83 75 98
38 44 10 10 15 37 8 17 37 65 66 69 73 78 76 84 97 99 82 88 87 85 70 55 58 52 57 66 68 64 66 50 55 56 63 56 79 92 83 69 68 76 73 71 77 83 96
38 56 25 13 10 23 11 12 21 64 70 79 74 92 63 76 92 92 92 87 73 61 59 56 59 53 56 59 57 73 65 65 56 52 52 52 75 76 84 70 80 91 81 77 79 99 88
28 43 33 20 20 10 18 10 18 61 71 74 84 98 99 98 85 86 80 81 81 88 63 54 54 54 57 70 68 74 66 61 60 62 62 62 83 90 79 74 79 77 76 84 87 76 87
22 35 49 23 25 17 14 12 15 63 81 83 95 97 97 98 91 80 78 76 76 75 72 67 61 63 59 72 71 79 69 65 60 58 68 67 94 94 94 77 87 95 82 81 80 78 79
20 30 74 23 36 32 42 13 16 38 91 95 93 98 94 88 86 79 72 65 66 64 69 75 66 71 82 82 76 62 51 52 55 68 76 73 96 93 98 78 90 91 86 78 71 70 63
30 43 86 37 45 49 58 63 36 21 72 96 94 96 98 93 91 79 75 65 66 66 73 77 72 70 82 74 66 61 60 64 60 62 64 83 84 88 100 88 95 62 59 61 71 70 68
34 40 56 32 80 57 79 61 63 68 24 77 98 94 100 90 95 80 88 74 69 70 76 76 78 78 75 73 84 80 82 74 75 66 71 65 76 98 96 99 74 69 57 72 83 68 65
50 33 44 43 91 82 88 79 80 90 57 33 99 99 98 100 92 98 99 78 76 76 74 83 78 70 70 88 87 85 95 75 95 95 73 77 78 85 99 99 94 76 57 61 65 82 62
53 48 56 49 79 94 82 90 86 88 94 55 64 96 99 100 90 99 98 85 67 75 82 83 86 81 76 90 91 93 84 72 95 94 100 100 99 94 88 98 85 57 52 65 79 67 60
72 77 73 53 78 97 90 90 97 90 91 88 76 96 96 99 92 89 98 100 95 76 88 81 77 83 91 88 90 89 88 82 84 78 88 89 97 99 96 98 94 53 75 75 64 60 62
100 87 63 53 89 100 96 95 90 90 93 95 81 80 84 96 92 87 81 84 91 99 95 86 75 83 76 92 92 94 89 90 84 88 77 94 85 86 85 78 54 51 55 56 60 61 62

GFSGBSN_850_rhum_045.txt.gz
RH
93 99 99 98 95 88 97 82 81 80 77 91 93 84 91 94 91 86 81 76 82 78 80 78 84 91 87 95 90 87 98 80 94 70 95 97 98 82 76 70 66 65 59 52 46 48 48
98 96 99 99 90 99 92 84 84 79 80 81 89 87 80 91 79 78 77 76 76 74 75 76 81 79 92 98 87 83 77 93 95 88 89 94 89 79 70 69 62 60 54 54 50 50 48
99 98 99 98 98 99 97 94 87 79 84 92 93 79 86 86 85 93 77 70 73 74 71 70 82 85 94 94 84 86 86 68 75 95 87 91 76 68 66 68 59 60 66 58 55 53 50
97 98 98 98 98 96 94 99 89 92 91 94 95 86 88 92 95 93 74 75 68 70 78 79 73 88 97 90 82 82 84 62 94 96 89 87 75 66 62 59 63 67 61 73 54 56 50
94 100 98 99 97 98 98 96 92 91 98 96 94 92 92 80 89 82 82 74 69 70 77 82 77 89 86 90 90 83 87 84 87 91 82 84 78 73 68 72 78 72 84 78 62 58 54
98 99 99 97 98 97 95 99 94 94 98 99 95 99 90 87 68 75 77 68 66 75 71 70 72 85 80 87 78 73 81 98 96 92 82 82 77 89 86 78 85 81 80 76 63 52 60
98 93 99 96 93 98 93 99 95 87 99 100 98 97 85 98 79 82 70 67 71 81 83 68 74 67 75 86 82 72 85 94 77 87 93 85 94 88 81 70 62 65 71 71 64 51 52
74 96 99 96 98 97 98 97 98 97 100 100 83 90 84 92 81 80 76 81 93 86 77 72 68 79 83 99 89 79 97 99 98 92 92 97 88 70 72 66 64 68 75 75 63 53 52
31 83 97 95 90 96 100 99 97 97 94 89 84 82 77 88 84 68 80 96 77 84 81 82 79 98 90 95 92 82 88 94 90 88 93 94 78 67 68 76 76 76 78 77 71 56 54
42 76 94 93 96 92 97 97 98 98 96 94 78 80 83 85 80 86 90 88 85 89 90 81 83 93 86 92 93 78 80 79 85 96 88 97 92 75 76 76 72 92 58 62 60 66 73
35 70 74 81 84 94 98 98 100 98 96 72 65 78 76 82 92 97 97 80 84 79 89 74 94 90 93 87 83 79 74 71 86 81 79 94 92 90 90 82 73 76 55 60 64 71 68
20 49 53 74 84 64 96 98 98 100 92 64 59 66 66 68 76 83 82 78 83 86 96 99 92 95 86 82 85 81 81 71 76 78 77 82 65 77 87 75 79 58 58 66 72 69 82
17 50 56 45 62 45 62 99 97 77 69 61 65 64 64 72 82 87 95 95 87 93 93 99 100 84 80 92 84 82 92 87 92 98 100 96 91 60 80 90 65 60 80 86 69 82 76
17 50 42 38 35 24 12 76 94 62 49 52 54 66 82 86 94 94 99 89 89 95 98 95 93 83 96 86 86 90 96 89 69 87 96 94 99 76 57 70 93 66 65 77 59 60 60
18 24 44 24 15 8 9 9 20 65 50 51 52 60 80 87 92 99 97 95 94 96 99 95 81 90 94 89 87 93 99 80 71 65 81 90 93 62 61 60 60 72 79 59 82 77 77
20 21 32 22 12 9 8 6 11 43 51 43 58 63 78 86 87 92 99 94 99 97 72 70 86 82 87 91 94 96 89 70 69 60 55 67 94 70 64 56 61 62 63 79 83 73 59
27 24 22 20 16 10 8 6 7 17 51 41 52 60 65 74 70 75 99 100 88 78 68 66 82 87 78 77 90 91 73 69 58 62 58 64 74 84 65 69 76 73 78 78 71 74 55
34 27 24 27 30 20 9 7 6 11 46 44 49 83 63 62 81 97 100 92 85 78 65 58 62 68 76 72 71 74 68 66 55 55 64 62 79 93 79 65 62 64 74 68 76 73 89
39 39 39 32 42 45 33 8 6 9 50 66 62 55 59 62 92 98 83 78 86 73 64 56 58 56 59 64 70 66 63 57 55 53 62 60 79 95 85 68 67 77 73 68 71 80 98
43 46 45 67 53 49 50 16 8 8 55 75 69 82 61 66 91 88 90 82 72 64 59 57 58 53 58 64 68 71 67 68 58 57 55 53 73 72 76 66 80 92 83 72 77 89 79
48 54 47 86 64 46 44 22 9 7 52 73 81 96 97 98 88 94 83 79 79 78 64 55 55 53 61 71 72 75 69 72 67 67 61 62 86 88 74 69 78 78 80 81 83 77 80
50 55 46 92 85 47 53 34 12 9 37 80 92 90 90 90 93 88 75 73 77 77 84 63 65 66 60 66 62 78 72 70 70 64 64 69 95 91 84 80 83 92 80 81 78 74 76
53 54 47 60 90 61 63 54 30 16 27 87 89 92 93 89 89 82 80 73 71 68 76 78 72 74 78 78 76 64 57 56 61 70 73 73 95 88 86 79 86 92 87 80 81 78 67
55 64 63 54 96 80 71 72 54 62 33 74 88 99 94 92 93 88 88 84 76 77 70 78 69 65 76 65 62 58 59 63 62 69 62 77 81 85 90 84 94 52 63 67 68 65 64
62 75 74 61 80 96 82 84 65 80 66 44 85 89 100 86 78 89 96 96 74 73 79 79 82 78 73 72 76 80 78 68 75 69 65 59 77 92 92 87 73 66 76 74 71 72 58
76 82 87 86 68 98 99 95 87 76 87 67 54 79 85 98 90 88 86 93 86 80 78 89 83 82 77 85 80 92 96 82 95 94 77 75 73 78 93 86 97 62 63 61 62 97 60
81 88 88 84 84 92 97 93 95 73 87 84 74 63 76 95 82 91 90 94 95 82 83 88 84 81 75 88 90 95 88 76 91 86 96 99 98 94 89 77 82 62 62 65 95 78 56
90 86 88 82 95 95 75 88 99 85 78 86 85 82 76 75 59 67 84 98 97 95 90 84 84 83 89 87 88 88 89 89 88 82 75 86 87 89 84 91 91 62 72 81 72 60 61
94 84 87 83 78 88 76 88 99 99 91 98 96 88 81 94 66 58 50 52 60 88 98 100 81 80 75 90 91 91 93 92 86 94 81 91 78 82 72 71 55 65 71 64 64 60 60

GFSGBSN_850_rhum_048.txt.gz
RH
99 96 98 97 95 97 97 98 94 85 96 92 94 96 79 73 82 77 76 75 79 72 76 76 75 84 93 90 84 82 80 96 99 97 89 82 83 80 63 55 53 44 43 41 40 47 47
95 96 97 98 98 96 92 99 86 88 92 94 97 93 82 82 84 78 83 68 70 74 77 73 76 81 95 85 72 85 92 82 95 97 91 83 69 71 59 58 51 44 44 41 40 44 45
94 98 96 99 98 96 99 89 92 97 94 99 94 88 89 85 89 92 88 88 73 69 69 74 71 81 95 72 92 82 77 80 94 90 92 90 71 71 63 60 56 53 49 40 45 41 37
98 96 96 98 99 99 94 93 98 96 97 96 92 98 98 87 73 65 70 76 80 75 74 80 71 93 80 80 93 85 75 90 99 91 95 92 80 65 58 58 56 51 44 53 33 41 44
99 97 95 98 99 98 97 99 98 94 94 91 91 91 84 89 84 61 65 73 75 67 73 77 75 91 68 74 79 94 83 82 91 91 95 84 79 64 64 56 59 47 40 41 42 43 35
98 99 95 95 92 98 98 99 89 93 90 95 95 88 82 81 92 69 68 68 74 67 74 83 84 87 74 79 84 83 98 75 89 83 99 86 77 67 56 52 51 50 42 46 39 44 49
80 68 98 96 96 99 99 98 89 95 87 88 100 90 78 79 86 68 71 69 78 82 82 67 73 80 91 96 82 78 93 86 90 94 79 83 92 81 59 47 43 40 43 38 41 43 44
59 57 96 96 95 93 99 96 91 96 87 89 84 64 82 89 84 66 76 86 88 86 67 86 79 77 81 99 91 81 82 96 82 77 71 91 90 51 47 50 52 45 43 41 54 46 44
36 33 78 94 94 98 93 97 93 97 91 93 62 62 80 89 72 76 85 88 83 80 66 72 83 82 99 99 79 88 88 85 67 73 84 84 64 48 60 58 54 54 48 54 49 50 45
24 32 41 66 85 95 76 98 97 97 94 90 65 62 60 76 74 84 94 76 74 77 77 83 95 96 96 86 86 86 90 92 89 92 86 84 72 57 53 57 46 62 56 55 56 55 48
19 24 25 34 57 67 43 70 90 96 83 74 69 66 62 57 78 87 78 76 80 80 93 81 96 86 88 84 83 97 85 99 91 91 93 96 93 71 63 54 47 63 51 53 53 56 58
19 24 25 26 34 47 19 25 51 63 95 65 66 72 67 67 59 69 78 84 81 90 92 97 94 87 75 89 84 84 89 81 79 78 80 93 96 93 90 90 60 47 51 54 56 57 80
19 23 26 19 26 25 10 7 19 52 51 53 62 66 81 85 86 90 92 92 94 85 95 99 99 76 83 88 80 73 84 73 72 96 99 95 95 87 80 94 79 71 68 91 92 91 65
19 25 27 19 16 13 11 6 6 36 47 54 53 62 82 91 90 90 91 85 87 89 100 96 79 75 91 87 84 93 87 71 62 67 95 96 98 79 84 80 89 95 93 72 63 48 41
20 27 28 23 21 12 9 7 5 10 46 44 57 64 81 89 89 94 97 95 96 98 99 87 67 71 87 69 77 94 96 70 59 59 74 92 97 58 55 53 54 78 96 48 61 57 58
25 31 36 28 37 44 24 7 6 5 37 42 54 62 71 76 78 82 86 95 95 86 68 60 72 68 69 73 70 80 96 63 59 53 50 62 94 63 57 50 51 54 48 71 77 70 55
33 36 44 40 42 45 49 24 6 6 23 45 51 67 64 66 67 79 100 99 76 72 68 58 67 66 61 72 68 67 67 62 51 52 48 52 60 82 62 62 59 60 60 57 50 53 40
38 42 46 51 50 48 45 44 8 6 10 48 49 83 62 62 87 90 95 85 81 65 60 53 54 62 58 63 65 59 58 57 52 46 49 52 63 83 74 57 53 53 53 44 55 66 65
40 47 51 52 52 50 46 48 10 7 18 56 64 54 59 59 87 83 70 68 74 56 54 50 52 52 52 57 61 56 54 56 54 47 48 49 71 88 81 64 61 69 59 52 55 66 82
35 48 54 50 54 51 47 50 14 8 25 66 67 84 66 67 90 70 70 68 62 66 54 53 51 48 49 53 52 60 56 60 58 55 54 47 59 69 54 63 68 90 68 60 72 78 51
30 44 54 50 67 54 50 50 29 9 22 72 81 94 95 89 79 72 73 71 68 62 59 52 49 46 48 55 57 58 60 59 59 63 54 50 94 83 61 63 69 70 68 66 82 60 75
29 47 55 55 78 63 58 54 49 12 25 74 96 91 91 82 85 69 69 68 70 69 70 55 50 54 49 47 44 56 58 56 53 56 54 58 94 86 74 68 69 86 64 62 64 59 57
28 50 62 66 81 82 74 64 65 20 19 74 85 92 94 84 72 66 64 66 67 65 73 73 53 54 56 62 65 58 51 49 48 53 57 60 86 81 74 66 72 74 65 62 59 58 53
28 50 67 72 68 92 86 77 79 50 46 66 88 96 98 82 74 70 75 78 70 70 65 71 70 55 66 60 60 56 55 55 53 54 50 59 66 72 77 75 80 49 54 53 56 51 52
38 54 68 75 79 78 96 92 85 81 69 54 51 84 99 87 72 73 88 90 80 72 69 70 82 79 68 73 60 62 62 60 63 62 53 48 58 76 74 69 52 47 64 63 64 58 46
47 67 77 75 82 88 87 94 86 88 74 72 58 50 86 90 70 90 81 83 79 67 71 83 87 79 77 69 67 72 68 60 75 76 66 60 52 61 76 84 74 56 58 55 53 80 55
53 72 84 84 79 80 87 81 90 96 70 78 81 72 61 89 74 83 78 88 94 79 71 82 85 83 75 72 80 80 67 59 78 78 87 78 75 79 70 73 54 41 58 62 83 81 61
66 88 91 84 82 83 86 79 88 98 92 82 88 88 89 81 61 50 80 81 84 97 77 86 81 80 79 76 75 78 68 66 67 58 70 66 74 80 74 80 79 46 63 67 62 62 60
75 91 99 99 99 88 89 90 92 98 95 92 93 98 92 100 74 65 71 70 58 50 94 99 90 72 65 69 72 69 73 71 67 77 64 74 55 56 55 51 41 57 65 67 67 66 65

GFSGBSN_850_rhum_051.txt.gz
RH
67 97 97 98 95 96 97 97 95 92 96 95 96 94 88 86 88 80 79 84 88 76 77 68 73 77 92 87 60 78 74 71 91 87 76 70 54 64 56 45 39 39 28 28 33 43 39
46 90 96 97 93 97 94 99 96 98 93 98 97 87 91 92 90 80 96 88 72 73 74 72 74 79 95 85 55 59 92 94 95 92 65 66 54 56 51 44 40 38 34 34 33 40 41
45 75 93 98 91 98 97 96 98 92 76 95 98 83 80 84 79 71 94 90 78 73 69 67 70 86 93 68 65 71 94 94 91 96 65 59 52 58 53 51 44 43 37 35 32 34 36
32 77 95 97 98 98 96 92 97 82 85 92 88 81 77 83 79 73 69 72 75 73 71 75 74 95 83 64 65 90 86 91 88 96 68 68 61 52 56 52 50 43 42 50 32 35 34
30 53 88 91 91 96 97 98 86 91 84 96 88 84 85 82 82 83 60 67 62 64 67 73 85 91 62 65 76 82 87 84 91 87 71 82 77 61 56 52 58 50 44 41 31 27 34
26 33 75 95 96 93 98 96 96 90 90 87 86 84 80 82 78 84 64 63 64 88 84 88 83 81 62 63 76 91 84 75 99 82 96 96 82 68 53 46 54 46 41 28 27 37 33
24 23 58 91 87 95 95 99 98 91 88 86 89 74 75 79 89 65 81 93 80 80 85 66 63 68 76 89 99 90 68 83 86 72 75 85 84 80 52 37 28 29 31 26 26 37 39
24 22 43 79 77 74 77 98 98 95 90 85 89 79 80 60 63 63 86 73 84 93 60 71 66 69 77 91 100 100 92 95 64 71 69 94 93 50 39 34 36 38 32 32 36 36 38
24 22 34 68 84 48 31 89 100 97 92 94 85 73 71 73 74 90 89 84 68 82 61 64 76 84 88 99 86 97 90 84 52 65 67 79 78 54 49 42 42 38 37 30 37 44 39
24 21 29 48 70 26 13 44 100 100 94 74 69 65 58 73 94 94 94 87 79 88 87 86 95 91 98 95 88 87 90 88 86 72 64 70 76 66 52 48 37 43 36 37 49 48 36
25 21 30 27 47 23 8 11 76 96 65 64 68 69 69 52 80 80 73 74 72 94 85 87 92 93 98 88 91 94 88 82 85 84 91 97 81 70 56 48 35 49 46 49 50 49 51
26 22 31 24 27 15 8 6 10 77 59 52 55 73 76 97 74 61 61 66 85 94 91 98 94 82 82 88 90 96 98 84 75 77 82 92 88 77 61 57 46 46 51 52 52 53 74
25 24 32 29 35 40 29 7 6 8 22 51 54 64 82 87 91 87 86 98 97 86 94 100 92 69 91 84 88 88 89 90 96 99 100 98 98 87 82 73 55 50 60 82 87 94 60
23 26 36 35 35 40 44 44 8 6 11 48 54 64 80 91 94 94 99 84 87 92 100 85 84 70 89 65 77 83 67 73 66 61 88 100 98 99 90 80 81 65 60 63 63 63 51
22 32 38 41 43 45 44 45 32 6 8 42 49 62 81 88 91 99 99 90 92 98 95 69 56 62 73 60 82 94 75 59 52 48 72 78 100 80 83 79 77 96 96 44 48 37 41
22 36 41 44 45 44 47 46 37 8 7 45 50 64 84 72 77 99 82 90 85 79 67 51 58 57 61 57 61 63 72 53 56 49 42 55 90 61 55 51 49 68 56 84 77 75 50
24 37 44 46 46 44 48 46 37 11 7 45 55 75 64 66 81 80 99 96 65 58 56 53 53 50 51 56 53 53 57 54 45 45 41 46 54 75 59 61 58 56 58 52 50 50 46
31 35 47 48 45 46 47 45 42 8 8 38 81 82 59 64 81 77 83 62 65 51 50 47 48 49 47 50 51 49 55 48 44 38 45 48 58 78 68 50 47 45 44 42 56 63 53
30 29 45 48 46 48 46 46 50 8 16 62 78 67 59 63 77 71 60 55 55 46 45 44 47 47 46 47 53 46 47 52 47 42 43 43 70 85 75 58 52 61 50 44 45 64 85
25 26 37 47 50 52 50 49 47 13 10 67 80 81 78 69 72 52 51 50 52 58 46 44 44 42 45 46 42 52 51 54 52 48 48 41 51 68 61 64 61 85 58 52 69 80 48
27 27 36 49 54 53 57 55 48 20 13 74 78 83 91 84 63 57 57 54 53 52 48 44 43 40 42 48 45 47 48 52 49 55 46 44 99 88 53 53 66 70 62 59 81 59 70
32 30 42 52 59 57 64 66 54 34 16 81 88 90 86 72 66 60 62 56 55 56 55 46 45 39 37 39 37 44 44 44 46 47 45 50 89 81 68 53 58 78 58 54 59 58 50
36 34 40 56 58 63 74 74 64 53 19 80 92 98 99 72 57 57 52 54 57 55 61 56 44 42 42 46 47 46 38 39 39 44 47 54 78 84 70 58 61 67 55 54 52 50 49
42 37 46 60 58 64 79 78 71 73 45 84 95 99 97 73 60 59 65 66 61 58 55 56 55 47 59 59 51 46 44 44 43 42 40 52 61 65 77 75 80 50 47 43 45 42 42
68 64 62 65 69 71 79 84 82 81 68 74 52 94 98 60 56 57 67 74 75 62 60 55 67 65 58 57 53 58 58 52 49 46 45 40 46 63 70 58 44 34 49 55 58 54 40
86 77 65 72 77 78 82 78 84 96 82 86 71 59 95 78 54 73 72 76 79 57 59 66 85 79 78 58 60 77 69 50 62 65 52 46 42 55 68 76 65 54 48 46 45 68 41
93 75 72 84 85 90 87 79 76 87 95 81 92 82 93 75 50 68 51 78 92 82 68 67 76 76 79 66 68 66 64 46 61 59 71 63 58 71 68 72 52 33 52 52 78 82 56
88 55 78 94 96 94 82 84 83 91 99 88 98 91 94 77 68 64 57 62 55 80 93 89 77 76 73 69 64 57 52 52 53 48 55 60 64 65 62 77 76 39 57 62 59 60 58
70 66 85 100 92 99 81 85 87 94 99 90 99 97 91 100 75 65 75 72 65 58 67 95 97 73 55 59 50 48 50 53 49 62 46 60 45 50 49 50 37 44 50 60 66 64 64

GFSGBSN_850_rhum_054.txt.gz
RH
60 55 95 95 99 93 99 98 99 99 77 95 98 92 82 81 79 87 93 85 87 78 76 74 69 75 81 95 78 54 65 55 60 90 84 78 56 69 63 54 44 46 35 32 30 40 38
42 65 96 93 94 94 95 99 98 84 77 96 100 100 82 77 74 82 75 88 78 81 75 75 74 77 88 91 66 60 68 97 93 82 82 77 54 59 53 43 45 40 37 32 31 41 39
45 63 77 99 95 95 98 98 96 81 92 96 100 84 82 87 76 80 62 66 68 79 64 67 68 76 95 75 62 72 53 94 93 88 82 63 50 52 55 52 42 39 43 39 33 39 39
34 35 54 87 84 92 99 99 92 87 85 91 94 76 84 83 80 79 57 57 67 68 68 68 72 96 82 65 64 73 75 94 100 82 72 60 51 50 57 52 45 48 46 52 38 37 37
28 32 37 76 79 83 97 98 94 89 89 99 86 76 68 80 75 79 48 60 60 60 61 70 80 94 66 61 68 66 80 89 87 88 71 58 58 59 59 67 66 54 66 57 45 33 36
27 27 33 63 74 89 94 98 97 97 96 96 85 79 75 86 82 69 58 57 82 85 72 87 84 81 68 63 62 67 74 98 94 86 73 67 72 77 69 79 90 66 61 50 45 34 38
26 23 31 47 60 88 98 96 97 98 97 94 90 82 78 61 64 65 83 87 78 80 82 89 75 67 71 74 79 73 80 88 94 88 88 80 87 89 71 57 44 41 46 46 34 36 38
27 23 30 32 38 67 79 96 97 93 96 96 91 72 76 68 63 79 85 74 84 90 74 63 62 63 70 81 93 92 93 92 98 85 73 89 86 58 50 45 41 38 43 41 32 39 40
27 23 30 29 32 24 22 81 89 51 95 60 69 65 72 72 72 84 88 97 94 92 77 70 87 86 90 86 96 92 87 90 82 65 76 76 64 49 47 48 44 42 46 36 41 44 40
26 23 30 30 33 34 24 20 77 14 42 54 55 70 66 83 85 65 64 70 94 64 99 86 84 96 96 94 99 94 84 95 71 65 66 73 68 68 71 59 40 47 34 36 47 55 55
25 23 31 33 35 38 43 45 20 19 8 48 54 59 75 78 96 80 50 55 67 94 89 82 84 89 84 99 94 94 96 71 72 88 79 92 80 79 85 59 42 43 45 49 50 57 59
25 22 33 38 38 42 44 42 42 10 7 26 47 61 74 91 92 70 61 76 89 99 96 99 94 90 90 81 83 89 91 78 68 76 83 93 84 84 87 73 50 49 57 57 55 60 91
26 22 35 40 40 41 44 45 43 24 7 12 42 60 70 83 97 91 92 94 98 93 94 98 98 90 93 90 86 85 90 90 92 98 99 98 96 87 87 83 62 56 71 95 96 97 87
26 23 36 42 40 39 44 45 43 33 8 11 41 57 66 81 98 95 96 98 88 86 100 80 76 63 85 84 86 94 96 95 71 75 99 99 99 96 86 72 76 68 69 92 75 92 74
24 25 38 39 40 38 40 45 43 31 10 14 41 56 78 90 82 97 100 90 90 99 92 69 64 61 66 68 72 74 79 81 77 69 94 100 100 92 86 74 71 88 96 47 70 36 70
23 30 37 36 38 38 40 43 44 33 9 19 42 70 85 68 76 95 96 83 77 71 63 50 57 54 58 62 64 62 63 51 57 48 48 62 98 96 91 82 75 80 61 84 95 83 64
30 34 31 32 38 37 37 41 45 36 9 20 73 76 76 64 77 98 93 93 65 53 52 54 52 47 47 51 51 52 56 53 44 45 43 58 67 98 79 93 92 91 97 75 70 71 84
46 27 28 32 36 37 36 39 47 37 9 20 80 90 69 59 90 81 98 62 54 48 49 46 47 48 47 46 46 48 56 52 41 40 51 52 68 93 75 50 47 53 55 54 97 85 72
40 28 29 34 40 40 37 42 50 39 12 45 83 64 69 62 97 82 56 53 52 46 43 42 47 46 44 46 54 48 54 52 45 46 50 50 81 88 78 62 53 64 54 48 63 80 87
36 34 30 31 42 42 38 50 52 41 12 67 79 92 78 73 63 63 54 50 53 54 45 42 44 42 46 47 42 53 59 52 51 50 44 44 59 79 86 77 76 84 64 57 77 92 67
47 43 32 36 41 42 47 61 55 46 22 69 72 82 88 94 72 66 56 56 51 52 48 43 44 43 44 49 46 50 55 59 51 48 47 57 95 84 60 57 83 79 68 65 81 73 78
44 42 38 39 46 43 60 66 62 51 30 67 82 89 87 76 67 62 62 55 55 50 53 47 50 38 37 41 40 47 48 51 54 51 50 58 92 86 72 54 58 82 67 62 66 66 65
40 44 46 44 44 58 65 70 69 63 38 79 65 88 98 68 58 61 70 67 60 55 57 52 53 42 43 58 50 45 39 39 40 53 53 66 88 92 85 62 65 80 65 64 59 58 60
41 59 70 52 57 67 70 72 76 75 54 76 76 98 86 73 64 65 60 65 67 68 73 52 53 50 57 52 47 44 42 41 40 41 41 59 76 86 92 81 94 54 48 48 54 51 51
66 82 75 60 69 72 76 76 75 84 82 82 66 78 91 68 46 48 65 67 70 65 65 60 69 60 54 51 56 60 60 53 50 45 47 46 59 80 90 89 60 44 53 57 56 58 42
88 92 77 71 80 83 84 72 73 86 81 83 93 64 87 78 57 47 52 61 76 75 67 67 75 65 69 70 66 80 87 63 69 67 54 47 53 64 81 73 86 66 49 44 45 81 42
89 94 71 77 91 83 84 76 77 84 88 92 97 88 88 75 57 58 60 71 81 90 88 70 77 76 76 76 76 78 74 47 68 66 77 73 67 82 66 80 65 43 53 48 82 83 57
88 74 59 86 93 94 81 71 86 94 92 89 98 94 82 80 71 67 66 58 56 61 99 95 82 78 81 83 73 66 66 66 53 47 58 64 71 74 68 90 87 50 61 73 70 59 60
80 67 62 91 97 90 77 74 92 90 92 91 97 100 100 96 74 66 67 67 53 60 62 70 99 93 87 82 71 60 61 54 58 65 51 68 57 60 58 68 45 42 52 60 59 61 64

GFSGBSN_850_rhum_057.txt.gz
RH
31 38 70 90 99 98 93 97 96 92 95 99 98 91 94 95 84 81 77 80 81 85 89 72 67 69 78 90 78 57 70 81 78 89 85 91 80 84 78 71 60 62 45 45 43 38 45
28 33 64 87 94 95 95 93 86 94 95 98 97 95 83 91 89 79 78 56 81 86 78 67 67 75 80 92 60 58 58 76 80 86 84 86 66 73 67 62 60 49 48 41 36 40 37
28 28 42 75 93 95 96 98 97 98 96 99 99 88 63 86 78 72 62 50 71 72 66 61 65 80 91 72 68 65 66 67 78 91 88 80 56 68 57 56 48 46 57 51 50 44 41
27 26 34 75 89 96 93 84 100 98 96 97 99 85 73 80 71 72 47 55 63 60 64 75 68 83 83 53 51 76 86 71 94 85 71 70 57 62 57 51 49 51 55 76 45 45 41
27 25 28 47 66 89 84 81 100 98 98 98 98 84 66 83 74 57 48 51 61 68 52 70 74 84 82 67 59 58 64 70 96 90 79 60 62 57 62 71 75 65 77 69 49 41 46
26 25 27 36 47 78 63 47 77 99 98 98 98 68 60 58 58 58 67 72 77 77 71 82 87 86 70 78 73 60 69 83 99 89 95 77 66 81 84 84 88 81 70 61 54 43 44
25 26 26 32 35 42 26 24 18 90 96 91 91 64 56 62 54 60 68 81 75 80 84 68 70 74 78 70 73 78 63 93 100 95 86 70 87 88 83 73 58 55 56 61 50 38 43
24 25 26 33 35 40 41 44 25 41 78 58 61 66 54 68 78 74 75 83 93 92 85 66 66 67 76 76 81 82 77 97 84 95 85 89 90 74 66 66 71 52 58 56 40 40 43
23 24 26 35 36 41 42 40 57 19 17 21 57 59 66 61 69 66 63 72 92 90 90 80 82 92 81 87 94 89 96 86 81 91 76 76 69 62 61 64 66 49 53 50 49 46 44
23 23 27 37 38 37 42 44 48 40 9 10 46 59 71 67 85 87 70 55 64 80 96 88 82 94 100 80 92 89 98 91 90 82 70 78 63 60 61 63 53 58 40 40 54 59 65
22 22 28 36 37 35 41 44 43 39 14 11 34 58 74 74 66 84 62 59 72 89 88 76 91 89 97 86 91 83 85 95 89 84 72 96 83 82 77 67 56 54 48 55 55 59 58
23 22 28 36 36 34 36 43 42 39 20 11 36 55 70 81 84 87 89 63 84 91 96 99 98 95 95 97 93 85 98 90 67 75 80 91 82 87 88 76 72 53 61 65 67 71 91
25 22 29 34 34 34 35 39 42 41 17 12 42 54 63 81 88 90 88 87 93 96 86 100 98 85 80 92 89 84 79 84 90 98 96 96 96 83 90 80 73 61 69 96 97 96 92
27 23 35 29 33 34 32 35 43 42 12 13 44 56 65 84 87 86 93 95 92 84 97 84 77 77 91 89 95 92 79 90 73 84 95 99 97 95 91 89 90 69 65 87 85 98 85
29 34 34 28 31 31 32 36 44 41 13 14 52 68 65 74 85 83 98 95 90 96 88 84 68 70 77 74 85 92 86 86 76 72 88 94 99 90 91 84 80 85 91 54 73 52 83
30 44 31 30 30 30 31 36 46 40 16 21 60 86 84 66 86 94 91 90 81 79 68 58 66 55 61 74 75 78 77 68 73 72 69 90 99 95 90 85 75 80 67 83 94 90 70
40 41 37 33 31 30 29 39 46 41 26 21 72 82 85 68 86 86 92 95 74 67 54 59 62 51 49 58 60 61 66 54 52 53 53 67 77 99 93 98 95 83 95 78 77 85 88
50 44 41 33 33 30 28 43 45 43 30 22 71 95 78 72 99 91 97 83 58 52 52 56 52 54 50 49 50 64 69 58 43 43 63 54 81 99 92 68 71 70 76 70 93 85 74
50 47 43 39 37 30 27 47 44 43 31 55 77 73 85 87 98 93 60 58 58 56 46 47 50 48 48 49 59 56 66 54 48 54 55 57 80 96 90 68 60 92 73 67 65 77 84
47 49 47 43 38 30 35 49 46 46 42 67 78 95 65 84 71 72 72 62 66 51 50 44 46 45 48 50 44 58 66 54 51 50 47 49 73 78 83 71 75 83 68 63 76 86 69
43 48 51 61 42 35 51 51 50 48 35 46 69 83 84 97 85 79 71 59 59 64 52 44 48 48 53 53 51 58 63 62 54 46 50 62 83 80 67 75 80 79 72 72 78 66 74
42 44 61 71 43 48 58 57 64 53 42 23 88 89 89 87 76 76 69 74 63 60 54 57 53 52 44 55 49 58 60 63 65 55 55 68 93 86 64 62 72 85 71 71 73 65 66
42 46 77 73 47 60 66 60 68 63 46 43 46 76 89 77 70 75 76 72 72 76 57 54 57 64 59 61 51 46 43 44 50 61 65 74 89 91 87 65 70 75 70 69 67 66 61
59 72 77 72 51 68 70 66 61 71 68 62 65 83 84 88 64 50 66 70 73 74 81 69 64 62 56 52 46 43 43 44 42 48 52 79 78 90 94 83 88 50 52 56 58 57 62
76 81 83 67 64 72 71 72 66 71 76 75 66 65 90 97 70 54 50 69 70 70 75 67 72 60 57 55 63 65 70 57 53 47 48 61 74 86 93 95 60 54 59 58 68 62 54
78 81 85 56 68 80 76 65 69 76 78 84 82 67 84 90 76 60 64 58 83 93 82 79 73 64 62 80 74 86 93 72 72 68 55 55 54 72 86 84 89 62 48 45 50 83 48
83 83 68 53 86 91 86 69 83 88 80 86 94 91 73 85 66 64 63 66 59 87 95 85 89 77 73 84 85 88 85 60 81 87 79 76 71 84 76 83 66 49 50 49 83 70 53
87 78 54 65 86 93 76 73 84 85 82 82 88 96 92 88 84 63 58 62 61 61 91 86 91 88 88 85 87 81 77 70 62 61 70 79 80 83 74 90 92 53 61 74 65 62 60
88 75 57 74 73 76 78 77 77 92 78 91 95 99 99 99 84 78 72 71 69 58 67 63 98 91 99 98 87 78 70 69 71 76 56 72 66 74 70 74 48 55 57 59 58 59 61

GFSGBSN_850_rhum_060.txt.gz
RH
26 35 68 80 87 98 98 92 100 92 88 96 96 99 94 94 87 80 74 66 75 84 85 67 68 70 75 89 79 73 67 76 78 76 100 89 79 87 84 73 70 62 55 56 62 61 71
26 27 43 72 80 96 98 94 99 98 94 92 92 98 77 84 72 68 54 55 68 69 71 63 68 70 82 95 54 55 68 66 84 64 99 88 76 80 69 67 69 62 54 53 60 55 68
26 25 29 45 67 75 95 95 100 90 96 93 92 91 71 69 70 58 40 57 62 62 61 60 64 75 79 59 65 69 68 72 87 80 91 87 73 68 62 68 55 54 66 57 53 46 44
26 24 25 43 39 34 76 79 75 100 98 90 96 92 59 68 65 48 56 51 60 62 60 71 69 78 86 60 55 62 72 71 84 84 83 82 68 63 62 56 58 55 68 81 54 48 42
25 24 24 33 34 38 70 67 55 83 98 94 95 91 60 53 52 57 57 73 62 52 52 67 77 84 78 74 68 66 80 74 87 85 84 91 79 68 65 76 77 68 88 80 59 47 48
25 24 23 32 35 40 51 84 58 60 66 84 98 85 57 58 48 48 66 72 73 72 78 79 85 90 78 70 74 73 63 69 90 84 98 99 76 84 84 80 85 83 74 67 58 52 50
26 24 23 32 34 38 39 76 74 73 37 50 85 81 55 59 63 59 60 68 66 72 77 73 67 75 69 72 75 80 72 67 96 98 95 78 88 92 80 66 57 62 63 68 54 44 48
31 24 23 33 35 37 38 50 52 63 68 31 42 69 64 55 60 63 57 63 94 76 89 76 77 75 81 86 82 89 74 79 94 97 81 97 86 75 71 66 60 61 63 66 48 44 46
34 24 23 32 34 36 35 41 44 50 33 10 17 60 71 63 60 59 57 64 74 79 88 87 83 85 87 85 95 95 71 88 87 92 86 82 76 68 69 77 78 61 65 59 52 48 43
37 25 23 32 34 35 33 38 42 44 23 12 13 53 71 77 79 71 81 61 72 88 92 92 82 93 92 81 94 88 95 95 87 92 69 80 67 72 71 76 66 73 48 46 51 59 69
37 26 24 35 33 33 31 35 41 44 21 11 22 48 68 82 80 63 67 63 74 83 92 88 92 72 86 89 96 98 94 91 91 88 70 98 80 78 75 68 53 58 47 55 58 62 58
39 28 28 37 32 32 29 35 42 42 23 11 31 48 65 75 85 85 83 85 84 86 96 99 96 91 87 90 88 88 98 88 73 75 82 90 82 90 94 78 64 54 61 68 73 72 90
41 30 41 34 31 31 26 35 42 42 24 12 34 53 66 77 84 90 86 87 84 95 84 99 95 86 86 90 91 93 88 89 94 96 98 95 96 82 89 78 66 61 69 95 94 96 90
45 36 45 33 32 30 26 36 43 41 25 14 42 58 65 77 88 89 91 83 85 80 98 83 85 86 96 90 88 85 79 90 78 79 94 95 99 93 86 88 88 75 66 87 86 96 80
52 44 41 38 34 31 26 38 44 38 28 17 51 62 72 73 86 92 88 94 81 87 78 89 71 82 96 92 87 87 74 89 78 74 85 88 98 87 87 84 84 83 94 60 73 66 87
47 49 43 42 34 33 27 42 44 36 30 21 61 75 81 73 90 97 87 90 87 76 76 70 70 54 67 96 90 90 90 72 78 73 68 82 97 86 87 91 88 83 68 80 92 85 75
43 50 46 43 40 37 27 44 42 36 33 29 78 81 80 77 96 86 96 95 76 66 67 61 64 55 53 67 76 77 76 67 60 74 68 79 78 93 92 98 94 95 92 82 76 84 89
48 50 50 46 47 42 29 45 39 37 35 34 68 95 82 86 97 94 94 84 59 56 54 60 54 56 55 50 58 68 70 60 50 50 70 63 84 95 87 76 77 72 82 73 88 84 80
51 52 51 51 61 42 36 46 40 40 36 43 77 82 92 97 88 94 68 61 59 58 50 50 52 49 49 52 62 66 66 55 51 53 63 60 85 98 98 82 74 97 86 70 71 79 87
50 52 50 61 66 40 48 46 39 40 35 54 72 90 69 86 81 80 80 64 64 55 54 46 48 46 49 51 50 67 66 56 52 48 50 54 76 76 82 69 80 89 88 76 83 96 74
50 48 48 72 69 42 52 47 41 41 34 42 63 88 87 96 87 85 80 71 59 64 53 47 50 49 53 56 56 67 67 63 55 49 56 58 79 79 69 74 74 74 77 78 93 77 82
52 48 57 77 65 52 54 50 46 44 34 29 73 88 81 87 82 84 77 83 74 72 55 62 58 61 54 54 52 64 67 66 64 56 58 71 86 81 60 65 68 85 71 74 69 68 64
57 60 76 74 54 59 56 57 55 53 41 42 51 86 89 78 74 74 75 75 75 79 60 58 62 67 61 59 51 47 48 49 54 61 70 72 90 86 80 70 65 73 68 69 71 69 60
69 72 79 73 49 66 63 62 64 63 58 52 53 62 68 70 67 62 53 58 73 70 83 72 69 65 58 55 50 46 45 47 56 57 62 78 76 87 94 79 84 54 50 57 57 53 65
76 76 80 73 56 76 74 66 75 69 68 59 55 58 73 85 81 65 63 60 64 75 78 75 73 69 65 57 68 71 77 60 54 53 62 64 80 90 93 94 67 53 60 65 68 59 54
79 78 81 59 72 82 82 70 80 73 74 70 64 59 68 83 80 64 65 69 88 94 89 82 81 69 64 81 76 85 94 76 76 68 63 59 61 74 91 88 92 53 53 47 53 82 54
76 79 70 55 77 77 72 71 82 80 80 80 84 81 76 78 69 71 65 66 57 75 78 98 87 81 73 85 87 92 89 68 84 84 83 78 75 87 84 85 76 50 47 53 78 63 57
78 74 56 71 72 75 76 74 76 87 76 85 90 91 96 91 88 70 66 65 64 62 81 82 89 95 92 86 86 84 84 72 71 70 78 76 79 89 79 92 92 46 62 72 62 63 60
82 77 59 77 75 79 80 75 75 93 81 89 95 94 97 99 83 87 73 73 75 77 74 66 97 99 100 97 92 92 80 77 76 78 61 72 67 79 73 72 48 50 54 52 57 60 59

GFSGBSN_850_rhum_063.txt.gz
RH
34 26 25 36 58 69 94 94 85 96 98 92 85 90 77 95 83 62 45 55 64 72 72 63 65 67 75 92 77 85 89 96 93 87 84 100 94 79 90 86 70 68 63 59 74 69 70
39 26 25 30 36 50 84 87 78 99 98 95 92 91 81 97 68 44 48 60 67 66 71 64 64 66 75 95 50 51 73 67 71 75 80 100 89 71 80 77 76 64 55 64 85 77 78
44 26 24 30 34 42 67 85 77 85 99 98 89 97 85 69 56 41 52 51 55 61 60 60 62 71 79 61 63 74 63 72 75 79 75 99 76 71 72 76 65 62 72 74 79 70 68
45 27 24 29 33 39 50 97 100 97 96 99 98 98 86 56 51 47 49 68 68 78 66 74 76 76 68 70 68 72 66 77 78 86 79 88 86 65 70 65 63 73 74 85 67 59 56
48 28 24 28 33 36 42 98 91 99 99 88 96 99 95 52 49 54 54 69 55 59 61 75 84 79 70 80 76 72 65 90 90 90 67 95 87 73 72 83 80 68 93 81 68 52 59
57 31 25 28 34 36 38 80 83 99 99 68 90 74 95 51 57 56 53 60 66 80 78 82 94 80 75 77 84 78 77 89 93 96 100 99 70 88 86 84 85 86 83 72 67 55 52
62 32 25 27 35 36 33 46 66 88 93 82 63 65 75 50 60 71 64 69 65 72 73 74 73 79 85 83 77 70 71 65 84 97 91 94 88 93 86 68 58 66 68 70 55 51 53
63 35 26 27 36 36 30 35 38 70 85 44 14 34 69 54 47 57 48 57 71 77 78 85 84 82 81 94 89 83 69 81 90 89 87 97 86 76 71 59 59 61 71 72 52 50 51
65 38 28 27 37 34 29 33 38 47 48 21 13 29 66 64 60 53 51 57 74 84 87 86 86 81 88 88 93 93 87 87 92 96 93 94 70 72 71 74 70 64 71 66 60 50 46
67 40 31 29 38 33 29 32 38 45 44 16 13 40 63 73 73 73 64 54 62 89 92 97 86 92 90 81 92 81 88 88 91 94 90 83 73 77 79 81 70 72 52 52 56 58 75
67 42 33 37 38 33 29 30 39 44 41 16 15 42 63 76 74 72 71 62 68 93 90 86 88 82 82 91 94 91 88 98 93 90 88 98 84 84 82 74 55 62 49 55 53 62 58
70 44 36 45 37 34 30 27 40 41 39 16 22 47 63 77 83 87 89 87 77 83 95 98 95 87 80 88 88 90 98 97 84 80 83 91 85 84 89 75 57 57 62 68 73 72 90
69 48 43 47 37 35 32 28 42 40 37 19 33 56 67 77 85 93 94 83 85 95 83 97 93 76 80 95 92 90 91 90 95 99 96 95 96 87 86 74 66 59 71 96 95 96 92
70 54 48 45 40 36 36 30 43 39 36 22 41 63 72 84 84 90 98 78 84 76 91 84 84 80 87 84 92 86 84 92 74 74 91 95 96 90 86 82 78 70 64 89 86 96 81
74 54 50 46 44 42 41 33 42 37 37 28 49 64 78 82 92 93 94 91 75 83 76 90 82 89 88 78 81 79 82 90 73 69 85 92 93 86 86 84 81 80 93 57 77 72 89
75 50 50 48 48 52 47 35 42 36 37 32 63 75 80 78 92 99 90 90 85 73 74 78 76 60 95 82 85 82 83 73 78 72 64 78 95 83 91 80 82 83 73 83 91 81 80
75 50 51 50 54 60 44 40 42 36 36 39 76 83 83 82 98 91 92 92 79 66 72 64 66 59 79 93 90 89 87 73 69 81 71 72 77 94 91 94 87 97 94 82 76 81 80
68 52 52 54 60 59 44 43 40 38 36 38 69 95 86 94 91 96 90 82 63 58 59 59 58 58 56 58 68 70 75 64 56 72 74 70 80 90 92 78 78 81 81 83 90 85 86
57 52 53 54 60 62 44 44 38 38 38 44 75 81 86 88 94 96 74 64 62 58 52 51 54 52 51 55 69 68 67 56 52 59 71 71 91 98 100 85 78 98 90 76 74 82 90
51 52 53 55 65 60 47 43 38 39 36 66 72 87 66 79 80 82 87 72 64 57 55 48 50 48 51 53 58 71 67 57 54 51 52 53 80 76 82 69 84 98 88 83 80 98 77
50 51 53 62 68 47 50 42 40 41 33 59 64 94 88 94 82 82 83 77 69 65 54 50 51 54 56 58 59 71 69 63 56 53 62 60 80 82 71 73 76 80 83 90 94 77 86
51 54 58 68 67 50 49 42 40 42 36 37 49 70 76 83 86 87 80 86 83 84 61 62 60 67 60 55 55 68 70 66 60 57 62 69 82 78 58 66 70 86 70 87 85 77 78
56 59 68 68 64 54 49 43 43 44 44 45 53 72 86 78 70 81 78 72 78 77 64 67 72 70 61 62 56 51 52 52 55 63 73 70 88 84 78 80 64 70 67 69 76 74 73
64 68 71 70 58 59 49 46 50 51 55 54 61 64 60 66 66 68 56 55 66 64 84 72 71 68 64 58 54 49 49 56 60 60 64 77 76 83 91 78 89 55 45 57 64 54 67
70 74 72 71 50 62 52 50 55 57 62 59 53 58 67 77 84 66 64 66 72 76 81 81 74 77 71 59 68 72 77 59 57 59 69 63 80 92 93 95 69 48 61 64 65 59 55
77 75 72 65 58 60 52 54 61 64 66 66 65 64 68 74 77 68 67 71 87 93 89 89 87 78 72 76 73 85 87 75 75 70 65 63 63 73 93 89 92 50 54 50 54 80 55
78 71 69 53 59 58 58 61 63 68 70 72 76 73 78 80 71 73 66 65 60 68 76 89 94 84 78 85 81 88 88 70 83 84 86 81 80 89 81 88 75 56 47 54 79 59 66
71 72 64 59 59 62 64 62 66 76 73 79 89 90 88 87 86 86 70 83 74 68 79 79 92 98 94 84 82 84 88 78 76 72 78 83 87 94 82 87 90 48 59 71 62 61 60
70 74 59 62 61 67 69 69 74 76 73 82 87 88 93 96 89 89 69 68 70 82 82 71 92 99 99 99 93 94 86 83 79 80 66 72 70 79 78 74 48 44 57 54 56 60 60

GFSGBSN_850_rhum_066.txt.gz
RH
61 32 27 29 44 77 88 93 82 81 95 94 86 98 82 97 76 38 52 55 59 66 73 71 69 70 77 81 56 79 83 87 94 97 90 98 99 86 87 85 81 80 74 70 66 69 75
66 34 28 27 38 64 82 90 89 98 85 94 94 89 91 96 70 40 50 53 51 54 58 61 65 71 72 82 59 48 72 80 82 94 88 88 98 79 72 81 82 67 62 64 85 76 81
70 39 29 26 36 58 83 79 86 98 98 93 98 96 98 85 66 44 48 56 65 72 61 66 63 70 78 59 67 81 53 66 79 85 76 83 90 69 75 81 70 65 83 90 90 86 85
74 48 32 26 33 42 82 78 88 98 93 97 92 99 98 98 86 51 52 64 72 49 50 68 78 71 60 69 79 56 61 62 79 69 86 80 99 76 78 71 66 76 82 94 87 92 87
78 56 35 26 32 38 75 60 83 96 99 98 81 98 96 100 68 59 48 63 66 66 67 78 86 88 70 80 76 73 67 62 75 74 96 90 99 80 78 86 84 81 92 84 91 76 86
82 62 40 27 30 37 45 37 55 81 95 95 81 73 81 83 60 78 57 56 70 71 76 79 91 92 74 81 83 84 75 84 84 97 100 83 99 89 92 85 88 90 92 79 89 71 79
82 66 44 29 30 37 36 34 38 48 86 84 59 29 61 67 55 56 54 68 65 66 72 83 83 87 83 94 86 88 91 85 91 88 90 98 99 91 86 72 62 74 76 78 58 59 73
81 66 48 31 31 38 34 31 35 42 51 48 25 21 56 72 55 50 48 56 70 70 76 82 83 84 85 87 93 91 84 90 97 93 86 97 98 75 68 59 64 68 78 75 55 56 62
80 66 51 35 34 38 34 30 32 43 43 41 17 24 54 73 64 61 50 59 68 71 88 93 96 84 88 89 91 88 90 92 85 96 97 98 75 76 69 68 70 67 78 76 68 58 48
79 68 54 40 40 40 35 30 30 44 41 37 17 32 57 74 74 73 66 59 67 83 89 95 85 91 89 84 91 88 93 91 89 96 94 94 70 79 76 77 65 72 60 56 62 68 86
77 71 56 43 45 40 36 32 30 44 38 33 18 40 63 78 77 75 72 66 68 82 91 83 85 84 87 94 84 91 96 76 90 90 93 98 81 86 82 76 56 63 56 56 55 67 61
76 73 56 45 47 42 37 37 32 44 38 31 21 47 67 77 88 90 92 92 87 83 86 96 88 84 88 88 88 88 95 95 83 80 88 93 87 83 83 71 59 62 64 70 74 74 92
76 72 59 46 48 44 41 42 34 42 36 32 27 59 71 81 90 94 96 89 88 92 79 86 90 77 87 94 88 89 89 94 99 99 100 92 94 88 84 76 65 61 71 96 94 95 93
76 71 64 48 47 44 49 45 37 42 36 32 37 64 76 84 89 95 96 83 90 83 97 85 84 74 96 93 91 93 84 95 77 81 93 98 99 91 86 78 78 67 63 89 86 96 83
74 72 66 49 48 50 56 41 40 41 36 32 45 68 85 81 91 92 87 88 78 82 79 89 84 89 85 77 83 81 86 87 70 66 80 93 98 84 91 86 78 81 86 58 78 75 88
75 73 61 51 50 58 56 42 43 39 35 31 60 78 85 81 96 94 87 86 82 69 74 81 78 72 90 74 86 82 80 74 82 70 64 76 94 82 92 78 87 80 72 84 90 82 82
77 75 53 51 54 62 58 45 43 37 34 33 78 86 90 91 97 90 89 92 81 70 72 67 68 66 88 92 88 89 79 75 73 80 68 71 75 96 80 92 93 94 92 81 77 79 78
79 75 52 53 55 61 57 46 40 36 32 34 72 94 90 99 95 97 93 82 66 61 68 61 60 61 68 88 86 78 81 71 67 69 72 67 80 90 84 78 74 74 85 81 94 88 90
80 76 52 54 56 63 48 46 37 34 33 35 73 78 88 99 90 96 77 68 64 59 54 53 56 54 52 59 72 71 69 59 60 63 75 71 90 97 93 88 83 98 88 79 77 83 93
78 69 52 53 61 60 48 41 35 33 33 40 64 87 68 81 81 83 83 77 65 59 54 50 51 50 51 56 64 74 69 60 55 55 57 56 81 76 86 67 83 99 82 90 86 94 76
78 58 53 54 66 55 48 39 35 33 33 35 51 90 96 92 87 86 83 83 77 67 56 54 55 64 59 59 62 73 70 64 57 65 62 60 81 87 72 69 84 88 85 77 96 87 89
76 52 55 60 64 55 47 38 36 36 34 33 44 63 71 84 86 83 85 88 90 84 69 66 62 69 65 56 54 65 69 67 63 58 65 67 85 79 61 68 77 86 78 89 84 80 84
72 52 58 67 65 53 45 39 37 36 35 42 52 66 81 76 69 83 74 62 82 76 75 73 75 72 62 68 63 56 56 56 57 65 74 71 87 85 80 79 68 75 67 71 84 86 82
62 56 64 68 63 52 44 41 40 38 36 40 49 56 48 60 67 72 63 59 64 66 79 73 75 69 73 71 58 53 53 60 60 64 65 79 75 81 85 78 82 52 46 52 65 60 74
56 63 71 68 60 51 44 44 44 44 43 42 48 51 60 79 81 65 65 72 77 74 83 83 87 87 76 66 68 66 74 59 61 62 70 64 78 92 92 95 70 49 62 64 65 60 56
59 68 73 67 52 48 45 47 46 48 49 49 53 58 58 65 78 71 71 68 78 90 78 84 85 81 75 76 73 89 83 72 73 72 69 66 62 72 94 90 91 51 54 53 55 79 52
68 74 70 62 51 49 49 51 54 57 55 59 63 64 70 72 74 75 74 73 67 71 76 74 83 80 85 82 86 90 85 71 83 85 85 84 81 93 89 90 75 54 51 54 78 60 64
76 76 71 56 53 55 52 54 63 61 62 68 70 69 76 81 86 89 78 86 89 76 81 71 81 98 98 88 91 89 88 82 77 73 82 86 92 97 89 94 88 48 60 72 59 59 64
79 68 68 57 54 60 58 58 67 66 69 69 73 80 83 88 86 80 69 66 69 81 83 78 93 99 99 100 96 93 87 87 80 83 72 79 73 81 80 77 50 43 49 47 58 60 60

GFSGBSN_850_rhum_069.txt.gz
RH
73 62 35 30 34 53 51 76 90 99 99 93 96 93 87 84 89 41 44 52 61 57 56 59 57 74 86 78 52 81 86 86 75 97 91 99 98 80 64 79 88 84 74 62 68 73 64
77 71 40 32 29 54 48 78 86 98 95 99 91 93 91 91 79 58 40 48 70 79 59 59 64 77 71 73 57 49 72 83 80 94 98 99 97 72 66 78 80 78 72 74 73 80 74
87 78 52 35 28 39 46 73 79 97 98 98 100 84 98 98 90 87 46 49 75 66 72 64 64 65 74 58 52 64 57 74 73 90 98 87 92 73 66 85 71 71 76 85 81 80 78
95 85 64 38 28 34 42 52 53 95 97 99 100 88 92 98 99 87 58 50 66 64 59 71 75 71 63 70 77 60 58 59 73 83 86 80 91 84 79 74 71 83 84 88 84 82 97
97 91 71 46 30 32 40 39 38 66 98 96 100 90 73 98 86 75 73 47 61 71 71 72 82 82 69 80 78 76 69 65 64 72 75 80 88 89 80 87 84 82 92 89 96 78 89
100 94 71 55 32 31 39 36 32 47 85 90 93 85 55 93 56 54 74 58 60 69 75 76 84 80 76 80 86 89 74 71 71 82 95 94 96 92 90 86 83 91 91 91 86 90 84
100 98 74 61 35 32 40 36 30 37 60 69 81 48 27 77 56 46 49 60 61 65 71 82 90 84 87 98 87 86 75 84 78 94 96 99 98 92 88 68 62 73 78 80 77 75 82
99 98 78 64 40 36 42 36 31 35 48 45 39 27 36 63 62 48 47 56 63 66 74 83 88 88 89 97 97 90 92 90 92 92 89 97 100 84 70 59 68 68 82 74 59 70 66
100 98 80 68 45 40 42 37 33 34 43 40 34 22 43 64 67 60 51 58 62 69 86 92 93 94 95 96 88 89 94 92 90 85 83 85 82 66 72 68 70 71 77 74 67 68 54
98 99 78 71 49 44 43 38 37 35 42 38 33 26 54 66 69 70 66 60 58 81 90 96 95 93 94 89 87 89 90 90 94 92 75 81 73 75 82 72 65 74 64 62 69 73 84
99 97 76 71 52 47 44 40 41 37 40 36 37 39 63 72 75 74 72 65 64 77 85 77 88 87 89 95 81 81 90 91 89 91 92 96 82 85 83 70 56 65 61 61 64 68 65
98 98 75 68 54 48 46 43 46 39 40 36 37 54 68 77 86 86 88 92 81 81 89 89 87 87 90 90 85 88 94 94 84 80 93 91 87 85 80 70 56 63 64 68 74 68 86
98 92 77 66 55 49 47 52 46 39 41 36 38 66 73 84 89 90 94 87 87 88 71 86 89 85 85 88 85 84 83 90 98 99 100 91 93 88 83 74 60 60 71 91 88 91 87
100 93 75 68 56 50 50 57 44 42 39 36 44 74 83 88 91 92 94 84 91 83 96 78 84 79 91 85 86 89 86 99 88 88 100 100 99 92 88 76 76 64 63 83 89 92 82
99 89 74 70 54 50 55 57 48 42 37 35 57 79 90 88 93 92 89 87 81 83 81 87 81 86 84 80 88 86 86 95 75 68 80 94 100 85 91 85 74 78 79 58 78 76 77
95 89 74 71 52 51 57 58 50 41 36 35 70 82 92 89 97 95 89 85 82 66 76 80 79 74 86 74 91 81 79 77 83 71 64 75 97 83 87 82 82 71 66 78 86 80 76
97 84 74 69 52 53 57 56 45 38 35 34 77 91 98 98 96 92 90 93 82 70 73 71 70 72 80 83 84 86 78 76 74 76 66 70 74 96 78 84 92 89 87 86 73 74 74
99 81 75 66 53 54 56 49 41 36 33 33 67 98 96 100 94 98 96 81 69 66 73 65 61 61 79 89 91 83 80 73 72 63 69 66 79 94 83 75 77 79 83 78 88 85 87
96 83 76 64 53 55 54 44 37 34 32 36 65 79 93 99 92 96 77 70 67 61 56 55 58 54 51 70 75 72 72 61 68 66 74 70 88 93 94 79 82 91 90 80 78 81 95
90 85 77 59 53 57 48 41 34 33 32 37 56 85 73 85 84 86 84 82 68 60 57 52 55 54 51 57 68 74 70 65 59 59 62 59 79 76 82 68 84 96 93 86 80 90 73
88 83 76 54 55 57 47 38 34 32 32 34 47 81 85 92 86 87 84 84 83 77 61 57 57 68 61 63 64 73 71 65 59 65 62 64 82 87 69 68 86 88 84 86 97 77 86
90 80 69 53 58 54 45 36 34 32 33 34 38 63 72 85 87 85 82 89 88 82 80 69 65 69 65 58 57 71 71 67 64 60 65 66 87 78 66 72 81 88 81 87 81 74 73
88 77 58 55 60 53 44 36 34 32 33 37 46 52 69 75 70 85 72 59 78 71 80 75 82 76 68 78 74 64 59 58 59 65 73 74 84 84 82 78 66 68 67 78 84 83 74
83 76 54 59 58 50 41 36 35 34 32 33 41 45 49 64 70 73 63 60 64 68 74 70 80 72 83 80 68 58 57 63 60 72 64 80 74 76 84 75 86 53 48 55 68 64 81
83 70 55 64 57 48 40 37 36 36 36 38 39 44 49 83 75 65 66 75 73 68 84 87 92 91 83 71 66 67 73 59 65 70 70 65 76 92 88 90 68 52 63 66 66 59 58
78 62 60 68 54 44 40 39 39 38 41 44 43 46 49 68 85 71 69 65 76 83 66 73 83 81 79 74 79 91 84 72 73 75 74 69 68 72 92 91 88 52 54 55 54 79 53
78 58 67 66 50 44 41 41 41 42 46 44 44 50 59 74 82 73 75 77 71 76 77 73 64 85 88 88 98 92 83 71 83 85 87 83 82 92 89 90 79 55 49 54 77 57 55
72 60 70 60 48 45 40 42 41 48 48 44 46 47 54 78 90 81 74 73 77 77 81 69 87 91 99 100 94 90 85 85 79 72 83 88 94 98 92 97 90 51 65 70 54 57 60
66 68 70 56 48 45 41 43 46 52 51 46 49 46 57 63 78 75 65 67 74 76 77 80 94 99 98 100 97 94 87 87 83 84 74 82 74 82 82 78 50 44 47 46 50 53 54

GFSGBSN_850_rhum_072.txt.gz
RH
89 84 77 52 37 32 44 70 62 92 99 97 98 97 93 92 90 86 47 43 70 74 65 51 59 66 68 80 71 75 79 82 63 89 97 95 84 71 55 50 58 58 49 51 49 54 49
96 96 86 67 43 33 35 52 58 93 93 98 98 99 76 94 96 76 82 40 77 78 60 52 61 64 75 50 56 54 68 82 87 88 98 93 82 67 50 50 58 50 52 51 55 56 59
99 100 92 78 54 35 33 41 42 82 88 99 97 99 83 75 96 92 80 45 58 58 54 52 66 61 66 57 51 65 61 75 80 92 98 98 88 69 59 46 60 59 60 55 57 59 59
100 97 96 81 61 42 34 40 40 64 81 99 98 99 93 74 96 81 73 49 50 61 66 73 76 75 63 68 78 59 61 70 72 73 90 86 94 75 59 59 58 61 55 74 55 58 73
96 98 97 87 66 48 36 41 37 33 67 97 99 98 74 53 86 50 68 61 48 64 70 72 81 85 64 77 87 74 63 73 80 76 85 94 88 83 71 63 60 63 58 62 70 56 74
100 99 99 93 71 54 39 43 38 32 44 87 100 91 51 55 75 45 55 53 54 64 70 77 73 75 74 81 87 88 76 66 74 82 84 98 96 92 63 61 64 53 50 53 58 67 66
100 99 99 96 75 60 42 45 38 34 36 75 83 54 47 62 78 48 47 57 65 75 72 80 86 82 77 87 88 96 75 75 72 82 98 99 98 100 57 45 30 33 44 58 53 69 67
98 100 100 96 76 65 44 46 40 37 36 54 46 33 33 64 76 53 45 54 57 63 68 85 89 94 96 98 90 93 80 74 91 99 92 95 100 84 43 48 44 47 48 54 57 63 62
96 97 99 100 77 67 45 47 42 40 38 43 40 32 38 72 70 63 50 58 56 64 73 90 92 93 97 98 82 96 89 87 69 100 85 82 83 79 58 53 52 46 44 54 52 65 56
100 99 86 96 76 67 48 47 44 44 40 41 38 34 54 68 75 69 59 57 55 73 91 87 94 93 96 95 90 94 89 84 88 92 73 85 70 72 59 49 44 59 42 48 58 61 55
100 100 93 96 77 65 51 48 45 49 41 41 38 40 63 72 76 76 72 63 57 72 83 70 86 88 93 96 77 88 88 79 94 80 70 82 86 70 63 51 43 53 49 47 50 45 49
100 100 99 98 80 64 54 48 51 47 42 39 37 53 70 77 84 80 86 87 71 90 93 91 84 84 93 80 77 83 92 93 78 82 78 70 58 64 58 56 46 50 51 52 52 48 68
100 99 98 100 78 64 54 48 54 46 43 37 39 68 76 83 88 88 93 86 96 86 74 85 88 88 77 77 75 80 78 82 87 98 97 79 67 75 74 58 51 48 52 83 79 83 58
99 100 99 100 75 65 54 49 54 51 42 36 46 78 81 87 90 87 87 77 94 79 95 70 79 89 88 74 78 79 78 93 76 79 83 94 99 79 74 51 58 56 44 56 62 62 48
99 99 100 97 75 65 52 51 57 51 40 35 56 88 90 92 86 91 88 92 79 91 86 74 76 74 85 85 83 81 73 94 63 54 77 74 98 85 77 67 58 60 65 43 57 55 55
98 100 99 95 74 64 51 52 56 45 37 35 67 92 94 91 93 94 86 82 72 59 68 68 64 63 62 75 80 73 92 71 69 59 54 63 97 76 79 66 63 57 43 62 72 75 58
100 100 97 89 73 61 51 52 50 40 34 37 85 97 98 95 97 92 96 92 70 68 68 62 61 62 62 66 69 66 70 70 62 60 53 50 58 94 73 80 73 63 61 62 49 56 50
100 100 95 84 73 58 52 51 44 35 34 41 87 89 100 98 91 98 90 70 68 64 74 61 57 58 61 65 68 66 67 64 66 51 54 54 61 89 68 67 69 68 55 50 62 70 63
100 99 95 80 71 56 52 46 38 33 32 43 75 96 100 99 92 85 68 66 65 59 55 53 54 52 49 64 66 63 63 60 71 56 54 53 65 87 93 67 70 79 65 58 56 66 86
100 99 90 81 70 53 50 43 34 31 31 45 64 85 84 97 86 70 68 68 64 63 55 51 50 49 48 55 57 65 62 59 65 58 61 52 61 64 61 56 56 85 70 67 73 86 58
100 100 88 80 66 51 48 40 33 31 31 38 50 62 81 88 74 70 73 74 69 67 60 56 53 57 52 55 57 62 61 57 60 66 58 54 97 82 56 63 72 73 65 66 89 70 73
100 100 87 76 58 51 46 36 31 31 32 37 50 59 64 74 80 72 71 78 75 72 71 64 56 61 54 53 54 58 58 56 57 55 58 57 88 70 66 66 70 81 62 63 65 64 61
100 100 87 71 52 53 43 33 32 30 32 34 38 41 61 72 62 69 61 64 70 66 74 71 74 62 61 74 80 67 59 55 50 52 62 68 73 75 78 63 60 63 52 56 58 58 58
100 100 86 64 52 50 40 34 32 30 29 31 33 40 53 54 56 60 55 53 58 65 69 70 84 64 84 80 73 63 57 57 54 58 56 72 91 87 82 69 81 46 45 45 51 47 51
100 100 80 57 53 46 37 35 33 31 29 31 33 38 41 54 56 55 59 60 65 66 77 84 97 91 86 78 58 59 57 56 60 59 55 50 53 70 74 67 50 48 58 53 52 49 44
100 99 73 54 54 44 35 36 33 29 29 32 34 36 41 49 58 64 54 60 52 52 55 68 80 85 82 70 71 73 64 57 63 68 63 55 52 54 71 76 66 41 48 52 48 52 48
100 96 62 56 55 41 36 35 33 28 30 32 34 39 42 66 79 65 55 60 69 63 52 69 65 88 95 80 96 77 61 56 60 65 74 71 68 76 65 68 50 41 40 54 55 50 51
98 86 56 59 51 39 38 37 35 30 31 31 34 38 39 83 87 71 71 74 76 71 54 68 81 86 96 98 97 75 59 58 60 58 65 64 66 78 70 78 72 47 58 56 40 53 59
92 84 63 63 46 41 39 39 36 32 31 36 29 38 40 56 79 63 66 66 68 68 74 79 91 99 99 94 97 81 64 66 64 61 62 66 54 56 57 51 46 48 47 53 51 54 52

GFSGBSN_850_rhum_075.txt.gz
RH
98 97 96 89 74 53 38 37 43 36 42 78 94 93 98 81 96 96 86 74 50 81 62 54 57 61 88 61 62 73 77 81 81 86 88 90 80 63 50 38 42 67 47 55 80 51 40
98 100 97 93 83 62 44 36 42 37 35 64 91 95 98 94 90 96 94 87 49 79 58 53 62 58 78 45 59 59 74 73 66 77 79 89 74 58 46 34 35 37 40 56 60 59 41
100 100 98 93 93 70 53 38 41 39 33 47 95 96 97 99 93 98 98 87 52 58 62 60 65 76 75 53 65 75 73 76 88 72 78 94 87 72 50 35 35 38 41 46 63 80 62
100 100 100 98 94 77 60 43 42 39 34 37 87 92 98 96 92 99 93 86 57 54 67 68 69 92 57 73 75 71 67 67 84 91 95 93 98 94 66 39 42 48 42 67 44 50 56
99 100 100 99 97 89 63 49 44 40 35 35 75 84 88 84 74 96 59 86 57 54 67 68 86 85 56 74 70 75 75 61 74 85 91 79 94 92 77 51 61 58 54 53 44 44 56
100 100 99 100 96 99 70 54 46 43 38 36 50 53 51 57 79 94 51 54 54 54 80 94 83 84 68 73 84 87 79 79 69 80 86 90 97 84 73 68 61 52 43 42 38 49 49
99 98 91 100 100 100 73 59 48 44 39 38 42 39 33 34 79 78 50 87 79 77 79 68 70 69 82 92 90 83 80 67 70 65 75 98 95 94 55 49 27 25 29 38 31 39 56
98 99 93 97 100 100 77 62 48 46 41 40 42 38 30 41 74 62 46 68 69 72 61 78 82 82 90 92 77 81 81 61 67 74 82 98 95 78 62 43 49 33 31 41 39 46 55
97 100 100 92 99 100 80 62 49 46 44 42 41 38 33 59 68 66 82 77 51 60 63 77 88 84 94 91 89 84 82 66 62 94 84 91 71 73 82 72 71 36 30 47 50 51 51
92 100 100 99 92 100 79 62 49 46 48 40 41 38 40 66 81 88 79 52 47 64 88 80 80 79 92 96 95 84 84 74 77 82 96 85 74 89 84 54 35 49 28 33 39 58 57
87 100 100 100 100 100 83 62 49 48 49 41 40 38 54 73 96 90 84 61 52 76 81 65 74 79 88 82 79 83 79 80 74 95 61 68 72 95 70 48 34 37 34 38 47 51 34
86 92 100 100 100 100 84 62 49 51 48 43 38 43 65 78 85 81 78 78 72 90 86 91 81 74 69 64 68 82 92 86 69 60 54 57 58 68 66 40 38 41 41 44 42 39 59
86 92 100 100 100 99 82 61 49 53 51 42 36 56 71 87 96 85 81 89 96 91 69 82 85 74 57 62 61 67 95 94 91 89 93 73 67 65 67 56 46 43 48 70 68 75 59
89 91 99 100 100 99 79 61 50 55 51 40 40 70 78 91 87 80 83 71 98 69 89 60 69 70 72 68 71 69 79 92 68 62 67 92 99 72 54 45 49 47 39 49 54 52 41
93 90 99 100 100 99 77 59 51 55 47 37 55 84 95 92 82 84 81 99 78 85 84 63 70 71 66 71 71 75 84 86 70 50 62 65 97 74 64 56 46 53 66 39 48 40 42
99 94 97 100 100 98 76 56 52 53 41 37 82 99 98 93 85 88 77 81 63 54 57 54 74 55 67 69 68 64 86 63 58 57 46 50 94 79 69 62 53 49 40 52 62 68 46
100 96 98 100 100 95 68 54 53 48 37 39 99 96 98 91 96 90 90 89 59 58 58 55 51 51 51 59 54 60 78 67 50 52 46 45 53 88 67 64 55 57 54 51 45 50 51
100 96 98 100 100 88 63 52 51 42 35 50 97 80 97 93 98 89 85 59 60 55 60 54 51 51 51 51 51 52 70 56 54 46 52 45 56 83 66 58 54 61 48 40 57 56 48
100 93 100 100 100 82 59 51 46 37 34 68 73 94 97 100 85 83 57 57 56 53 50 50 49 48 46 50 55 51 54 57 62 48 46 44 67 89 78 59 56 65 48 46 40 65 79
98 91 100 100 100 79 56 49 41 34 33 46 70 84 93 100 79 60 54 53 58 58 47 46 44 44 44 48 47 56 54 56 63 52 56 47 49 60 62 57 49 69 50 48 64 83 54
98 94 99 100 97 71 52 46 38 32 33 48 58 45 73 85 62 55 58 54 54 57 50 47 48 46 42 50 48 53 52 55 57 64 51 50 96 86 50 56 64 68 60 54 72 68 71
96 97 99 100 92 67 50 42 34 31 33 48 49 48 58 60 62 55 68 61 55 63 56 52 47 50 44 46 49 52 50 48 51 52 52 51 87 70 65 57 61 73 57 52 53 54 57
94 99 98 100 90 62 50 40 31 30 34 44 36 40 47 60 52 51 49 56 61 60 63 63 58 47 51 68 66 56 51 47 45 50 53 61 68 77 73 56 55 60 47 49 51 48 48
95 100 100 99 82 54 48 37 30 30 31 32 32 43 44 46 41 46 51 56 58 61 62 67 67 52 78 78 71 60 49 47 45 48 49 63 79 90 83 66 80 45 38 38 40 39 37
95 100 100 99 78 52 44 34 30 28 31 34 33 34 36 41 42 50 50 51 56 60 65 74 86 78 84 68 53 57 55 55 52 49 48 48 62 74 78 62 44 37 42 45 46 40 36
100 100 100 97 63 52 40 33 29 29 31 34 33 32 46 42 44 48 48 50 47 50 58 65 73 78 82 64 59 61 59 47 59 62 52 48 46 62 63 70 59 42 42 40 41 49 41
100 100 100 89 54 52 37 32 30 30 31 35 32 33 51 52 67 52 43 45 53 44 43 58 65 80 85 74 91 67 55 44 52 55 67 64 61 70 66 72 49 33 40 44 54 49 44
100 100 98 76 56 50 36 32 30 30 31 30 31 34 51 62 80 73 73 61 60 55 43 61 73 79 85 90 80 71 52 47 48 42 51 56 63 66 63 89 72 40 43 47 47 46 48
100 100 95 66 58 46 36 32 32 30 29 29 28 35 46 66 84 63 58 57 65 71 61 71 85 92 90 84 84 69 53 52 46 52 50 56 44 52 46 49 42 42 43 45 47 47 49

GFSGBSN_850_rhum_078.txt.gz
RH
100 99 99 100 99 93 72 55 46 42 38 39 48 88 92 96 98 85 92 91 86 54 76 56 49 57 66 68 54 66 92 93 90 90 91 92 76 74 69 53 63 88 69 66 65 76 81
100 100 99 99 100 97 88 61 48 44 41 37 40 81 93 94 97 90 90 95 84 52 72 57 58 60 79 53 55 66 72 86 84 80 80 87 71 65 52 44 49 58 51 64 65 63 68
95 97 100 100 100 98 97 73 54 46 44 38 36 55 89 98 94 94 92 97 82 52 55 61 62 77 80 58 59 64 67 69 84 73 74 85 83 75 56 50 33 35 61 76 77 64 68
84 86 98 100 100 99 98 88 62 47 46 39 38 46 83 91 84 75 98 69 74 51 58 64 63 80 68 55 64 67 66 62 75 78 79 90 84 85 84 66 40 49 51 82 79 63 65
84 77 89 100 100 99 98 96 71 48 47 41 40 42 52 53 47 71 83 49 54 42 57 68 84 77 81 68 67 70 71 67 72 82 88 94 88 79 75 84 62 74 79 60 66 67 71
72 77 81 94 100 100 99 100 73 52 47 42 41 41 40 36 38 69 52 43 49 47 76 91 84 82 79 68 80 83 74 68 70 80 80 81 93 90 86 95 86 71 60 55 50 70 61
60 72 78 85 100 99 100 100 78 56 47 44 43 42 40 31 45 73 50 80 87 86 78 65 66 60 76 74 80 76 73 63 73 67 75 92 98 95 90 83 51 44 46 44 39 42 57
84 62 77 81 99 100 100 99 85 58 47 44 46 41 38 34 61 63 44 82 70 72 66 75 82 80 83 82 68 72 68 60 59 78 79 90 99 77 71 74 67 74 47 42 40 62 65
100 78 69 85 94 100 100 100 87 59 48 46 45 41 38 47 63 63 78 72 54 54 72 80 81 78 89 82 81 73 73 58 55 85 74 98 76 61 70 68 89 83 53 48 76 58 63
100 95 74 83 90 98 100 99 88 60 47 50 42 41 38 64 90 92 80 72 46 64 95 74 74 77 93 85 75 76 84 68 70 78 68 87 77 71 75 72 70 68 43 39 52 69 76
98 100 90 79 90 96 100 99 90 60 47 51 44 39 40 70 97 87 87 64 47 80 95 62 70 74 84 78 73 79 79 74 70 85 85 81 79 85 79 62 57 58 39 50 56 62 50
96 100 100 86 92 98 100 100 92 60 48 51 46 37 60 74 88 92 73 68 71 95 89 91 76 72 71 77 83 83 86 74 86 87 85 69 72 76 69 53 50 46 56 62 54 59 83
99 98 99 96 91 99 100 100 90 58 48 53 43 40 74 98 97 85 78 84 97 94 68 81 74 65 51 60 62 94 81 94 91 99 96 73 80 80 78 67 53 53 74 90 90 90 77
95 98 100 100 95 98 100 100 84 56 49 52 38 59 78 100 84 80 84 79 88 63 92 56 67 61 63 61 64 81 96 83 77 72 82 94 98 90 73 60 58 56 52 80 66 79 66
100 98 100 100 98 99 100 100 76 54 50 47 46 84 98 87 82 79 87 88 85 86 87 62 62 67 63 62 64 72 73 69 62 47 69 77 94 71 62 58 56 57 71 43 64 41 68
100 100 100 99 100 100 100 100 70 52 50 40 66 98 96 99 84 79 81 84 61 55 51 50 90 61 70 62 73 73 72 62 64 56 47 55 90 74 65 63 55 66 45 64 84 71 49
99 100 100 100 100 100 100 99 65 51 48 44 98 93 94 89 85 95 86 85 57 53 55 57 60 53 50 58 63 63 74 64 49 54 46 47 66 84 69 74 63 62 83 56 53 70 79
97 98 98 100 100 100 100 94 60 51 43 50 92 96 94 88 99 86 88 67 55 53 55 54 52 53 50 50 54 52 66 55 49 44 55 54 74 94 85 66 60 64 58 54 87 70 69
89 99 99 100 100 100 100 86 56 50 39 62 85 99 94 87 94 92 64 55 53 54 52 50 50 47 47 50 62 55 58 58 50 47 51 47 76 98 88 64 61 70 61 59 55 75 80
96 100 99 100 100 100 100 84 54 48 37 48 74 94 100 100 87 80 59 58 60 58 46 44 44 44 46 51 46 59 64 58 59 51 52 54 59 71 89 65 66 78 60 54 72 94 71
97 90 95 99 100 96 99 79 54 45 36 58 70 69 79 92 84 67 51 49 54 59 51 45 49 47 44 53 51 56 59 65 60 60 53 58 94 78 53 55 69 64 61 56 74 67 82
98 98 100 100 100 97 96 72 53 42 38 48 55 58 72 55 54 60 61 62 52 61 53 51 53 46 45 56 57 60 52 55 61 63 58 58 94 75 72 54 60 72 66 61 58 57 62
96 100 100 99 98 100 88 59 50 40 36 43 49 47 46 56 57 59 61 56 52 59 60 60 52 49 52 72 68 56 50 46 47 55 61 67 80 89 85 58 60 77 63 64 58 54 55
100 100 99 100 100 100 80 54 48 37 34 40 35 39 50 56 53 53 50 58 59 60 62 68 64 56 76 70 67 62 48 46 45 48 50 67 80 94 94 73 95 55 41 43 50 48 49
100 93 100 98 100 99 64 51 44 35 36 37 33 36 40 50 49 51 52 59 59 67 70 67 78 75 79 67 60 62 62 58 54 48 49 60 74 97 98 96 65 47 44 45 49 45 39
99 100 100 100 100 87 61 53 39 34 37 36 35 34 40 48 53 48 53 56 63 66 68 68 73 76 79 72 66 70 80 56 70 70 52 50 54 80 91 86 75 57 46 39 40 60 47
96 99 100 100 100 70 62 48 36 34 35 38 37 38 46 60 58 51 51 54 48 45 64 62 70 78 77 68 80 84 65 51 67 61 76 72 66 84 83 84 71 48 44 43 59 70 48
83 100 99 100 98 65 57 46 34 34 37 40 38 43 46 70 76 67 61 57 53 51 58 66 81 83 86 87 85 80 67 57 49 43 55 66 78 80 74 88 89 42 45 51 57 45 47
100 100 100 100 90 60 54 39 36 36 37 40 39 45 39 55 84 61 59 62 61 70 60 76 86 87 93 93 93 84 66 59 52 62 51 66 58 69 59 68 42 41 46 46 49 52 60

GFSGBSN_850_rhum_084.txt.gz
RH
88 88 86 88 92 96 98 99 100 99 90 75 55 48 42 42 74 99 99 92 84 91 84 57 75 59 64 80 69 56 70 80 82 83 87 92 91 79 86 79 77 82 75 72 88 85 88
100 97 85 85 85 84 90 98 100 100 99 84 59 49 43 43 56 91 92 91 79 92 81 54 72 63 87 96 56 58 69 75 92 96 83 85 81 74 85 70 72 67 88 71 88 90 87
99 99 98 98 94 84 81 86 99 100 100 91 61 49 44 44 43 53 60 81 94 60 66 57 69 78 91 66 65 67 72 89 99 91 86 80 81 88 80 67 63 68 87 90 83 82 90
78 84 97 99 100 96 85 85 89 100 100 95 64 50 45 44 41 39 42 74 48 50 46 60 68 87 78 65 67 64 62 86 90 81 75 78 85 93 85 73 68 74 83 96 92 86 97
68 84 86 88 99 100 100 91 83 90 100 99 67 51 44 45 40 35 52 53 42 43 68 66 82 79 78 65 68 59 65 71 84 85 93 87 85 80 80 84 82 88 99 86 89 75 90
95 91 59 62 72 90 100 100 87 81 100 100 78 53 45 45 39 36 57 45 46 46 75 82 83 92 71 72 64 68 62 70 78 81 74 77 88 93 85 90 89 90 90 83 82 88 81
95 91 40 16 26 48 76 100 100 82 100 100 90 52 44 43 37 46 54 66 77 80 75 72 70 67 71 67 67 65 62 64 70 78 91 90 97 100 88 84 78 71 84 82 75 77 80
93 92 94 63 13 8 37 90 100 96 97 100 93 52 46 44 37 56 50 75 71 71 76 73 73 74 74 72 78 67 67 66 71 94 83 93 100 92 78 79 83 72 62 82 68 77 75
33 79 94 93 92 13 18 51 99 100 99 100 96 55 47 43 51 60 60 71 70 56 82 81 74 76 73 75 77 66 72 64 73 79 84 96 94 84 77 87 89 83 82 69 86 84 73
46 28 15 24 83 64 18 60 78 100 100 100 98 58 50 41 61 74 76 72 61 53 90 81 81 71 76 78 74 71 75 76 74 84 78 90 90 81 79 84 77 80 68 62 71 87 97
55 44 44 23 18 95 32 34 59 100 100 100 99 59 52 40 75 76 79 80 49 72 90 67 83 75 83 87 68 72 73 69 77 85 80 78 88 87 81 71 68 78 70 64 72 86 78
93 91 88 74 30 45 71 31 48 96 100 100 98 55 54 43 78 79 86 68 64 88 85 90 80 87 76 82 85 84 81 74 74 80 81 88 72 76 73 65 63 79 78 83 86 97 98
99 90 92 84 70 36 78 47 54 94 100 100 94 62 51 63 77 80 73 70 82 98 74 79 91 84 77 82 95 87 84 90 90 88 97 90 88 81 81 80 80 84 81 98 98 98 83
98 92 93 97 99 94 90 82 78 91 100 100 88 61 52 77 88 82 74 91 94 71 86 59 71 72 82 77 80 84 78 93 90 90 100 96 98 89 83 86 94 84 75 89 89 92 70
99 99 98 93 93 98 98 96 67 89 100 100 81 73 64 89 87 79 86 91 84 78 75 72 77 88 77 69 81 86 86 83 89 90 92 96 100 78 80 69 64 82 83 53 66 60 78
99 92 94 98 98 95 83 84 60 98 100 98 70 88 94 88 80 81 83 81 79 66 69 68 83 78 85 85 86 84 90 71 71 74 67 73 98 84 70 62 56 63 58 67 83 71 65
98 94 98 99 98 98 98 94 74 100 100 91 71 86 96 84 77 81 87 85 76 56 57 61 87 82 64 81 79 88 86 66 64 63 52 65 72 80 69 80 73 69 70 67 65 82 74
96 96 93 94 94 99 100 83 99 100 99 86 82 97 100 88 94 88 87 74 66 62 59 58 58 60 49 61 71 76 85 70 58 50 62 72 79 97 84 72 68 70 70 65 83 69 84
94 94 90 91 98 100 100 97 100 100 89 72 98 98 100 94 98 92 73 85 66 67 66 66 62 53 56 58 69 73 73 63 53 55 60 65 83 96 88 70 66 76 68 66 69 77 82
94 96 94 89 100 100 99 99 100 98 88 60 82 98 100 100 100 85 95 82 74 58 61 54 51 49 54 63 57 74 76 69 60 61 55 57 77 73 83 70 76 85 74 71 73 90 74
93 93 90 96 99 99 99 97 99 98 83 57 78 96 90 95 95 86 86 75 78 73 55 49 53 53 55 67 64 79 75 71 65 60 57 66 85 78 62 69 73 72 69 77 83 72 79
95 92 96 92 98 99 100 97 99 99 82 61 79 87 88 87 78 84 86 85 76 66 62 60 60 56 62 68 67 73 75 73 68 64 61 70 94 71 67 61 66 71 66 71 72 67 71
87 95 92 89 100 100 100 100 100 95 84 69 65 73 58 86 95 89 93 77 69 72 72 62 56 75 78 78 67 62 55 54 64 70 72 74 84 89 89 70 66 73 65 70 68 66 62
87 91 94 98 100 99 98 98 100 92 94 66 54 63 54 87 89 77 72 66 73 66 81 79 66 73 76 64 60 54 50 53 57 61 62 80 90 93 96 78 93 57 44 51 66 60 59
91 93 86 98 99 100 94 100 99 92 87 52 48 43 43 80 68 68 74 84 80 78 83 80 74 74 66 62 72 73 77 64 63 66 64 76 94 92 99 95 71 58 45 46 46 61 63
94 86 67 86 99 97 92 100 100 92 76 51 46 41 43 64 68 67 75 75 87 91 84 78 85 80 74 81 75 82 94 78 84 72 67 74 81 80 98 96 87 54 48 44 40 71 64
93 54 86 91 98 98 100 100 97 88 74 54 51 45 43 62 74 65 73 70 71 81 91 77 81 75 73 87 92 88 78 69 91 89 85 81 81 96 96 91 78 55 46 43 55 57 60
55 69 93 89 100 96 100 100 91 86 64 60 48 45 39 70 86 66 59 57 61 68 88 77 76 76 85 81 82 86 87 74 72 73 82 84 88 93 89 93 90 49 46 51 53 63 62
54 100 97 95 100 98 100 99 87 77 61 58 49 51 39 51 89 76 71 65 63 64 76 84 79 88 80 93 91 91 83 79 69 85 63 71 68 77 78 77 52 51 52 56 53 61 64

GFSGBSN_850_rhum_087.txt.gz
RH
98 98 99 100 96 95 93 92 89 94 97 100 100 87 56 49 47 60 51 44 54 76 95 83 66 80 63 83 69 53 61 78 81 82 95 94 88 72 87 86 78 86 60 88 80 88 85
82 81 76 82 99 100 99 97 94 94 95 100 100 91 60 49 48 50 44 30 52 86 96 81 67 79 77 93 58 63 68 77 88 96 89 93 89 80 84 84 78 78 65 83 72 90 89
61 69 61 48 65 88 99 99 100 93 90 99 100 97 72 52 51 44 42 34 59 97 72 81 69 81 99 78 63 65 69 76 95 99 89 89 86 84 91 75 72 65 74 82 83 88 88
77 73 95 98 91 72 82 94 98 100 99 95 100 100 81 54 48 52 39 48 47 49 57 56 63 82 87 68 65 65 55 76 94 85 81 78 82 89 98 73 73 80 85 98 88 89 89
92 95 92 95 98 91 67 66 76 98 99 100 100 100 91 55 50 51 39 55 39 46 58 68 76 83 83 68 67 58 65 69 90 96 87 91 83 96 86 87 85 77 98 97 93 81 87
95 96 96 94 85 87 87 74 27 50 100 100 97 100 95 62 50 47 53 46 42 46 70 79 82 94 75 70 64 62 63 68 83 86 76 92 99 97 90 90 92 97 96 95 98 95 89
96 95 96 95 92 89 58 67 68 17 85 98 100 100 99 66 50 41 70 59 75 81 75 68 70 76 70 61 64 56 64 64 75 84 97 86 95 100 91 86 72 65 88 92 90 87 85
83 53 55 82 94 91 92 85 26 18 16 94 100 100 100 67 52 56 68 59 63 67 62 71 73 78 76 70 67 54 66 66 72 95 85 83 94 90 83 80 79 76 79 82 80 81 78
64 64 53 42 55 90 97 90 72 22 15 71 100 100 100 72 56 68 62 62 64 51 74 77 80 76 73 74 74 61 70 68 76 86 82 94 92 85 92 81 82 82 83 81 82 84 80
58 54 55 47 37 34 42 99 94 37 32 28 100 100 100 72 74 78 70 68 59 49 91 74 86 74 78 76 72 66 75 77 72 86 83 92 91 90 91 95 85 90 71 74 86 88 100
98 94 76 43 39 31 31 45 95 72 43 31 89 100 99 75 83 79 71 69 45 69 93 63 84 76 82 76 67 62 75 73 80 83 81 92 91 86 83 94 85 90 76 78 76 85 91
96 97 93 98 97 79 32 31 71 81 44 46 84 100 100 86 84 80 83 55 63 85 95 92 86 85 84 84 85 82 79 73 77 80 78 85 76 76 74 73 78 82 83 83 90 96 98
94 93 97 99 99 92 90 55 72 84 50 69 98 100 98 81 80 80 75 62 90 97 71 82 91 90 77 96 91 85 83 84 91 88 99 88 86 80 83 84 83 89 78 99 98 98 87
95 87 96 95 98 94 93 92 97 97 74 87 94 100 98 93 86 77 67 79 96 69 90 62 75 80 82 91 82 85 84 95 89 87 94 94 95 97 82 82 93 91 69 85 93 95 77
98 98 100 90 94 100 89 80 99 99 66 87 98 100 97 100 93 73 72 94 80 78 73 79 75 85 84 75 79 83 88 84 81 93 85 96 99 79 90 75 83 86 86 56 69 63 80
97 100 83 97 88 94 90 98 90 100 63 98 100 99 100 99 97 81 82 82 78 67 69 69 80 80 88 90 85 82 91 72 75 82 73 81 96 81 78 68 66 69 58 69 83 74 61
99 99 91 78 83 81 87 94 93 92 90 99 100 99 98 100 97 88 96 85 74 64 62 68 79 86 78 87 82 83 82 70 66 70 69 69 74 88 68 82 75 71 67 70 66 83 74
100 99 97 86 89 89 95 97 98 98 92 100 100 100 98 95 94 92 96 73 69 66 63 61 70 75 67 77 76 84 86 81 60 54 68 71 83 96 82 72 71 72 68 65 80 72 87
100 98 92 86 82 87 92 100 99 100 89 100 100 100 100 98 98 99 70 81 77 70 67 68 65 60 57 65 86 73 77 66 56 58 68 64 83 94 80 66 66 75 71 70 72 77 84
99 98 95 90 85 94 99 100 100 95 100 97 98 99 100 100 96 79 93 92 74 62 66 62 58 52 61 67 66 81 79 71 63 59 59 59 78 72 83 64 74 86 76 74 74 88 75
89 90 91 93 92 94 100 100 99 86 98 94 94 97 90 97 93 91 87 80 62 76 59 55 55 56 64 74 75 85 79 74 67 61 64 63 84 81 67 75 74 74 70 80 84 70 78
90 88 85 91 91 99 99 100 99 100 98 95 95 94 90 84 82 81 88 91 72 69 64 63 63 58 56 69 66 82 81 75 69 64 64 72 92 71 72 68 71 70 65 70 75 72 73
88 85 92 92 96 97 98 98 100 98 99 98 88 84 68 79 82 79 84 89 76 76 77 60 61 73 71 71 62 61 58 62 64 70 73 74 86 89 88 76 66 71 64 68 69 69 66
80 98 89 97 99 99 100 87 99 99 100 88 83 67 73 97 85 79 84 86 77 68 83 78 66 69 73 62 58 52 53 62 62 74 66 79 89 91 96 77 90 57 47 53 64 62 62
86 94 98 98 98 100 100 82 99 100 100 85 75 51 57 96 83 83 80 89 84 82 86 80 76 75 62 59 72 75 80 64 68 73 73 79 90 89 98 95 70 58 48 49 57 62 65
74 94 98 75 98 100 90 98 100 99 96 77 55 46 50 71 82 78 84 77 90 91 86 83 90 78 69 82 74 87 92 76 84 74 77 81 77 76 90 98 85 55 50 46 41 65 64
55 46 56 92 100 99 97 98 100 99 91 63 54 45 41 73 83 73 82 80 76 82 93 82 82 76 69 86 91 88 82 73 91 90 77 90 90 93 90 94 77 58 49 44 57 54 62
39 51 98 95 97 92 100 100 100 97 75 67 56 44 39 76 91 74 62 65 75 72 89 79 76 74 81 82 80 88 84 83 81 76 82 82 91 96 92 96 87 52 46 49 51 64 64
30 88 100 85 88 84 100 100 99 96 66 66 52 44 45 54 88 81 76 72 68 66 73 88 78 83 73 91 90 89 84 82 77 82 70 76 72 80 80 76 57 56 54 59 62 64 66

GFSGBSN_850_rhum_090.txt.gz
RH
99 99 94 77 84 88 86 97 99 100 100 95 99 98 100 99 75 57 49 87 98 100 85 92 81 72 80 69 55 52 58 64 76 78 86 87 100 90 75 78 75 81 74 66 65 62 85
96 99 94 95 96 95 97 86 95 100 100 100 98 94 100 100 81 65 53 60 78 100 96 88 80 80 86 93 55 59 67 72 71 88 100 94 94 78 74 69 92 71 70 66 72 69 71
96 94 95 94 93 96 100 100 93 92 100 100 92 100 95 100 90 68 56 62 48 100 99 66 78 84 86 71 62 63 70 71 84 100 100 96 86 91 66 82 69 66 83 72 76 77 89
97 97 97 98 97 94 93 92 91 48 68 89 100 100 100 100 96 70 57 48 55 97 85 62 82 86 80 62 66 66 72 79 89 77 87 83 88 91 96 95 92 88 83 94 78 76 86
98 98 96 98 99 98 93 93 90 42 18 35 87 100 100 100 98 70 60 55 68 86 78 87 84 89 85 63 65 62 70 69 83 86 82 82 92 89 92 96 92 89 89 91 85 79 94
97 98 97 99 100 99 98 93 94 88 21 10 22 99 100 100 99 79 57 70 59 62 70 88 92 96 68 65 63 66 64 67 80 81 78 83 95 97 98 94 96 96 94 95 92 87 84
99 99 99 98 98 96 99 99 96 88 37 15 14 87 100 100 99 70 57 68 84 89 84 72 68 74 72 68 62 60 64 61 74 86 97 96 100 100 88 79 72 89 86 96 91 84 90
99 99 99 100 98 99 98 98 99 96 79 24 20 53 99 100 98 80 67 76 73 71 65 70 73 78 76 70 79 59 63 63 71 93 84 86 98 94 88 88 80 79 92 97 89 88 87
100 99 98 98 97 98 100 98 98 99 94 44 21 33 98 100 97 74 74 67 70 59 67 77 76 78 70 70 74 68 70 68 78 85 87 88 88 81 90 84 83 80 78 86 84 86 84
84 75 70 61 69 86 96 98 99 96 99 64 31 31 99 100 98 77 73 71 73 60 90 76 88 78 75 77 69 71 75 74 67 84 87 90 84 84 96 85 90 87 77 70 86 85 93
95 94 94 91 90 80 68 73 98 95 95 77 41 35 96 100 92 94 82 72 66 78 77 64 86 78 83 80 63 62 72 75 80 79 79 93 88 82 96 97 83 91 78 81 78 91 92
93 99 99 96 99 96 94 84 86 77 99 81 77 42 91 100 95 93 87 72 70 85 73 90 84 83 87 86 86 77 77 73 78 84 80 89 72 79 85 88 86 80 84 88 96 92 96
95 96 99 97 99 94 91 79 89 93 76 75 88 75 91 100 96 92 93 68 89 89 65 90 92 89 82 82 86 83 83 80 89 95 99 86 85 82 83 89 80 78 98 99 98 98 92
96 96 90 94 100 100 83 80 81 94 79 81 70 76 74 100 95 98 98 82 92 63 89 64 83 88 91 82 84 85 83 88 84 91 83 92 83 93 79 85 89 90 77 95 94 96 93
100 97 92 99 100 91 72 71 75 81 93 87 86 78 97 100 98 100 90 99 74 78 76 86 76 85 87 86 81 82 90 85 76 90 86 96 97 83 83 80 87 76 82 59 70 65 84
98 98 98 100 100 91 69 69 78 91 92 94 97 98 100 97 99 100 97 83 73 63 73 67 75 78 94 90 84 84 86 73 77 80 78 79 94 95 82 79 71 73 58 70 81 80 65
96 99 90 100 91 82 78 80 89 96 99 99 98 99 98 97 100 99 98 89 73 64 67 65 75 89 80 89 83 78 80 71 71 76 77 70 78 92 70 87 79 73 70 70 72 82 73
98 99 88 100 87 78 82 80 80 86 98 98 100 100 100 98 100 98 97 74 65 71 69 65 69 71 80 83 88 91 84 78 63 62 76 66 83 99 88 76 74 76 72 65 79 72 87
100 98 96 96 86 83 85 86 88 93 99 99 98 98 100 100 99 98 76 76 76 74 71 70 70 66 56 72 82 78 78 68 61 60 76 66 82 93 83 68 65 76 73 72 72 76 84
100 98 96 86 81 85 87 90 97 100 97 100 97 99 100 100 97 88 92 89 90 70 69 65 60 56 65 69 76 84 82 73 64 62 61 58 78 71 87 66 76 85 79 70 74 86 74
92 90 84 86 88 93 83 97 100 100 98 87 99 99 98 98 98 86 86 85 79 79 64 54 58 58 68 77 77 86 82 73 66 62 68 64 86 83 78 80 75 73 72 80 84 69 76
86 80 77 93 92 84 96 98 100 99 89 86 96 97 95 90 80 89 84 88 70 72 71 67 64 60 57 72 69 84 82 74 66 65 69 73 95 71 76 72 69 68 69 74 79 75 73
79 78 93 95 96 95 99 100 100 76 87 97 91 94 81 95 84 83 94 87 64 76 77 60 60 70 67 67 62 62 64 67 65 66 76 76 84 88 87 78 68 68 62 70 71 71 70
79 82 90 63 92 98 100 100 100 99 100 95 83 80 75 92 77 70 86 82 80 67 81 78 65 66 71 60 55 56 62 64 70 83 67 78 87 90 95 76 80 54 50 54 64 60 64
85 87 62 83 100 100 95 83 96 100 97 97 88 68 73 86 75 81 84 90 86 82 86 83 80 77 65 58 73 75 79 64 72 86 84 76 87 90 96 97 66 56 54 51 58 52 64
98 96 58 88 98 100 95 98 100 100 99 94 73 65 65 84 89 86 89 83 90 91 88 92 90 76 66 78 75 84 88 73 85 77 75 78 76 80 71 99 78 52 51 47 42 61 69
64 33 66 91 92 100 100 96 98 99 97 93 57 50 56 81 89 83 86 82 77 83 95 89 82 74 66 83 89 86 82 72 88 88 72 88 86 90 75 75 80 58 50 43 56 55 65
33 75 94 85 93 93 96 100 100 100 93 76 56 44 53 80 94 78 70 74 76 74 88 82 76 73 79 82 78 87 83 84 82 77 80 80 91 97 91 93 88 54 49 49 51 67 65
42 100 90 83 84 81 92 99 99 98 94 64 50 55 60 61 88 84 83 77 73 70 74 84 74 80 71 91 90 90 86 83 81 86 74 82 76 84 81 77 58 61 57 61 64 64 67

GFSGBSN_850_rhum_093.txt.gz
RH
92 94 90 91 92 90 94 99 98 90 77 89 98 91 95 100 98 100 80 58 63 59 88 78 94 86 84 77 51 52 61 66 68 71 76 88 96 96 88 72 66 70 58 59 64 65 67
93 98 96 95 95 97 94 93 94 91 96 90 87 99 98 99 100 99 84 60 63 58 91 92 87 95 98 92 55 60 64 62 68 78 87 93 95 94 86 70 67 76 65 70 68 60 65
96 97 100 100 97 98 98 98 94 93 87 40 42 72 96 98 100 100 92 69 60 51 93 91 73 100 100 68 63 64 67 65 72 90 98 98 95 99 86 70 78 66 89 81 70 65 67
97 96 95 95 96 94 95 98 98 94 90 57 15 20 77 92 100 100 94 71 62 64 84 81 77 100 95 61 64 65 58 69 73 79 86 90 92 99 87 91 91 93 94 92 74 74 89
100 99 91 89 91 93 92 95 97 98 92 82 27 15 48 99 100 100 98 76 55 67 74 75 99 99 88 64 59 56 61 67 73 80 85 87 91 87 85 90 98 90 93 85 92 73 87
96 95 90 87 88 88 89 91 97 99 97 94 37 16 32 100 100 100 96 65 74 66 69 85 100 100 72 62 58 54 64 69 79 83 82 94 91 92 91 98 97 90 80 76 80 86 78
96 88 91 98 95 91 93 90 93 95 95 94 51 21 27 98 100 100 89 77 78 81 78 78 85 89 70 71 61 56 68 73 76 87 95 91 98 100 90 90 86 81 81 83 89 85 83
96 97 98 100 98 97 86 84 84 96 94 92 60 34 22 95 100 98 91 85 90 85 79 63 77 80 78 71 60 56 67 69 71 87 88 94 98 93 91 92 85 84 84 91 92 82 81
99 99 100 96 96 96 91 87 97 98 99 96 68 45 27 95 99 99 86 88 92 82 70 73 78 79 74 72 70 61 72 73 76 84 90 88 81 82 82 83 85 86 83 91 93 86 79
97 93 92 97 97 90 79 97 99 97 96 98 85 48 67 100 100 98 84 97 97 81 90 76 92 79 77 76 65 65 75 82 65 83 86 84 76 84 84 81 89 87 81 70 85 80 86
100 94 91 92 95 100 100 98 96 91 97 99 85 62 75 92 98 92 96 95 98 83 95 72 87 81 78 69 59 58 75 77 80 76 79 97 86 88 93 95 85 83 80 79 82 89 83
92 94 96 99 97 99 99 99 90 99 78 98 83 75 78 90 100 100 96 98 82 93 92 96 89 90 89 84 84 73 76 74 75 84 87 93 73 80 86 84 88 81 84 87 86 88 89
89 94 95 100 99 92 95 99 91 91 76 88 85 80 75 90 97 99 98 91 98 95 70 95 92 91 80 81 89 87 82 75 86 90 98 82 83 80 84 96 86 82 97 98 97 94 90
91 94 92 96 98 98 100 95 85 77 69 75 82 81 67 68 90 100 98 99 97 76 85 69 88 91 94 73 85 86 82 82 81 90 86 90 83 89 84 88 97 97 88 88 91 92 97
89 94 92 98 98 98 91 95 71 71 76 90 88 92 94 78 99 100 94 98 91 86 78 88 80 85 80 90 85 88 88 86 77 88 87 94 99 84 80 86 87 86 82 60 71 69 83
83 84 89 100 99 99 78 78 76 81 95 99 93 89 90 100 100 100 99 93 92 64 72 68 75 78 94 93 79 83 79 72 77 76 79 79 94 97 83 79 72 72 58 68 82 78 75
94 93 96 98 100 100 84 78 75 81 92 98 96 97 99 100 100 99 99 98 82 62 70 64 78 87 82 92 80 81 82 72 73 78 79 73 77 93 75 88 91 74 69 70 70 78 65
99 100 94 98 98 95 82 78 73 84 89 94 98 100 95 100 98 98 99 93 69 74 68 70 70 76 82 85 87 87 84 80 66 65 73 68 84 96 92 76 76 78 75 64 74 71 80
100 97 92 92 91 89 75 84 80 90 98 100 100 95 98 100 98 100 95 91 78 77 74 69 72 63 66 79 90 81 79 70 65 64 73 64 83 92 80 66 63 79 78 71 71 73 82
88 93 72 74 82 76 82 84 91 96 99 100 99 95 100 99 97 84 100 98 79 72 70 66 65 61 66 76 81 87 84 75 65 68 67 60 77 72 79 65 76 84 79 70 71 77 71
87 74 71 83 96 82 82 99 100 100 99 99 99 96 98 99 99 98 91 80 85 82 67 60 60 64 70 81 81 90 83 73 67 64 69 65 85 86 82 79 76 74 77 77 82 65 70
84 86 81 83 84 82 90 99 100 97 90 100 98 97 97 86 99 100 99 81 86 75 75 65 69 66 62 72 68 87 83 74 67 65 71 73 95 72 77 72 70 67 74 79 78 73 69
90 93 88 90 91 99 99 100 100 81 82 89 94 86 68 99 100 99 93 80 69 71 73 64 64 69 68 66 63 66 67 70 67 67 77 76 83 86 86 78 68 67 61 71 74 73 72
74 70 95 98 100 98 99 98 97 84 77 71 80 73 74 100 98 87 82 80 60 67 78 79 63 67 68 64 61 59 63 69 76 85 70 79 84 87 92 72 74 54 53 56 62 60 63
29 29 41 91 100 98 99 88 91 86 91 71 80 66 68 93 84 76 82 88 82 82 86 87 84 75 61 57 73 76 72 68 73 87 87 76 82 90 93 94 60 56 55 54 54 62 70
24 44 98 100 100 96 92 85 84 94 92 82 74 62 68 82 87 81 86 86 84 90 90 94 89 74 64 78 74 82 91 76 86 81 75 76 73 77 86 97 66 53 51 49 44 60 69
29 90 100 100 98 85 99 88 98 94 89 73 49 52 59 84 92 88 87 85 80 84 96 91 79 70 63 79 86 86 83 72 90 90 92 82 80 81 84 87 72 60 51 47 54 52 66
37 96 100 98 99 99 98 100 100 93 89 82 51 43 57 84 90 81 77 80 78 78 87 84 73 68 76 78 77 85 82 86 82 76 77 72 92 96 89 93 82 55 53 52 49 62 65
58 92 94 100 100 100 98 98 96 88 82 72 50 59 67 66 88 87 87 83 78 74 78 83 72 77 70 90 90 90 86 86 83 88 77 81 74 83 77 70 57 57 55 53 55 62 66

GFSGBSN_850_rhum_096.txt.gz
RH
96 98 97 95 97 99 99 98 97 93 97 94 100 100 99 99 91 100 100 99 72 61 80 65 76 95 85 81 74 51 56 59 60 68 81 83 84 86 83 63 53 50 42 37 40 39 43
98 96 93 87 87 89 94 99 98 98 97 94 95 83 60 85 94 96 100 100 82 62 61 69 82 91 93 86 58 56 62 61 63 77 86 86 91 80 79 78 62 39 40 40 39 39 45
98 96 97 98 89 87 88 85 87 92 98 95 93 73 21 38 80 99 100 99 98 60 60 77 93 85 98 84 62 65 67 60 70 86 90 93 98 98 99 71 67 56 54 53 51 46 54
98 99 99 98 86 84 80 82 87 80 89 98 94 58 21 25 96 98 100 100 86 68 74 87 77 83 94 62 61 66 66 61 70 81 79 94 98 99 98 69 56 79 81 83 50 47 51
98 97 93 88 82 80 83 78 85 86 81 87 80 50 24 22 85 100 99 99 80 73 93 83 79 98 88 69 64 58 53 74 87 83 85 94 93 88 76 66 63 62 98 99 73 50 62
89 95 90 85 77 78 79 82 78 82 84 85 72 58 34 22 83 100 100 98 78 92 84 80 96 93 73 68 61 58 59 69 84 89 86 96 96 80 74 73 68 88 71 56 61 66 64
98 92 92 87 90 87 82 82 83 82 80 88 72 65 40 23 79 100 100 89 86 96 73 71 79 82 74 71 65 57 68 75 84 86 91 81 96 95 69 61 57 88 76 67 83 66 68
96 90 98 97 88 85 85 84 84 88 85 88 90 87 45 34 80 96 100 85 90 88 79 72 84 87 74 77 70 62 70 71 66 72 72 89 93 68 84 78 82 85 68 73 88 81 70
90 92 100 90 84 81 82 87 99 98 91 87 92 93 50 85 100 100 98 93 93 87 72 71 72 82 83 75 67 60 79 72 60 75 71 75 63 72 77 78 89 69 50 75 82 74 65
89 94 98 89 88 86 96 87 88 89 87 89 98 92 50 87 100 99 95 93 97 82 86 79 88 86 78 77 63 65 74 73 60 71 65 71 62 77 74 69 76 62 51 58 83 74 70
88 84 98 93 92 96 91 97 92 97 91 88 96 94 58 88 89 99 94 94 98 82 93 76 87 85 85 70 56 60 73 82 59 64 73 74 77 96 82 85 87 65 60 62 65 67 57
81 94 98 97 99 98 97 94 99 92 90 99 91 95 66 77 91 98 96 99 82 97 93 98 86 80 78 76 75 68 73 74 74 74 92 81 70 80 79 82 91 76 64 65 69 65 70
91 96 98 99 99 96 97 99 97 86 81 96 91 76 73 65 91 97 98 96 98 90 68 97 81 76 76 77 72 67 66 62 70 96 95 72 92 70 84 95 89 77 64 83 76 83 84
60 97 100 96 100 99 99 99 92 81 74 86 80 77 80 86 79 99 99 99 94 73 80 74 76 76 82 59 68 68 63 55 65 72 70 79 87 95 76 90 96 89 76 72 66 67 79
87 97 98 94 100 98 99 96 73 68 73 81 90 87 86 73 63 94 98 95 90 88 77 78 75 79 82 68 64 67 63 64 61 76 77 76 96 86 83 84 89 80 68 50 60 55 58
87 98 100 95 94 100 86 83 75 84 88 94 83 78 79 80 70 99 98 81 92 72 67 64 62 62 68 64 65 64 63 60 70 64 65 70 96 89 84 67 66 66 51 59 62 65 71
92 100 98 68 85 93 88 79 78 82 92 88 87 98 83 99 98 98 97 92 96 74 67 58 60 68 61 69 61 64 68 67 74 69 67 62 70 90 77 86 82 60 54 52 49 53 46
99 90 81 68 82 87 77 82 81 82 89 85 98 94 98 99 99 98 92 96 92 69 66 65 59 61 57 66 62 66 66 76 69 61 66 60 63 92 80 61 64 65 59 46 50 54 57
95 96 74 77 83 80 80 88 81 92 89 89 98 97 99 97 100 100 99 98 90 71 66 64 65 57 58 65 69 68 69 69 66 59 62 53 66 78 68 57 54 62 57 52 49 54 72
86 85 96 92 82 80 85 84 86 98 96 94 97 88 100 100 97 77 99 99 89 70 68 63 60 53 57 68 65 74 68 67 67 65 67 51 59 64 63 68 69 73 64 55 56 65 44
98 96 97 87 98 99 100 99 100 99 99 98 98 90 98 100 97 90 93 99 72 76 67 60 58 55 56 69 68 73 68 62 58 62 58 50 88 83 64 61 64 63 65 58 74 54 53
97 96 82 91 100 100 100 100 95 100 100 98 96 96 94 96 98 97 99 93 69 73 71 64 61 59 53 55 54 68 63 59 56 53 57 56 81 67 62 54 54 64 62 64 60 55 54
95 54 54 95 99 100 97 98 83 74 98 98 88 88 81 99 100 94 78 66 61 70 70 66 56 54 57 61 60 61 63 59 55 53 58 58 68 72 74 61 53 51 54 58 61 60 53
27 25 91 99 99 87 87 95 98 92 96 77 75 74 76 98 90 70 67 63 67 68 69 72 66 54 71 66 62 58 59 60 59 62 58 58 63 68 73 58 63 50 48 50 51 55 55
20 67 94 98 89 80 82 84 89 83 78 71 72 68 71 89 89 79 72 65 77 79 78 82 88 77 63 60 57 60 60 58 62 66 60 53 55 68 68 63 53 51 52 50 48 52 59
28 92 97 75 82 81 81 77 75 77 80 72 67 60 60 65 74 86 72 81 77 79 78 89 84 70 64 56 54 70 66 65 70 72 62 54 48 52 69 68 56 46 44 47 42 43 56
43 94 99 84 89 77 80 84 80 76 79 63 55 56 58 78 86 79 74 74 78 76 78 80 74 66 58 56 61 62 62 62 69 70 68 60 57 64 59 64 48 42 47 44 47 43 61
58 97 100 97 89 83 90 90 79 82 76 68 44 49 58 83 88 82 78 79 77 80 64 78 68 61 63 66 60 60 56 61 62 61 60 56 61 63 62 67 63 49 52 44 40 65 62
72 92 94 85 100 85 99 89 83 78 81 74 51 60 64 66 85 82 75 74 74 75 82 77 74 74 67 67 62 63 61 66 61 56 64 64 51 52 54 46 48 54 49 46 54 60 67

GFSGBSN_850_rhum_099.txt.gz
RH
98 98 98 99 96 96 88 89 86 79 75 85 97 93 92 94 96 100 99 100 99 99 73 68 51 88 90 74 56 58 48 60 65 72 75 70 73 70 69 54 47 42 35 34 33 32 32
96 97 96 98 99 98 88 85 80 76 80 81 69 90 93 45 29 80 99 100 100 99 82 58 85 93 93 70 63 56 66 58 67 71 71 73 77 77 78 68 63 50 44 37 35 34 32
98 98 95 96 94 91 78 80 79 80 85 78 74 67 48 33 19 51 94 100 100 98 77 71 90 96 94 67 64 66 56 67 71 76 76 76 84 89 89 72 60 59 54 42 39 36 34
98 92 89 99 93 82 75 74 75 79 83 82 69 67 54 35 21 80 90 100 100 97 77 85 87 100 69 74 74 74 71 70 70 83 91 92 95 94 98 70 56 56 52 65 38 35 40
99 93 94 86 97 87 86 79 76 77 79 85 71 65 62 41 31 96 99 100 100 88 86 84 93 94 68 75 71 67 65 59 69 86 94 88 96 85 88 95 68 47 66 68 71 45 40
96 88 85 87 94 89 84 82 86 83 79 81 75 70 69 49 32 82 100 100 98 94 97 99 99 89 76 65 66 64 63 72 73 86 84 94 97 91 69 79 65 57 66 57 92 51 43
98 98 98 92 87 88 87 92 77 77 81 76 81 80 77 64 35 82 100 97 99 96 98 76 78 67 64 74 66 68 66 72 74 72 82 75 95 94 68 60 51 51 62 70 85 84 48
96 95 96 92 92 93 84 89 83 84 81 83 85 86 80 58 57 63 100 96 87 91 92 83 70 74 82 77 59 62 71 67 57 69 69 96 96 59 67 74 64 61 64 64 66 66 55
97 98 100 94 96 93 98 94 94 84 80 85 84 90 84 58 94 100 100 96 88 88 85 67 73 80 74 79 55 50 68 56 50 53 64 86 61 52 78 79 76 64 66 58 83 86 64
99 99 98 73 96 98 83 88 89 87 94 99 97 97 86 55 84 97 97 95 96 88 99 77 74 75 83 73 59 56 71 62 48 57 53 54 46 62 64 67 62 88 42 57 87 98 92
100 100 57 97 97 98 98 93 97 88 99 98 93 96 88 60 99 98 96 94 98 85 95 73 82 86 80 63 52 57 75 70 56 51 61 65 61 93 86 94 86 67 44 69 68 64 89
98 52 87 96 99 98 98 99 96 100 100 83 99 97 72 74 65 90 96 96 88 99 95 97 79 74 70 63 50 57 61 73 63 62 68 68 57 75 73 72 77 71 60 56 60 70 95
90 56 92 91 87 91 90 100 98 83 94 98 98 95 60 97 96 95 93 98 100 96 63 91 76 66 62 66 64 50 53 61 65 97 86 57 60 64 80 95 81 81 60 92 93 88 94
52 74 82 78 68 91 97 98 92 80 74 84 85 73 60 96 92 99 99 99 99 66 87 71 60 60 62 53 60 54 51 55 50 58 65 72 90 85 77 93 98 81 86 96 66 81 91
50 94 74 82 88 83 83 90 76 72 69 72 78 74 92 89 96 93 97 98 100 90 70 68 61 66 59 50 52 49 47 55 53 58 90 70 92 73 89 81 84 62 70 45 52 42 53
96 87 76 62 82 72 76 77 73 76 84 77 82 89 94 84 98 93 97 88 100 76 65 54 68 57 61 49 52 56 54 51 60 57 55 91 100 88 84 89 77 80 49 70 63 61 63
90 79 82 67 76 72 76 81 74 78 77 77 98 80 89 84 80 98 90 100 98 70 67 59 56 51 40 45 58 48 52 62 67 64 68 84 97 87 79 70 71 59 50 43 41 47 41
92 85 84 84 74 74 79 77 82 81 76 76 93 89 84 97 96 97 95 91 98 71 59 58 53 48 42 46 50 50 56 69 70 58 86 65 68 98 72 52 53 57 47 40 46 45 42
88 97 82 82 85 95 96 88 83 77 80 86 99 100 100 98 96 94 96 96 88 65 61 61 60 50 45 50 57 53 59 61 58 54 58 47 57 86 66 52 47 53 44 38 41 53 63
90 97 95 89 99 98 100 98 98 88 79 85 92 100 98 99 97 68 97 100 80 67 62 63 53 44 48 52 50 59 56 60 61 55 62 50 56 68 72 72 64 62 46 40 54 61 38
96 59 65 98 98 100 100 100 99 86 69 81 93 91 97 99 77 73 93 92 62 71 64 60 51 46 46 54 50 58 54 52 50 53 48 44 82 85 52 50 54 54 50 43 59 40 53
35 25 86 99 100 99 86 88 90 100 86 95 88 79 91 79 82 96 92 69 56 64 65 63 54 46 42 49 51 52 51 47 48 44 46 45 78 62 54 46 49 58 51 47 45 39 37
20 64 92 98 94 84 84 66 73 82 78 96 99 83 71 99 96 75 64 56 54 58 61 58 52 43 49 60 52 51 49 47 46 45 46 48 60 68 69 51 47 49 51 50 52 47 38
26 91 93 93 79 76 70 47 57 55 70 89 91 76 64 94 85 62 55 56 59 61 64 59 61 48 65 59 51 48 48 47 47 47 46 47 52 59 67 56 65 51 42 45 46 47 46
58 93 98 87 82 79 67 58 60 61 62 83 70 75 63 79 70 64 57 55 64 63 67 72 78 71 63 56 49 52 51 52 53 53 49 45 46 56 62 49 44 44 44 44 46 46 42
72 92 91 82 82 79 75 71 79 82 78 78 69 65 68 60 67 68 62 61 54 61 62 73 78 73 66 48 47 58 53 56 57 60 50 46 42 46 59 64 54 40 40 39 36 41 43
74 88 90 78 79 75 77 83 84 80 76 73 69 58 68 59 77 76 56 52 70 64 60 65 64 62 60 48 53 54 49 53 54 55 57 53 50 57 50 56 40 37 40 37 44 49 47
64 82 82 81 79 80 76 78 88 76 70 57 47 50 68 69 84 73 76 74 69 68 54 67 64 59 55 58 54 48 44 46 50 48 50 48 52 55 49 58 58 39 43 38 42 49 52
51 80 79 87 81 80 81 80 84 81 79 79 54 60 61 72 78 70 74 74 69 69 78 74 65 62 59 58 51 48 47 48 45 42 52 56 42 44 44 42 40 42 42 46 47 52 55

GFSGBSN_850_rhum_105.txt.gz
RH
82 88 91 92 92 92 97 89 88 88 82 81 79 78 83 73 87 91 79 33 77 100 100 100 92 67 78 89 67 48 34 80 71 67 74 70 67 65 64 60 62 68 56 50 49 47 44
92 96 97 94 98 97 95 95 93 87 83 80 83 79 76 74 80 83 44 24 39 96 99 99 88 59 75 86 61 59 51 54 62 62 71 66 64 66 67 71 78 65 65 62 56 55 54
97 91 92 93 97 98 95 87 97 92 92 83 82 97 83 84 81 67 46 21 23 73 100 97 98 74 84 72 59 59 58 56 60 67 68 63 68 68 69 82 72 68 84 71 61 57 61
93 93 91 95 94 99 98 93 77 58 99 94 88 92 93 88 82 66 36 42 39 93 97 92 98 90 86 83 62 59 71 65 65 72 76 76 75 77 78 81 73 77 75 95 57 54 56
89 89 97 100 100 97 98 82 79 96 88 87 82 99 98 96 85 69 36 98 91 100 100 91 94 93 81 79 72 65 57 66 68 74 83 81 88 77 84 85 87 78 93 90 76 54 56
87 100 94 94 92 80 81 97 100 98 87 78 80 98 97 96 87 73 52 66 99 99 100 96 86 88 88 82 70 68 65 63 66 80 92 82 80 76 86 93 96 84 90 76 78 62 59
99 96 83 59 77 100 100 98 99 95 99 83 98 99 96 86 80 69 82 95 100 99 100 93 92 76 76 69 62 60 58 60 69 70 79 88 94 92 85 89 80 83 88 88 75 63 72
94 78 84 94 91 99 99 97 94 87 95 91 82 87 86 86 79 65 78 91 95 94 96 94 95 82 70 67 69 62 60 69 73 66 68 95 96 76 74 74 78 74 90 92 74 62 90
89 51 94 95 99 99 95 78 86 89 95 95 84 83 82 88 75 94 82 95 98 97 92 100 95 95 80 65 60 63 62 64 64 74 69 89 70 62 72 81 90 90 89 84 81 70 84
84 85 94 93 85 80 84 70 71 82 92 92 82 92 97 77 74 88 78 93 98 93 99 97 87 90 88 71 68 60 52 64 57 62 63 68 57 68 70 72 82 95 64 64 86 98 98
37 88 74 86 64 68 82 62 70 84 90 90 87 95 88 79 93 92 93 99 97 89 97 93 86 87 75 73 56 61 62 65 70 63 59 63 75 88 90 78 76 79 76 87 86 96 100
35 83 81 65 60 74 66 68 62 86 90 94 89 87 80 65 69 89 96 98 90 98 97 99 89 88 77 70 54 65 66 64 62 71 63 67 58 71 77 75 76 73 84 85 82 90 98
42 81 84 70 61 84 63 72 63 78 91 93 83 93 90 85 86 91 90 90 93 97 96 92 87 77 74 70 58 64 69 85 87 89 80 70 75 66 74 89 81 90 95 96 98 98 98
44 86 84 66 63 84 64 67 69 69 68 76 71 74 68 81 90 75 74 90 94 96 91 71 68 88 88 70 65 56 61 69 69 78 95 97 90 78 83 87 97 86 98 99 96 97 99
48 94 87 85 71 73 71 64 68 72 70 64 82 81 79 78 73 75 74 97 99 100 85 66 67 69 64 57 58 62 58 67 64 56 97 91 96 79 80 78 84 88 100 94 99 100 98
43 95 90 96 87 88 74 68 74 71 74 79 72 75 92 85 67 72 89 100 100 76 71 78 78 52 65 54 54 68 61 64 70 74 73 88 97 87 82 84 86 93 80 98 98 97 96
34 84 73 81 85 92 94 72 73 74 77 79 80 76 90 72 63 74 98 100 95 74 67 83 75 55 48 54 74 89 86 75 68 87 82 94 100 95 90 93 78 88 78 68 61 72 84
18 24 72 76 87 88 97 90 70 72 83 75 75 95 77 76 82 92 95 95 85 78 58 60 58 54 44 50 64 85 85 83 80 80 96 85 92 99 74 56 57 64 70 53 83 65 84
16 48 87 97 97 89 84 84 98 71 87 85 83 92 76 81 97 93 82 77 82 68 63 67 60 49 46 62 67 64 72 66 69 66 66 63 82 94 77 62 59 71 55 52 64 74 83
16 84 89 92 91 88 84 88 90 66 84 92 84 93 71 84 89 83 83 84 72 66 66 61 62 45 49 55 55 60 65 61 58 55 58 62 70 80 94 79 73 74 61 57 66 86 82
15 88 90 96 98 92 87 88 96 66 80 92 88 88 82 95 87 83 82 81 72 76 62 57 53 61 60 72 61 62 54 54 56 49 48 60 79 82 57 57 59 64 67 64 65 63 73
17 82 88 82 70 76 73 71 84 70 67 89 81 80 76 74 77 76 78 66 72 68 68 70 73 65 70 76 71 72 61 63 64 56 51 60 78 67 62 56 58 63 61 64 59 56 61
16 79 86 83 63 55 49 55 72 78 67 85 79 74 67 80 86 84 67 64 70 66 61 65 70 65 74 71 64 58 49 50 51 56 64 60 78 84 79 59 62 72 61 61 59 61 55
14 76 82 80 57 49 36 42 56 70 95 88 90 83 72 84 85 73 57 62 69 69 71 70 64 66 61 56 52 49 47 50 53 58 55 65 66 84 88 68 81 58 45 48 57 54 57
13 75 76 69 68 47 39 50 52 82 90 82 75 69 76 84 75 69 59 66 63 67 71 71 66 61 56 59 66 64 67 59 59 57 56 59 69 73 85 88 53 55 51 52 52 52 50
14 67 76 66 78 61 52 39 49 60 61 68 70 71 68 73 80 69 62 62 70 73 75 70 60 56 55 71 66 65 77 60 64 60 53 55 58 73 79 81 66 47 45 39 38 57 49
17 41 74 68 77 69 65 50 62 69 66 64 62 58 67 74 66 68 72 73 65 68 82 69 61 62 60 80 75 77 68 54 69 64 62 68 66 73 77 82 64 44 44 39 47 42 51
18 16 71 72 72 68 77 70 64 64 63 73 74 62 65 72 70 72 67 69 66 71 81 68 68 65 74 76 76 72 65 63 60 54 55 65 73 77 74 75 74 45 44 49 46 52 47
16 11 69 74 72 71 74 77 78 62 59 74 69 66 63 71 74 69 67 69 73 72 76 71 71 73 75 89 80 73 68 68 64 66 56 62 60 63 66 66 47 43 42 39 50 50 54

GFSGBSN_850_rhum_108.txt.gz
RH
96 98 96 95 98 98 98 99 94 92 94 83 80 86 88 85 87 78 82 62 37 52 96 95 99 99 82 86 62 64 89 92 59 56 60 62 65 67 70 68 66 72 64 58 54 55 57
91 92 96 99 93 96 97 96 93 98 86 82 88 93 91 89 89 89 70 62 38 36 96 89 100 99 93 88 60 57 53 70 47 59 72 71 65 63 68 70 72 67 68 68 64 60 58
94 90 99 92 91 88 85 98 90 90 84 95 80 86 85 87 94 93 71 55 38 26 88 99 98 96 96 79 62 62 56 52 56 65 69 66 64 63 67 78 77 67 83 72 72 69 68
96 98 87 85 96 92 83 81 83 83 82 96 97 76 73 97 93 88 64 52 66 18 64 99 94 81 93 74 70 63 64 65 66 70 73 71 71 71 70 73 71 85 78 96 59 61 58
87 89 96 91 96 100 98 92 95 97 98 93 89 84 88 75 98 88 70 80 75 59 90 98 96 88 96 79 74 69 70 64 64 74 76 68 72 71 75 82 84 82 91 93 82 59 61
87 86 86 96 97 98 97 95 90 90 93 81 89 99 99 99 98 80 76 79 100 100 100 99 89 98 97 82 70 65 61 68 70 81 86 74 78 79 78 83 87 76 89 82 81 63 63
89 61 95 94 97 98 99 99 96 98 85 86 90 95 94 99 81 78 87 86 98 97 98 97 90 84 87 83 76 70 64 66 73 80 84 87 91 89 86 79 80 85 94 96 77 63 75
55 88 88 88 93 99 100 100 98 99 86 91 82 88 89 89 82 70 85 89 84 96 97 97 87 77 80 65 65 65 61 66 72 80 74 84 92 76 72 76 82 88 91 77 70 67 86
43 82 80 92 91 97 99 94 98 88 92 89 88 76 84 84 85 86 94 94 96 86 97 98 99 85 73 67 67 63 58 69 74 75 72 88 69 64 79 82 90 81 83 84 89 72 81
56 78 82 91 90 88 95 76 90 88 86 85 87 75 79 80 82 86 93 81 85 91 98 99 95 97 86 71 66 59 61 66 62 74 72 77 62 67 73 80 65 90 59 78 80 92 92
76 76 78 86 94 83 82 79 92 91 77 90 81 75 79 83 89 94 99 81 81 86 95 95 96 91 83 76 65 65 59 67 71 62 65 67 68 83 90 83 72 79 72 85 89 93 99
84 76 82 79 74 82 78 75 72 80 82 85 87 82 71 74 86 95 96 91 83 85 96 99 92 89 80 72 61 69 67 68 66 73 73 76 59 71 75 74 77 76 89 88 90 96 99
88 77 84 82 70 58 77 69 71 79 65 68 64 69 72 72 90 86 88 78 89 95 96 99 94 80 74 76 70 69 77 86 86 93 75 75 76 66 72 84 74 84 95 97 96 98 95
81 74 75 81 80 58 62 70 78 83 75 64 67 58 70 87 84 84 82 85 91 86 94 71 80 84 81 73 70 67 66 74 72 78 96 97 86 81 84 82 92 88 94 98 96 97 97
65 84 54 74 80 80 55 63 66 76 82 71 74 51 56 65 77 77 72 94 100 96 90 79 94 74 74 67 62 62 66 69 66 68 93 89 84 76 78 74 83 88 100 96 100 100 99
20 39 62 73 75 84 76 56 60 63 74 69 56 54 54 63 64 68 87 98 99 78 77 74 76 56 68 58 58 71 70 71 84 82 79 93 96 82 78 81 87 92 89 100 99 97 96
15 77 88 74 72 74 87 81 60 67 61 63 60 53 53 57 64 66 98 100 96 74 75 90 73 52 51 66 75 85 92 83 79 86 83 95 100 83 88 90 80 95 100 92 77 87 96
22 86 90 83 76 70 70 81 63 62 64 59 60 87 63 60 81 87 94 93 83 78 65 66 68 48 45 61 82 97 98 84 72 77 92 88 86 97 76 57 60 66 73 65 80 86 85
20 83 89 94 77 66 63 72 72 54 67 61 66 61 64 66 93 95 80 78 80 76 71 70 63 53 47 61 75 78 76 63 69 82 76 82 83 92 67 56 59 74 63 58 66 73 91
17 80 86 84 99 66 54 50 49 58 71 76 72 85 60 72 92 84 84 81 72 63 71 63 66 51 52 65 60 63 66 59 59 61 59 62 73 80 88 76 72 77 70 63 67 87 92
16 75 77 74 94 80 44 48 42 49 65 70 78 86 88 98 85 85 81 81 74 78 65 61 67 74 60 75 65 72 62 60 53 53 55 56 78 80 61 61 59 62 72 66 74 72 71
15 63 70 72 58 68 48 43 40 45 63 80 81 78 82 79 76 84 78 68 74 72 66 71 76 71 73 80 77 76 70 62 63 58 55 65 77 71 62 59 62 60 64 67 68 69 78
14 45 68 64 52 45 50 45 44 39 58 76 83 82 69 81 86 86 72 66 70 69 65 68 70 67 68 68 68 63 62 57 55 57 64 63 78 83 67 67 64 57 60 63 62 61 65
15 29 66 61 47 33 35 50 42 42 60 66 68 82 79 85 88 84 73 70 71 74 72 68 66 60 61 56 52 53 52 53 55 57 59 67 71 85 83 68 66 49 49 49 58 56 56
19 21 66 64 50 32 37 59 41 46 58 69 68 64 73 86 81 71 70 68 64 65 72 73 63 62 57 58 66 65 67 60 55 58 56 63 73 77 85 87 54 50 50 54 52 56 57
28 14 67 70 59 42 45 48 51 47 53 58 63 66 64 73 77 72 74 67 74 76 78 68 60 60 59 73 68 66 74 62 65 63 53 61 67 73 84 80 65 42 47 42 36 60 53
42 14 52 70 66 56 49 62 63 63 59 58 52 53 63 71 66 65 74 78 70 75 86 76 65 63 62 81 77 80 70 57 66 67 60 70 71 76 80 86 68 50 45 39 48 43 54
60 16 25 68 71 67 71 73 73 66 65 65 52 48 52 67 69 66 65 68 70 76 86 70 70 64 74 74 78 77 73 66 66 59 58 65 77 82 80 79 68 47 47 50 43 53 47
64 19 13 62 71 68 73 73 72 66 61 71 67 61 62 67 71 70 67 60 58 67 72 76 78 77 80 90 85 81 71 76 68 66 54 71 63 65 71 69 48 44 40 35 44 46 49

GFSGBSN_850_rhum_111.txt.gz
RH
86 84 81 87 94 88 86 82 72 93 98 96 91 69 76 74 79 83 85 81 86 68 47 95 100 96 90 75 59 74 82 96 66 56 56 59 56 63 70 68 65 71 66 61 59 61 61
86 82 86 96 90 94 95 88 81 88 91 88 92 95 80 69 79 84 84 86 82 61 60 89 100 96 89 79 63 98 93 77 60 59 59 60 61 60 68 71 69 72 73 71 66 64 66
96 95 90 94 94 81 80 84 83 86 84 82 85 92 90 69 80 86 84 93 80 51 42 84 86 100 88 94 79 86 77 72 51 60 71 66 65 63 65 73 75 72 82 77 70 68 75
87 60 94 92 80 96 87 92 98 85 87 94 85 88 85 79 71 93 93 86 56 43 36 74 99 98 95 82 90 76 92 61 67 69 68 71 68 66 68 72 69 85 78 96 55 68 61
60 93 92 84 94 98 94 99 94 91 85 85 88 97 98 98 74 91 93 59 73 32 33 98 92 95 99 94 99 84 61 67 70 73 70 65 69 67 66 79 79 79 92 91 80 62 61
85 96 96 94 94 100 94 98 90 88 83 82 82 96 99 100 99 96 79 88 98 86 99 99 98 91 100 93 89 72 66 61 74 79 76 69 71 73 64 79 86 77 88 84 90 64 63
92 96 92 95 99 100 95 96 94 88 88 83 73 89 98 96 93 89 79 84 98 94 91 97 94 96 96 83 92 88 68 71 78 83 86 86 89 93 84 79 76 82 92 85 78 67 72
92 87 97 92 97 96 78 99 100 90 81 77 68 80 81 88 80 84 75 87 99 97 98 98 95 93 92 87 93 72 67 69 78 90 86 85 89 77 71 76 82 78 85 76 72 66 73
87 85 97 90 99 82 74 95 81 88 90 76 72 78 78 88 88 98 92 87 100 97 98 99 98 94 83 69 68 69 65 70 74 79 75 86 65 64 80 83 92 80 85 70 75 74 71
70 89 91 86 78 64 65 83 87 83 76 75 79 74 77 76 74 77 79 98 98 94 97 100 96 93 72 69 71 61 60 67 67 78 74 78 63 67 69 82 73 88 60 63 66 93 90
75 94 91 66 50 53 58 57 80 85 83 72 58 62 73 76 88 99 84 83 86 86 94 97 95 94 77 76 68 66 58 65 73 65 67 71 65 78 86 83 74 82 74 88 91 97 98
60 88 91 63 47 48 59 54 55 81 86 72 72 69 68 82 94 98 94 82 83 80 97 98 94 85 81 71 68 72 69 66 70 74 75 78 60 69 75 73 77 77 88 89 94 96 96
28 49 98 75 40 46 50 59 48 53 75 85 77 77 64 74 87 90 86 79 86 94 95 98 94 87 73 76 74 72 78 80 85 90 84 77 77 65 72 86 74 88 96 96 90 100 93
21 54 86 93 55 37 39 47 55 52 60 70 57 58 61 69 75 77 81 80 88 89 86 77 83 76 81 72 72 72 69 75 78 77 92 93 79 80 80 80 86 88 89 98 96 100 95
44 82 75 81 66 51 42 38 45 49 48 49 50 50 57 63 63 66 66 95 100 90 87 88 88 74 77 72 68 64 69 70 69 74 92 83 76 72 81 73 79 88 100 95 100 99 98
58 65 86 82 76 50 44 39 39 41 41 40 35 44 61 61 60 60 83 92 95 83 79 73 76 57 69 62 60 68 71 72 83 80 80 94 96 74 76 80 83 90 92 99 100 97 96
42 62 77 83 81 68 43 37 35 36 31 32 29 42 58 53 54 62 95 98 92 75 75 84 73 52 54 72 73 88 96 86 78 85 85 88 96 78 88 95 84 98 100 99 97 91 96
17 69 67 84 92 79 56 39 36 36 29 30 48 84 56 46 68 89 97 90 84 80 70 71 70 46 49 72 97 96 99 86 71 77 88 86 88 98 74 58 63 74 86 74 97 87 88
15 67 66 74 97 89 69 37 35 27 33 36 46 54 54 49 92 97 81 76 78 76 74 71 65 58 50 64 76 87 83 63 70 84 83 81 84 92 62 56 60 72 65 61 72 79 94
17 36 70 66 62 89 70 52 34 34 32 35 51 86 56 62 85 84 92 82 76 64 70 67 69 57 60 70 65 66 67 58 65 76 72 62 76 77 88 76 70 75 72 68 72 89 84
34 16 69 68 63 51 52 55 39 37 34 37 66 88 90 97 86 86 82 80 81 84 66 64 64 77 72 71 70 76 68 64 55 55 64 58 74 80 62 62 62 62 73 72 78 73 68
54 14 62 66 59 44 44 47 37 43 45 37 68 74 82 82 78 82 77 73 80 80 77 74 75 74 76 75 75 76 78 66 64 60 57 68 82 73 55 60 65 57 65 66 71 78 84
63 17 50 61 52 45 37 51 36 45 54 55 67 70 66 85 83 80 79 76 77 77 64 71 76 74 70 70 69 66 67 66 66 62 67 66 79 80 67 67 60 52 56 62 62 61 75
67 24 32 60 46 40 36 48 45 54 54 54 62 68 64 81 84 81 74 71 74 75 83 70 67 66 61 58 57 59 61 60 59 58 64 68 75 86 86 67 52 40 52 50 60 56 57
67 30 23 58 46 29 35 42 58 67 66 57 52 59 65 84 76 73 72 69 66 60 68 73 64 63 63 62 67 65 66 57 54 57 61 67 75 74 84 86 53 45 55 57 59 59 56
71 43 17 63 52 38 42 46 59 63 68 62 60 59 59 70 81 63 71 69 77 77 78 62 59 60 60 71 71 68 70 65 61 60 55 66 71 74 83 77 51 36 46 45 39 63 55
84 63 14 61 64 48 44 50 59 64 61 61 56 51 62 63 64 68 73 72 68 80 88 79 69 63 62 82 80 84 76 60 68 70 63 72 75 77 79 90 68 48 46 38 52 42 48
87 73 21 35 69 60 54 58 58 67 71 67 60 52 53 62 61 62 63 66 75 75 86 67 70 68 79 76 79 81 77 71 75 62 59 63 75 82 82 84 67 49 47 48 43 48 47
88 79 39 14 63 69 69 66 69 70 72 74 70 68 60 61 64 65 63 63 64 60 64 73 65 75 79 93 89 87 74 79 71 74 57 68 66 65 73 70 48 44 46 37 39 46 47

GFSGBSN_850_rhum_114.txt.gz
RH
84 59 93 91 92 96 96 84 95 87 79 81 84 83 79 83 76 65 77 82 89 84 66 61 87 100 100 87 82 88 72 99 80 59 53 52 50 56 67 69 64 68 67 65 62 60 60
67 86 91 98 97 98 94 96 96 100 85 82 86 83 84 76 69 62 72 79 91 86 62 68 98 99 95 88 97 100 94 86 56 56 60 54 55 58 71 73 69 74 75 72 64 64 66
72 96 99 94 99 98 97 99 91 100 88 81 83 75 74 83 69 64 79 88 92 86 51 58 91 95 100 95 98 99 85 72 66 57 61 63 63 58 64 71 72 75 84 78 68 68 69
96 99 99 98 98 96 96 98 90 97 85 82 80 89 94 90 81 68 93 88 82 68 45 47 74 98 100 90 100 84 89 63 70 67 62 67 66 66 69 68 66 84 75 79 52 70 60
95 99 99 99 92 96 98 99 98 97 82 71 80 93 94 89 79 80 89 82 67 58 79 55 94 95 100 97 87 88 78 69 69 70 64 68 67 64 64 73 77 79 91 90 79 60 65
93 99 99 98 99 99 100 97 95 86 80 82 87 86 95 95 92 87 85 97 84 72 95 77 100 89 100 100 96 76 67 66 73 70 71 67 66 73 70 88 83 83 90 81 89 70 66
89 97 98 92 64 95 98 100 98 92 80 75 78 80 87 89 91 84 92 99 90 88 97 99 94 97 99 98 80 71 70 73 79 80 92 82 89 96 81 76 71 74 69 70 64 64 75
85 99 99 83 47 57 66 94 87 75 75 77 81 87 90 78 89 89 89 95 95 96 99 100 100 99 100 97 96 73 73 72 82 90 89 86 91 74 71 75 83 82 84 83 68 64 77
76 91 97 81 47 48 54 63 72 65 65 76 76 78 78 92 98 92 97 97 98 98 98 100 99 98 96 90 89 76 69 73 74 76 82 82 62 68 76 84 95 92 95 84 74 61 70
40 89 99 63 48 42 43 43 55 62 65 61 62 84 74 72 77 96 97 96 97 91 98 100 97 96 84 65 76 67 66 67 71 70 72 75 64 66 73 84 82 97 71 70 63 77 95
59 67 96 78 53 44 39 40 41 44 56 58 65 77 78 69 75 88 84 92 87 86 90 94 96 90 75 68 66 65 62 64 75 68 69 67 66 77 87 81 76 83 72 89 92 96 99
56 58 91 96 57 46 38 36 40 49 44 50 58 64 74 85 80 87 76 84 86 79 96 94 89 86 74 68 75 73 65 63 70 74 75 74 62 68 72 67 74 72 90 87 94 98 99
70 68 60 98 85 63 42 37 36 42 37 41 52 56 60 68 77 83 81 77 84 92 94 90 92 88 72 77 74 71 76 78 78 84 88 79 78 68 68 85 72 88 96 94 88 98 93
67 65 61 80 95 93 73 42 34 31 33 38 48 60 62 64 62 65 71 75 88 88 85 80 84 77 80 72 67 68 74 77 73 78 92 88 81 80 82 79 80 88 96 98 98 98 94
51 62 62 61 82 88 66 49 36 27 25 28 35 53 55 58 59 59 62 94 99 85 82 85 84 75 78 73 69 70 72 74 65 85 87 76 81 72 81 73 77 91 100 94 100 94 98
17 65 68 63 66 77 65 48 33 27 21 23 32 45 48 50 52 53 81 91 96 84 80 75 76 59 70 64 63 72 72 70 81 74 79 82 95 71 78 79 81 90 90 100 100 97 96
15 60 67 57 59 68 61 50 36 25 31 28 34 44 42 42 47 57 96 94 87 77 76 84 73 53 59 79 80 90 92 81 76 82 85 86 96 80 87 94 94 98 100 100 99 97 96
26 32 65 66 52 49 51 41 34 34 33 37 39 81 46 43 66 88 98 89 82 77 73 72 75 54 52 93 96 95 96 86 74 77 87 83 89 96 76 63 66 85 94 90 95 98 88
61 16 63 66 53 41 36 37 37 40 38 33 38 47 50 44 89 95 79 73 76 77 77 74 72 68 53 67 75 86 86 64 70 84 85 80 89 95 58 57 59 70 71 68 74 80 91
66 19 46 66 60 45 35 32 37 38 44 40 43 78 50 61 83 84 90 86 79 67 70 69 75 64 64 71 67 71 73 59 69 77 74 69 78 77 88 76 74 80 71 71 78 91 91
70 45 20 61 59 47 36 36 39 47 46 54 55 89 83 95 82 82 79 75 80 83 70 67 68 80 82 74 73 79 74 68 59 59 69 61 75 82 70 66 65 68 72 74 78 72 69
72 64 16 51 56 45 31 37 39 47 50 55 60 73 76 83 80 72 79 79 83 82 77 78 78 82 74 80 80 84 79 72 67 66 62 70 80 74 64 54 64 60 59 64 73 82 87
63 73 23 36 54 47 32 35 41 46 55 59 58 63 58 84 82 76 78 74 76 78 68 71 76 78 70 68 69 68 70 69 72 73 71 71 79 82 67 68 61 55 52 62 64 64 77
60 72 38 25 49 45 34 33 47 49 54 60 61 64 60 78 83 77 75 71 73 72 78 70 69 69 58 62 62 68 74 74 72 68 68 71 76 87 89 65 60 37 53 52 63 60 69
72 64 58 19 50 40 32 34 51 56 59 57 63 60 61 77 80 79 78 70 68 63 73 73 64 62 64 60 66 65 65 52 57 57 60 71 77 76 85 86 47 43 50 60 63 56 61
76 69 65 18 56 42 39 40 54 59 64 62 60 62 61 67 73 64 71 70 76 74 73 62 61 62 65 70 69 67 65 66 63 62 60 70 73 76 86 74 36 26 43 47 42 67 46
75 74 72 22 51 53 48 46 50 56 66 62 62 55 57 63 57 64 71 74 66 78 82 78 67 68 64 79 80 85 76 63 75 70 60 74 77 81 81 89 68 46 46 41 52 36 37
77 76 85 49 26 65 53 56 55 56 60 65 64 58 56 56 52 57 62 65 73 76 82 66 71 70 80 75 82 83 82 75 77 68 62 68 72 84 86 88 72 48 50 50 44 40 50
91 80 86 83 18 56 68 58 60 65 69 69 66 66 69 67 60 57 58 58 63 64 68 76 75 74 73 92 92 88 84 86 75 75 60 73 65 62 72 66 42 45 41 37 39 41 40

GFSGBSN_850_rhum_117.txt.gz
RH
97 97 99 97 98 97 90 97 96 98 88 79 83 85 77 86 91 75 70 84 88 95 73 71 53 99 85 88 94 74 94 98 73 53 47 43 40 46 65 70 62 63 69 66 61 59 59
99 98 93 92 93 97 95 98 94 94 78 82 73 73 78 80 84 63 54 67 82 92 83 66 66 100 95 89 84 85 100 84 58 52 51 49 45 45 67 74 63 74 76 73 61 62 65
98 93 99 99 97 97 99 97 95 95 85 72 76 81 90 93 83 65 62 74 79 83 84 58 91 99 95 93 92 82 96 55 55 47 47 52 52 50 61 74 72 74 71 69 64 67 67
94 96 98 99 99 99 100 100 95 98 93 86 88 91 80 87 87 77 91 80 77 79 71 50 98 92 95 98 99 96 63 65 63 59 54 63 60 58 64 67 65 77 68 57 49 64 61
93 87 96 98 98 99 100 99 95 64 62 67 84 98 87 75 73 70 76 81 72 63 77 67 84 85 99 100 95 73 55 68 66 62 66 67 58 63 65 74 66 72 71 83 73 61 67
92 85 96 98 100 100 98 100 99 84 70 70 75 87 91 93 80 89 92 75 100 83 90 92 93 89 100 100 90 72 72 62 65 65 64 62 65 78 76 76 49 82 87 76 80 65 64
95 82 97 98 100 96 91 65 54 66 71 68 80 78 82 87 86 91 73 74 70 82 77 80 89 99 100 98 92 81 70 68 70 70 90 79 82 81 72 72 65 76 73 78 67 58 72
79 79 100 99 99 78 54 64 62 53 56 61 69 79 88 82 87 92 84 92 97 95 98 100 100 98 98 97 89 74 72 73 78 96 84 78 84 70 68 74 79 84 91 86 69 64 74
60 78 89 98 99 67 55 47 47 57 63 58 66 72 78 91 97 88 89 97 94 95 98 100 99 99 98 90 88 74 69 74 74 78 81 75 70 71 72 82 88 90 90 85 77 67 62
72 62 76 87 58 51 51 51 53 46 56 61 60 69 76 75 82 96 96 99 96 95 96 100 97 93 89 78 75 72 70 66 70 68 75 73 62 67 78 82 82 90 74 74 77 86 93
65 69 52 78 73 53 47 49 56 44 49 59 63 59 58 72 82 85 86 85 85 84 91 93 90 78 67 67 65 65 66 64 76 70 66 56 68 80 87 79 75 76 71 85 90 96 99
61 76 62 60 81 87 81 49 47 50 44 51 58 54 55 46 53 60 64 71 70 79 96 96 83 83 71 73 78 69 62 62 71 73 74 72 61 70 68 66 74 68 85 86 91 82 98
31 55 66 57 58 70 83 48 47 44 41 46 58 58 53 53 56 64 67 65 84 93 91 84 86 83 72 76 74 72 74 72 73 80 86 75 78 69 67 80 74 89 94 96 85 97 90
16 66 61 59 54 56 56 39 44 41 32 32 50 54 56 60 58 54 56 74 88 82 86 80 84 77 78 68 64 66 72 75 74 79 92 95 76 77 80 79 70 84 87 96 97 92 88
27 40 61 51 52 48 51 46 37 41 26 28 44 52 55 56 56 56 54 91 95 78 84 81 79 71 76 71 67 68 70 74 64 80 83 77 87 70 83 72 71 94 99 85 100 91 96
64 18 63 54 47 40 40 40 38 43 34 35 40 43 46 49 50 51 78 91 96 83 82 75 70 60 69 67 64 74 73 64 72 73 76 84 89 68 76 79 79 91 86 100 99 98 92
62 22 45 61 48 36 35 35 40 36 36 35 36 40 46 42 43 57 96 97 86 78 76 79 74 56 66 90 88 95 87 71 76 83 83 91 96 78 85 90 98 98 100 100 99 99 94
62 40 21 58 54 39 32 34 38 33 31 32 37 75 42 42 64 85 96 86 82 76 75 71 75 61 70 89 84 95 95 80 75 77 87 84 90 98 82 66 73 87 94 92 95 96 92
60 55 18 45 51 46 35 32 37 35 35 32 38 43 46 38 86 94 75 74 76 76 76 72 71 67 58 72 75 84 84 67 74 82 85 80 91 96 62 61 60 73 76 77 73 82 88
59 60 30 23 51 42 34 36 37 40 40 38 41 72 45 53 78 79 83 79 75 69 72 70 74 68 66 72 69 73 74 61 72 77 77 75 82 80 88 70 71 76 69 72 80 95 82
61 62 53 18 49 44 32 34 38 45 43 43 50 84 72 86 80 80 77 76 80 80 70 68 67 80 80 77 70 78 75 72 63 61 75 69 82 83 77 72 67 71 68 77 85 75 74
60 58 62 27 37 46 38 31 38 44 47 48 56 67 73 80 82 69 74 78 80 76 78 71 72 77 70 74 74 78 77 74 69 68 64 72 82 75 73 59 65 71 61 72 74 80 82
64 63 64 47 23 46 44 30 36 46 50 48 58 60 53 87 81 73 75 78 75 79 66 72 74 78 68 65 66 66 68 69 71 75 75 74 81 85 77 68 64 57 57 67 67 68 76
67 66 61 58 21 44 41 31 34 50 49 54 57 60 55 72 84 75 74 72 78 70 73 70 71 73 59 64 65 73 82 82 85 80 76 74 76 86 90 67 49 35 53 54 61 62 74
68 65 66 64 27 42 33 33 37 48 53 51 56 56 58 73 78 76 76 73 70 68 72 72 61 62 63 64 67 63 62 54 63 66 84 77 79 80 86 87 49 36 45 59 64 53 64
75 90 71 71 38 46 37 39 46 50 56 59 60 62 60 63 65 61 72 72 78 75 72 65 64 63 67 72 69 60 58 63 63 61 73 76 75 76 89 76 41 20 40 48 47 65 43
85 97 82 78 65 39 49 43 56 60 58 60 61 58 54 60 52 62 70 73 67 75 81 76 67 69 67 80 78 87 76 66 71 65 60 76 83 88 85 88 67 45 46 44 52 30 36
95 96 96 83 81 29 55 51 50 63 61 62 62 64 57 56 50 52 55 61 70 75 80 66 72 73 81 74 84 82 85 78 77 69 65 69 83 88 88 89 69 47 50 52 44 36 45
100 100 99 91 89 67 36 62 58 54 61 70 71 67 66 67 64 62 61 54 57 61 62 71 72 74 73 91 91 88 87 89 79 75 61 69 60 56 72 66 48 47 46 35 34 34 37

GFSGBSN_850_rhum_120.txt.gz
RH
99 93 92 89 96 97 90 98 80 61 74 74 91 84 80 90 84 86 90 93 93 90 73 74 64 79 85 94 96 75 93 98 89 50 45 45 38 39 36 43 45 33 43 52 50 53 50
92 99 92 90 91 94 94 99 94 87 83 89 98 97 81 78 73 65 60 87 94 95 67 67 66 88 89 92 99 100 98 87 57 46 45 42 44 42 47 48 38 50 52 49 51 49 52
93 93 88 90 88 96 97 99 99 97 100 94 91 76 78 89 73 64 68 78 77 86 59 85 96 100 90 96 88 100 78 63 56 47 42 36 34 47 52 53 65 58 45 42 47 53 48
83 91 86 88 93 95 99 99 99 70 83 95 90 83 83 90 77 82 76 84 82 79 52 95 97 90 98 96 96 92 62 54 52 48 43 52 47 56 58 59 51 47 43 35 40 47 54
87 90 84 92 97 98 98 94 84 79 69 78 79 79 74 82 66 82 77 83 69 63 62 88 90 89 99 100 93 73 71 71 59 58 60 56 49 61 58 46 42 41 38 53 42 48 49
95 78 88 93 98 96 100 97 86 76 75 72 74 83 78 98 90 90 92 78 71 90 96 78 78 84 100 99 85 68 68 70 72 70 63 61 64 55 49 49 37 38 44 41 43 40 45
87 92 79 95 97 98 99 92 89 67 73 74 77 81 82 98 100 100 82 70 71 81 82 93 92 100 98 98 91 77 75 67 69 65 59 67 62 75 51 49 53 50 51 49 40 39 51
62 70 65 75 90 99 100 88 86 69 70 74 76 71 88 82 82 81 70 96 98 93 96 100 100 98 98 97 89 74 66 64 63 68 58 55 63 54 55 58 60 62 56 44 43 46 53
58 53 40 53 76 85 78 63 74 60 70 72 74 78 92 81 75 70 75 85 92 77 97 100 98 98 98 95 87 71 73 71 58 61 53 54 60 58 56 60 63 55 54 51 59 53 47
53 55 36 46 62 85 84 64 48 50 62 70 57 68 89 83 82 80 74 86 86 84 90 100 97 97 96 78 68 71 69 66 57 57 55 51 56 59 62 64 61 60 51 58 65 71 78
56 49 53 39 45 52 60 45 40 44 56 63 55 57 70 75 76 74 69 68 73 69 84 96 92 82 75 70 66 66 64 62 60 61 55 57 61 67 69 61 58 53 55 59 64 73 92
26 59 53 48 46 43 43 36 33 38 47 55 61 53 53 61 58 53 63 70 63 87 92 94 70 67 61 65 67 66 63 61 68 57 59 53 58 57 50 51 58 50 61 63 70 83 94
25 54 56 49 41 38 37 38 32 28 35 50 56 56 57 59 57 59 62 60 90 83 79 69 69 62 57 57 58 58 57 46 62 77 75 58 61 58 57 61 62 69 79 82 82 92 74
50 25 59 52 43 38 35 35 34 26 33 45 53 58 59 57 57 55 58 60 77 69 75 70 71 64 59 52 49 55 55 58 56 60 70 76 69 62 62 62 62 64 71 88 86 72 69
61 20 51 54 50 34 30 32 41 40 34 40 44 52 55 51 48 47 60 89 81 70 68 66 64 53 62 60 54 57 56 58 58 57 70 70 75 58 66 60 65 91 96 80 100 83 89
59 41 27 55 47 39 27 24 34 36 36 37 38 43 51 45 43 44 69 89 79 73 70 67 53 51 54 56 54 58 63 60 66 65 58 67 86 57 63 72 74 91 85 100 99 91 80
55 56 20 48 51 40 31 24 29 33 33 35 36 42 44 45 42 63 97 94 76 76 76 69 54 56 66 75 69 72 69 59 66 73 66 76 91 69 75 82 86 96 99 96 96 96 76
63 52 41 23 53 44 32 25 24 28 29 33 38 67 44 38 71 82 82 74 79 69 76 66 64 54 66 72 70 77 74 64 65 70 81 72 78 89 67 57 60 71 80 69 81 88 78
64 55 51 19 45 46 33 30 29 28 33 29 36 41 38 35 79 77 69 68 71 66 67 66 64 59 52 67 70 70 69 64 70 71 70 66 82 84 56 59 60 70 65 65 60 69 79
61 64 52 35 26 44 34 30 34 33 32 34 37 73 41 45 67 60 68 70 66 70 67 68 63 62 58 61 60 62 59 59 73 72 77 72 71 67 61 52 57 64 55 54 63 82 62
58 65 58 50 21 43 39 27 34 35 36 37 42 72 67 73 69 66 66 66 65 64 66 66 58 64 65 57 57 56 61 57 62 64 71 69 81 76 60 52 54 59 54 53 78 64 68
64 64 66 55 31 29 40 32 33 36 36 40 53 61 62 76 76 62 66 62 64 67 65 59 57 61 60 57 53 55 62 59 54 56 58 61 77 67 61 51 59 61 47 49 58 58 60
69 68 68 63 53 26 34 38 28 38 35 44 50 51 50 85 71 57 50 59 62 70 65 67 62 64 58 55 59 59 62 61 61 62 60 62 67 70 65 48 48 46 38 44 52 53 49
88 83 81 69 60 39 28 33 30 40 35 38 48 52 50 52 62 54 63 67 66 66 64 66 74 65 56 62 65 74 79 75 72 68 67 62 62 69 75 53 48 29 47 42 47 46 49
97 99 99 78 67 48 30 30 31 48 46 42 43 48 52 49 56 61 67 65 67 70 69 69 64 64 64 62 51 46 42 49 57 62 66 65 60 58 60 53 31 27 36 49 52 38 39
98 99 100 98 76 60 35 39 33 52 58 56 57 57 50 51 46 56 63 67 55 58 56 66 60 67 66 58 53 51 34 45 44 50 60 65 63 61 64 62 33 18 33 46 45 42 37
100 100 100 99 90 78 38 50 43 47 57 61 59 60 53 57 50 54 60 60 67 66 57 66 69 71 69 58 59 59 48 54 49 49 59 66 65 73 61 59 36 28 42 47 40 22 35
99 100 99 100 100 87 54 52 53 52 54 55 57 62 63 55 51 48 52 55 67 70 53 62 68 73 68 67 62 55 59 54 59 50 48 47 52 61 61 68 59 41 47 42 37 36 46
99 99 100 99 99 95 89 39 60 57 57 59 62 66 69 67 62 59 56 55 52 54 56 64 70 68 63 64 67 63 62 64 54 40 52 54 35 32 42 36 37 40 45 38 39 42 45

GFSGBSN_850_rhum_123.txt.gz
RH
92 93 86 83 90 87 87 89 87 90 97 99 98 88 84 79 83 92 100 96 94 76 68 56 80 100 96 84 97 71 97 93 47 50 41 34 28 28 26 29 30 24 30 38 36 39 36
88 96 81 86 83 78 89 88 78 84 95 93 87 83 86 77 72 86 96 91 97 72 60 65 80 97 85 94 87 84 100 89 60 53 48 39 33 30 31 32 28 31 35 33 36 36 37
79 88 96 77 83 88 84 77 74 78 86 75 75 84 87 74 67 87 90 94 81 68 69 73 91 72 87 100 98 99 74 70 53 53 50 46 38 32 35 36 43 39 35 33 33 36 36
90 78 95 84 85 91 94 84 66 80 82 75 86 64 74 84 73 82 94 88 67 79 92 99 97 81 98 100 93 69 68 65 60 44 41 56 50 48 42 43 38 35 33 33 32 39 43
98 82 61 64 83 92 86 81 84 80 78 78 80 69 74 94 70 82 88 69 53 88 92 97 90 88 99 99 84 74 61 62 64 62 57 54 54 50 45 37 35 33 36 43 33 37 36
68 99 50 44 71 91 91 81 95 84 84 77 76 76 86 97 90 83 80 85 90 89 84 78 78 78 99 99 83 79 67 61 61 60 53 50 50 41 34 46 40 26 34 28 30 33 38
54 53 49 36 78 90 89 77 82 83 88 84 81 82 86 88 89 90 92 81 75 93 97 100 100 99 99 98 85 77 63 57 55 50 46 49 58 77 37 37 37 32 32 31 26 26 40
51 32 49 38 48 66 86 68 71 83 88 83 78 77 78 71 67 65 78 91 98 94 96 100 99 98 96 92 89 66 64 50 49 53 44 49 58 46 44 46 45 43 36 31 30 38 42
53 44 33 34 33 38 45 52 53 64 72 82 80 78 72 69 66 71 73 80 78 92 97 99 98 98 97 88 72 68 62 56 43 44 37 50 47 46 44 47 45 38 38 39 46 44 36
51 48 36 38 32 32 32 40 45 57 61 63 75 78 75 69 67 64 66 74 77 84 80 99 90 95 87 82 60 68 68 57 44 44 38 44 49 46 47 46 45 43 42 46 52 59 73
41 51 39 32 32 27 26 32 38 45 56 52 64 72 77 71 62 57 59 63 63 72 78 86 77 75 69 60 58 56 64 49 46 44 46 49 51 55 54 50 48 47 46 50 54 62 88
26 50 48 30 31 29 26 24 30 35 44 55 55 60 72 79 65 54 59 57 53 89 90 91 57 54 49 50 53 55 51 51 55 42 41 43 48 48 44 40 46 44 53 50 58 68 86
58 32 49 38 25 28 24 33 26 33 45 53 57 60 59 58 78 58 56 70 89 83 66 60 50 41 37 42 40 42 44 43 55 84 62 52 52 46 49 54 53 58 57 74 79 84 69
67 33 47 43 30 22 19 30 36 34 40 43 51 56 57 60 57 54 52 51 81 59 56 52 50 43 44 43 44 49 50 51 49 48 54 65 78 54 52 54 57 55 58 82 81 73 69
58 59 25 48 35 25 18 25 29 33 37 38 42 48 61 52 50 56 59 88 70 54 53 48 52 40 52 49 47 48 48 50 50 49 61 57 67 49 52 50 55 83 79 69 100 68 82
63 56 42 36 42 30 23 22 27 28 31 33 35 49 48 53 58 55 63 69 68 57 55 53 43 41 44 46 46 47 51 50 56 56 48 58 76 50 57 62 63 75 86 98 100 90 84
59 60 55 24 46 33 27 24 21 24 27 30 32 39 36 37 56 58 95 76 63 64 64 58 48 49 51 54 52 54 54 51 50 58 54 63 79 67 66 76 72 97 97 98 89 73 85
53 64 56 42 28 43 30 29 26 24 26 26 40 54 33 45 72 66 73 60 65 61 66 56 54 47 54 55 55 60 62 56 56 61 67 62 67 82 62 47 50 55 64 72 98 97 82
64 57 64 54 23 43 30 30 30 26 28 25 48 48 35 37 72 65 60 60 61 57 56 55 53 50 47 55 59 56 56 56 59 61 60 58 70 78 61 52 50 64 54 56 56 65 78
67 60 62 59 49 27 38 26 34 26 26 29 46 66 55 53 59 46 58 59 58 66 56 56 51 52 51 51 49 51 50 52 61 62 71 67 64 66 68 48 48 55 48 50 56 82 65
66 70 62 65 58 35 35 36 28 35 24 29 38 54 56 66 49 47 52 51 53 55 58 56 50 50 48 47 45 44 44 44 52 65 62 62 76 75 59 49 44 46 48 45 61 62 63
73 71 75 66 65 58 31 38 33 36 27 33 49 48 59 54 59 52 57 51 48 52 52 48 51 45 45 45 36 39 45 43 39 52 52 54 72 57 59 34 44 52 45 45 43 42 52
84 82 80 80 69 65 51 33 37 32 31 33 37 42 54 64 53 47 36 40 47 53 53 54 48 48 46 43 47 48 49 46 45 47 48 52 61 60 61 38 43 37 26 32 35 37 44
93 99 98 90 84 70 63 34 32 38 35 33 34 39 44 32 44 37 45 51 50 54 56 52 60 53 58 59 58 61 60 55 52 51 52 52 54 58 70 51 54 27 39 39 30 32 38
91 100 99 100 98 83 72 40 34 45 47 38 33 39 50 35 37 39 47 48 52 56 59 57 52 56 61 57 44 34 36 44 49 51 54 55 53 56 60 45 31 21 28 38 44 32 28
90 99 99 99 99 95 83 51 40 51 57 56 53 51 42 41 34 42 44 46 43 38 42 55 64 62 65 47 44 45 30 33 33 47 50 54 56 60 48 59 35 21 30 36 38 35 30
90 93 99 100 99 97 89 74 54 51 60 61 60 57 55 56 48 50 39 43 50 44 42 50 59 70 70 46 49 46 38 42 41 39 58 61 61 72 60 58 39 24 35 42 40 29 34
87 93 100 99 99 100 100 92 55 58 64 64 59 60 60 66 58 44 42 53 61 57 37 56 62 66 63 58 48 43 44 39 48 33 36 42 48 54 49 55 64 32 44 38 32 34 39
85 90 96 100 99 99 99 99 89 56 64 67 64 62 66 68 67 58 56 51 50 55 51 57 53 57 47 53 51 42 48 44 38 30 37 44 28 26 34 36 26 31 28 31 39 37 36

GFSGBSN_850_rhum_126.txt.gz
RH
93 97 91 77 78 93 95 84 80 81 95 96 88 84 80 97 95 100 98 80 65 71 68 85 85 78 99 94 99 97 93 75 42 45 38 33 29 26 31 29 28 26 32 34 34 37 35
94 92 98 88 71 93 97 86 83 79 87 72 84 72 96 97 100 92 89 67 57 60 74 98 87 100 89 94 97 100 95 68 52 44 39 32 29 29 29 30 30 28 33 31 32 34 34
98 92 82 79 71 82 86 83 85 75 95 89 74 84 74 89 100 93 77 76 75 62 83 95 81 87 88 100 98 92 74 62 55 48 46 39 33 32 31 34 37 34 35 38 35 33 37
97 96 86 62 57 82 82 84 89 82 88 78 59 86 65 82 88 79 70 89 82 88 92 83 90 80 98 93 90 69 65 62 49 52 45 45 43 42 40 39 34 36 31 40 40 40 45
57 85 77 74 85 73 90 83 85 89 78 89 64 81 75 83 80 60 85 87 90 90 92 88 75 80 99 94 86 71 60 60 58 42 42 35 43 45 41 42 42 36 57 45 40 34 36
54 50 59 70 47 49 79 85 82 90 90 84 84 80 78 82 80 73 72 68 80 82 82 79 88 78 97 96 81 67 60 57 56 47 42 44 46 46 40 53 69 40 37 32 34 44 42
51 38 39 38 32 35 43 56 63 76 73 79 79 84 81 82 79 80 83 83 77 93 96 100 99 98 95 80 72 65 56 52 52 47 52 48 81 91 41 46 40 35 31 33 29 35 41
51 62 42 36 34 29 35 48 55 64 68 69 70 78 72 74 70 68 81 91 93 93 96 100 100 96 93 84 66 64 60 48 47 58 41 56 70 48 44 44 44 40 37 35 34 38 43
48 46 38 32 32 29 29 42 51 55 63 67 68 65 73 85 90 71 69 84 86 93 97 99 96 96 91 78 66 64 58 50 42 44 45 63 50 43 41 43 41 41 40 46 49 48 45
36 48 44 30 28 26 26 31 44 50 57 64 66 64 68 72 71 72 66 71 72 87 93 93 76 74 75 74 58 62 60 55 42 44 44 51 44 42 42 44 42 48 43 45 52 69 91
30 45 47 37 30 27 25 27 32 45 49 63 67 67 60 57 67 70 55 59 57 91 92 75 66 66 59 55 57 53 52 46 46 41 49 53 50 51 53 49 46 52 48 54 56 68 74
61 27 48 42 30 25 34 31 31 41 49 51 53 57 62 65 57 58 55 52 72 95 96 90 50 50 42 42 44 47 45 43 50 39 38 47 47 48 48 40 43 47 60 59 59 61 89
58 38 35 42 38 24 27 32 34 38 42 46 52 54 56 55 56 52 46 65 95 91 59 59 49 34 36 36 37 42 44 47 64 89 65 54 52 45 47 58 52 59 64 84 95 83 90
62 54 24 40 36 35 22 27 31 34 37 40 46 49 49 50 47 42 60 73 85 55 56 43 44 41 45 43 47 48 51 59 49 49 60 82 82 58 55 57 56 53 56 79 86 89 90
50 62 52 22 39 33 30 24 26 28 29 34 36 50 54 51 49 58 73 87 76 56 44 42 50 41 52 47 50 50 49 52 51 50 62 66 68 47 52 48 56 74 82 75 95 83 83
58 55 58 46 28 32 30 29 23 25 28 30 32 54 43 58 61 58 81 68 69 50 47 49 46 43 43 45 48 48 50 49 54 53 47 54 66 51 62 59 61 76 83 91 98 95 92
70 54 61 56 33 33 26 30 28 25 26 27 30 50 38 45 60 63 95 74 59 57 59 59 47 45 48 52 53 56 55 53 48 56 52 57 70 66 65 78 78 92 88 92 89 88 98
70 64 56 64 55 28 26 25 30 26 24 25 41 77 34 57 82 61 90 59 58 59 62 54 56 46 51 51 51 55 56 54 53 58 63 65 66 82 69 53 52 66 76 80 95 99 99
67 70 64 60 65 51 30 23 28 27 28 28 45 38 34 44 91 76 61 60 58 58 54 55 52 49 44 53 62 53 55 56 57 59 67 60 69 92 69 58 51 62 58 61 65 82 92
69 73 74 66 63 66 43 32 22 31 29 32 49 84 48 48 49 52 60 58 58 60 55 53 50 50 49 51 49 54 48 56 57 59 67 66 64 76 90 64 59 63 56 57 66 93 75
58 75 78 75 72 66 65 35 34 25 25 35 41 60 54 88 53 46 52 50 52 58 60 53 50 51 47 49 44 47 41 50 56 65 62 68 81 77 74 63 60 60 56 52 69 66 78
74 82 85 90 82 75 68 57 34 29 30 34 61 53 45 51 54 51 59 55 50 48 51 50 58 41 44 50 42 48 44 41 42 61 56 61 86 70 75 55 53 61 52 50 48 50 58
92 91 92 99 100 92 76 69 38 30 33 35 36 38 53 57 53 50 47 40 46 51 48 51 53 51 49 50 55 50 50 48 47 50 60 59 78 79 84 62 64 61 42 45 47 45 47
91 90 92 99 99 99 92 76 42 33 39 33 36 47 50 52 54 48 43 45 50 53 57 49 55 54 58 50 47 49 55 58 53 52 48 61 63 75 89 75 77 43 38 39 46 37 39
92 92 90 95 97 98 99 88 51 40 45 42 37 42 55 56 41 38 38 46 46 51 62 54 51 53 56 52 59 49 49 51 53 55 57 57 68 76 88 74 56 39 36 40 46 42 33
90 96 91 92 94 95 98 97 73 51 54 52 51 51 44 57 48 38 40 40 53 48 44 52 53 56 54 60 52 57 50 36 51 65 49 58 65 79 82 78 67 26 32 35 38 59 34
88 94 97 96 97 98 97 99 98 61 58 60 56 57 56 65 51 42 47 51 46 45 51 48 59 69 68 67 70 68 54 40 51 48 80 79 75 90 88 87 64 31 37 42 49 32 36
90 94 99 95 92 99 99 97 100 94 64 67 63 60 60 68 57 51 41 45 52 50 50 58 65 70 75 75 65 60 56 51 53 41 53 70 82 87 80 78 78 37 46 50 37 31 36
96 95 95 96 93 98 100 99 99 100 81 73 71 64 63 69 60 57 56 50 44 48 47 50 56 57 55 74 70 60 58 55 52 53 37 48 41 45 56 59 35 34 26 27 31 33 36

GFSGBSN_850_rhum_129.txt.gz
RH
81 82 83 99 92 90 90 88 86 100 94 81 92 96 99 98 97 87 62 71 71 68 88 98 99 99 96 83 99 87 68 43 42 38 33 31 30 30 38 33 27 28 36 34 36 35 32
96 82 78 99 93 87 86 91 83 100 100 84 80 100 90 77 81 86 75 64 96 90 92 90 91 99 83 94 97 98 54 44 41 38 36 32 31 30 32 32 34 34 34 34 33 34 34
96 71 74 97 100 89 85 88 82 99 100 74 83 82 67 67 85 80 68 72 92 90 87 88 86 81 85 100 97 78 64 54 48 42 39 34 32 31 30 39 35 33 35 39 38 36 42
65 71 63 69 88 81 85 88 86 93 100 89 74 76 69 92 90 90 98 90 85 83 91 86 83 85 98 92 77 63 59 52 48 43 37 35 34 37 39 35 35 38 37 45 41 42 46
57 38 50 44 44 61 54 64 64 65 83 94 73 72 71 82 79 86 89 91 94 85 88 82 85 84 99 96 87 61 55 43 38 33 36 36 30 38 40 49 56 40 63 44 45 42 47
46 60 42 36 32 42 47 56 62 61 62 80 79 76 76 76 77 79 86 79 78 84 86 83 88 81 97 97 71 60 58 44 36 34 31 34 44 54 50 70 73 47 40 42 39 46 42
37 30 45 29 33 35 44 49 57 60 63 61 74 78 73 62 62 53 63 76 78 93 96 100 95 94 89 78 68 58 54 50 51 50 54 49 79 82 57 50 42 40 35 36 34 39 40
40 34 26 29 29 29 38 46 51 57 58 60 68 69 65 58 62 62 62 90 90 92 97 96 92 84 79 72 62 56 52 51 49 57 46 68 74 52 47 45 45 42 40 45 44 44 47
34 38 31 24 28 25 29 38 47 55 57 62 58 64 64 61 60 57 66 71 78 94 90 88 79 74 73 65 62 56 50 44 45 59 60 71 56 42 42 44 46 44 47 55 56 58 55
29 37 34 26 27 30 28 35 43 48 57 60 59 54 55 65 60 74 58 64 71 84 91 86 68 63 60 63 57 46 49 52 44 54 53 59 47 48 45 49 48 56 51 53 61 75 88
58 26 35 31 22 29 34 35 42 48 51 55 58 58 59 57 57 55 58 56 56 86 90 62 67 57 53 57 55 39 45 42 54 52 55 55 53 53 57 57 49 62 56 58 60 73 84
62 47 31 34 29 23 30 34 36 40 42 46 50 49 53 56 55 59 53 54 76 79 97 76 57 51 46 42 42 42 43 39 46 43 52 53 46 49 51 46 43 50 62 65 65 67 95
53 60 35 36 33 30 24 29 31 35 36 39 49 47 45 51 52 46 50 72 80 92 56 59 56 35 38 41 43 50 49 54 72 77 70 58 54 47 48 59 52 62 72 90 87 97 92
64 57 56 28 36 31 29 24 26 30 30 33 42 51 40 39 41 50 66 67 83 64 66 46 48 47 52 50 50 50 55 70 52 54 74 89 76 63 57 62 68 50 55 75 91 93 91
66 56 61 55 27 31 30 30 27 30 30 28 40 40 52 60 54 59 50 88 77 63 52 51 53 52 57 50 52 53 52 59 62 59 73 75 77 54 56 55 60 71 85 78 93 86 86
63 60 56 62 51 31 24 30 28 28 28 28 36 48 40 61 61 57 75 78 70 51 49 52 56 45 52 49 54 54 56 52 62 58 53 59 70 57 64 61 68 83 80 87 94 94 87
55 62 61 58 61 48 30 21 29 22 25 30 45 52 45 50 61 53 93 75 65 56 60 65 62 49 54 57 61 65 61 56 52 62 56 55 70 71 69 79 81 91 82 89 93 95 98
46 48 60 65 62 63 48 31 20 25 24 26 45 57 36 42 64 76 93 68 61 61 61 67 60 52 56 54 59 60 60 59 54 61 70 64 64 86 75 57 64 71 80 83 93 96 96
52 54 53 60 66 66 64 46 31 24 22 24 36 42 44 51 88 83 65 64 63 63 64 60 60 52 48 57 68 56 57 58 57 64 66 69 84 96 76 64 59 64 72 76 78 82 89
63 67 76 74 66 67 68 64 42 28 27 31 42 77 46 47 53 68 64 63 68 60 58 55 57 52 54 58 53 59 60 62 58 62 64 66 78 80 87 68 68 75 67 69 77 98 87
81 80 81 89 92 79 74 69 60 35 27 34 39 63 57 86 61 53 55 58 58 67 62 56 57 57 57 59 53 60 46 68 63 67 66 78 88 84 80 76 74 75 73 67 81 75 82
86 90 86 89 95 98 87 76 67 37 27 36 48 52 44 56 53 55 61 64 57 54 58 60 63 53 49 57 53 54 50 47 56 80 72 75 86 77 84 68 68 78 69 68 63 58 68
88 86 88 91 96 100 99 91 74 42 32 38 42 42 52 62 59 66 66 49 54 51 50 52 55 55 55 54 55 51 51 49 53 67 74 78 85 82 89 70 76 70 59 52 55 55 53
84 86 87 96 100 97 99 97 86 50 38 40 48 52 54 61 73 63 46 44 55 56 58 53 54 59 53 54 46 44 56 60 61 63 56 70 73 81 92 78 70 37 40 39 46 45 45
85 89 85 95 100 96 96 95 93 71 44 46 47 49 60 71 55 46 42 49 47 51 58 56 53 52 54 49 66 60 55 58 59 67 69 64 76 86 92 86 60 44 44 44 48 44 43
88 92 87 91 100 99 96 94 95 98 59 48 52 54 51 67 58 41 42 44 58 63 55 57 54 57 56 64 62 64 56 43 56 68 55 67 72 84 94 86 72 29 31 36 41 43 41
100 99 90 91 100 100 97 97 98 97 92 57 56 58 60 64 50 49 45 51 45 50 56 56 61 62 60 82 78 80 64 40 49 67 86 76 67 85 77 90 80 52 34 41 25 13 34
100 100 96 93 100 100 100 98 100 98 98 87 65 62 64 63 53 45 47 43 50 51 55 54 60 73 84 84 81 74 67 56 54 54 83 88 94 91 77 90 88 43 48 32 25 31 27
99 98 99 99 100 100 100 98 99 100 100 99 86 71 67 68 54 49 53 53 53 46 45 48 53 67 66 82 84 72 65 67 65 62 46 60 64 77 75 72 44 36 31 26 29 31 30